Wetterdaten: Mittwoch, 01.05.2019
Datum Zeit Temp. A. Feuchte A. Luftdruck Regen Wind Richtung Richtung Sonnenschein ET UV Solar Taupunkt Windchill Windböen
01.05.2019 00:00 2,6 °C 92 % 1018,7 hPa 0,0 mm 0,0 km/h (0 Bft) S 169 ° 0 min 0,000 mm 0,0 UV-I 0 W/m² 1,4 °C 2,6 °C 0,0 km/h (0 Bft)
01.05.2019 00:01 2,7 °C 93 % 1018,7 hPa 0,0 mm 0,0 km/h (0 Bft) S 169 ° 0 min 0,000 mm 0,0 UV-I 0 W/m² 1,7 °C 2,7 °C 0,0 km/h (0 Bft)
01.05.2019 00:03 2,8 °C 93 % 1018,6 hPa 0,0 mm 0,0 km/h (0 Bft) S 169 ° 0 min 0,000 mm 0,0 UV-I 0 W/m² 1,8 °C 2,8 °C 0,0 km/h (0 Bft)
01.05.2019 00:04 2,9 °C 93 % 1018,6 hPa 0,0 mm 0,0 km/h (0 Bft) S 169 ° 0 min 0,000 mm 0,0 UV-I 0 W/m² 1,9 °C 2,9 °C 0,0 km/h (0 Bft)
01.05.2019 00:05 3,0 °C 93 % 1018,6 hPa 0,0 mm 0,0 km/h (0 Bft) S 169 ° 0 min 0,000 mm 0,0 UV-I 0 W/m² 2,0 °C 3,0 °C 0,0 km/h (0 Bft)
01.05.2019 00:06 3,1 °C 93 % 1018,6 hPa 0,0 mm 0,0 km/h (0 Bft) S 169 ° 0 min 0,000 mm 0,0 UV-I 0 W/m² 2,1 °C 3,1 °C 0,0 km/h (0 Bft)
01.05.2019 00:07 3,1 °C 93 % 1018,6 hPa 0,0 mm 0,0 km/h (0 Bft) S 169 ° 0 min 0,000 mm 0,0 UV-I 0 W/m² 2,1 °C 3,1 °C 0,0 km/h (0 Bft)
01.05.2019 00:08 3,1 °C 93 % 1018,5 hPa 0,0 mm 0,0 km/h (0 Bft) S 169 ° 0 min 0,000 mm 0,0 UV-I 0 W/m² 2,1 °C 3,1 °C 0,0 km/h (0 Bft)
01.05.2019 00:09 3,1 °C 93 % 1018,5 hPa 0,0 mm 0,0 km/h (0 Bft) S 169 ° 0 min 0,000 mm 0,0 UV-I 0 W/m² 2,1 °C 3,1 °C 0,0 km/h (0 Bft)
01.05.2019 00:10 3,1 °C 93 % 1018,5 hPa 0,0 mm 0,0 km/h (0 Bft) S 169 ° 0 min 0,000 mm 0,0 UV-I 0 W/m² 2,1 °C 3,1 °C 0,0 km/h (0 Bft)
01.05.2019 00:11 3,1 °C 93 % 1018,6 hPa 0,0 mm 0,0 km/h (0 Bft) S 169 ° 0 min 0,000 mm 0,0 UV-I 0 W/m² 2,1 °C 3,1 °C 0,0 km/h (0 Bft)
01.05.2019 00:12 3,1 °C 93 % 1018,6 hPa 0,0 mm 0,0 km/h (0 Bft) S 169 ° 0 min 0,000 mm 0,0 UV-I 0 W/m² 2,1 °C 3,1 °C 0,0 km/h (0 Bft)
01.05.2019 00:13 3,0 °C 93 % 1018,6 hPa 0,0 mm 0,0 km/h (0 Bft) S 169 ° 0 min 0,000 mm 0,0 UV-I 0 W/m² 2,0 °C 3,0 °C 0,0 km/h (0 Bft)
01.05.2019 00:14 3,1 °C 93 % 1018,6 hPa 0,0 mm 0,0 km/h (0 Bft) S 169 ° 0 min 0,000 mm 0,0 UV-I 0 W/m² 2,1 °C 3,1 °C 0,0 km/h (0 Bft)
01.05.2019 00:15 3,1 °C 93 % 1018,6 hPa 0,0 mm 0,1 km/h (0 Bft) S-SO 163 ° 0 min 0,000 mm 0,0 UV-I 0 W/m² 2,1 °C 3,1 °C 1,6 km/h (1 Bft)
01.05.2019 00:16 3,1 °C 93 % 1018,6 hPa 0,0 mm 0,0 km/h (0 Bft) S-SO 163 ° 0 min 0,000 mm 0,0 UV-I 0 W/m² 2,1 °C 3,1 °C 0,0 km/h (0 Bft)
01.05.2019 00:17 3,1 °C 93 % 1018,6 hPa 0,0 mm 0,0 km/h (0 Bft) S-SO 163 ° 0 min 0,000 mm 0,0 UV-I 0 W/m² 2,1 °C 3,1 °C 0,0 km/h (0 Bft)
01.05.2019 00:18 3,2 °C 93 % 1018,6 hPa 0,0 mm 0,0 km/h (0 Bft) S-SO 163 ° 0 min 0,000 mm 0,0 UV-I 0 W/m² 2,2 °C 3,2 °C 0,0 km/h (0 Bft)
01.05.2019 00:19 3,2 °C 93 % 1018,6 hPa 0,0 mm 0,0 km/h (0 Bft) S-SO 163 ° 0 min 0,000 mm 0,0 UV-I 0 W/m² 2,2 °C 3,2 °C 0,0 km/h (0 Bft)
01.05.2019 00:20 3,2 °C 93 % 1018,6 hPa 0,0 mm 0,0 km/h (0 Bft) S-SO 163 ° 0 min 0,000 mm 0,0 UV-I 0 W/m² 2,2 °C 3,2 °C 0,0 km/h (0 Bft)
01.05.2019 00:21 3,2 °C 93 % 1018,6 hPa 0,0 mm 0,0 km/h (0 Bft) S-SO 163 ° 0 min 0,000 mm 0,0 UV-I 0 W/m² 2,2 °C 3,2 °C 0,0 km/h (0 Bft)
01.05.2019 00:22 3,3 °C 93 % 1018,5 hPa 0,0 mm 0,0 km/h (0 Bft) S-SO 163 ° 0 min 0,000 mm 0,0 UV-I 0 W/m² 2,3 °C 3,3 °C 0,0 km/h (0 Bft)
01.05.2019 00:23 3,3 °C 93 % 1018,6 hPa 0,0 mm 0,0 km/h (0 Bft) S-SO 163 ° 0 min 0,000 mm 0,0 UV-I 0 W/m² 2,3 °C 3,3 °C 0,0 km/h (0 Bft)
01.05.2019 00:24 3,3 °C 93 % 1018,6 hPa 0,0 mm 0,0 km/h (0 Bft) S-SO 163 ° 0 min 0,000 mm 0,0 UV-I 0 W/m² 2,3 °C 3,3 °C 0,0 km/h (0 Bft)
01.05.2019 00:25 3,3 °C 93 % 1018,6 hPa 0,0 mm 0,0 km/h (0 Bft) S-SO 163 ° 0 min 0,000 mm 0,0 UV-I 0 W/m² 2,3 °C 3,3 °C 0,0 km/h (0 Bft)
01.05.2019 00:26 3,3 °C 93 % 1018,6 hPa 0,0 mm 0,0 km/h (0 Bft) S-SO 163 ° 0 min 0,000 mm 0,0 UV-I 0 W/m² 2,3 °C 3,3 °C 0,0 km/h (0 Bft)
01.05.2019 00:27 3,4 °C 93 % 1018,6 hPa 0,0 mm 0,0 km/h (0 Bft) S-SO 163 ° 0 min 0,000 mm 0,0 UV-I 0 W/m² 2,4 °C 3,4 °C 0,0 km/h (0 Bft)
01.05.2019 00:28 3,4 °C 93 % 1018,5 hPa 0,0 mm 0,0 km/h (0 Bft) S-SO 163 ° 0 min 0,000 mm 0,0 UV-I 0 W/m² 2,4 °C 3,4 °C 0,0 km/h (0 Bft)
01.05.2019 00:29 3,4 °C 93 % 1018,5 hPa 0,0 mm 0,0 km/h (0 Bft) S-SO 163 ° 0 min 0,000 mm 0,0 UV-I 0 W/m² 2,4 °C 3,4 °C 0,0 km/h (0 Bft)
01.05.2019 00:30 3,5 °C 93 % 1018,5 hPa 0,0 mm 0,0 km/h (0 Bft) S-SO 163 ° 0 min 0,000 mm 0,0 UV-I 0 W/m² 2,5 °C 3,5 °C 0,0 km/h (0 Bft)
01.05.2019 00:31 3,5 °C 93 % 1018,5 hPa 0,0 mm 0,0 km/h (0 Bft) S-SO 163 ° 0 min 0,000 mm 0,0 UV-I 0 W/m² 2,5 °C 3,5 °C 0,0 km/h (0 Bft)
01.05.2019 00:32 3,6 °C 93 % 1018,5 hPa 0,0 mm 0,0 km/h (0 Bft) S-SO 163 ° 0 min 0,000 mm 0,0 UV-I 0 W/m² 2,6 °C 3,6 °C 0,0 km/h (0 Bft)
01.05.2019 00:33 3,5 °C 93 % 1018,5 hPa 0,0 mm 0,0 km/h (0 Bft) S-SO 163 ° 0 min 0,000 mm 0,0 UV-I 0 W/m² 2,5 °C 3,5 °C 0,0 km/h (0 Bft)
01.05.2019 00:34 3,5 °C 93 % 1018,5 hPa 0,0 mm 0,0 km/h (0 Bft) S-SO 163 ° 0 min 0,000 mm 0,0 UV-I 0 W/m² 2,5 °C 3,5 °C 0,0 km/h (0 Bft)
01.05.2019 00:35 3,6 °C 93 % 1018,5 hPa 0,0 mm 0,0 km/h (0 Bft) S-SO 163 ° 0 min 0,000 mm 0,0 UV-I 0 W/m² 2,6 °C 3,6 °C 0,0 km/h (0 Bft)
01.05.2019 00:36 3,5 °C 93 % 1018,5 hPa 0,0 mm 0,0 km/h (0 Bft) S-SO 163 ° 0 min 0,000 mm 0,0 UV-I 0 W/m² 2,5 °C 3,5 °C 0,0 km/h (0 Bft)
01.05.2019 00:37 3,6 °C 93 % 1018,5 hPa 0,0 mm 0,0 km/h (0 Bft) S-SO 163 ° 0 min 0,000 mm 0,0 UV-I 0 W/m² 2,6 °C 3,6 °C 0,0 km/h (0 Bft)
01.05.2019 00:38 3,6 °C 93 % 1018,5 hPa 0,0 mm 0,0 km/h (0 Bft) S-SO 163 ° 0 min 0,000 mm 0,0 UV-I 0 W/m² 2,6 °C 3,6 °C 0,0 km/h (0 Bft)
01.05.2019 00:39 3,6 °C 93 % 1018,5 hPa 0,0 mm 0,0 km/h (0 Bft) S-SO 163 ° 0 min 0,000 mm 0,0 UV-I 0 W/m² 2,6 °C 3,6 °C 0,0 km/h (0 Bft)
01.05.2019 00:40 3,6 °C 93 % 1018,5 hPa 0,0 mm 0,0 km/h (0 Bft) S-SO 163 ° 0 min 0,000 mm 0,0 UV-I 0 W/m² 2,6 °C 3,6 °C 0,0 km/h (0 Bft)
01.05.2019 00:41 3,6 °C 93 % 1018,5 hPa 0,0 mm 0,0 km/h (0 Bft) S-SO 163 ° 0 min 0,000 mm 0,0 UV-I 0 W/m² 2,6 °C 3,6 °C 0,0 km/h (0 Bft)
01.05.2019 00:42 3,6 °C 93 % 1018,5 hPa 0,0 mm 0,0 km/h (0 Bft) S-SO 163 ° 0 min 0,000 mm 0,0 UV-I 0 W/m² 2,6 °C 3,6 °C 0,0 km/h (0 Bft)
01.05.2019 00:43 3,7 °C 93 % 1018,4 hPa 0,0 mm 0,0 km/h (0 Bft) S-SO 163 ° 0 min 0,000 mm 0,0 UV-I 0 W/m² 2,7 °C 3,7 °C 0,0 km/h (0 Bft)
01.05.2019 00:44 3,7 °C 93 % 1018,4 hPa 0,0 mm 0,0 km/h (0 Bft) S-SO 163 ° 0 min 0,000 mm 0,0 UV-I 0 W/m² 2,7 °C 3,7 °C 0,0 km/h (0 Bft)
01.05.2019 00:45 3,7 °C 93 % 1018,4 hPa 0,0 mm 0,0 km/h (0 Bft) S-SO 163 ° 0 min 0,000 mm 0,0 UV-I 0 W/m² 2,7 °C 3,7 °C 0,0 km/h (0 Bft)
01.05.2019 00:46 3,7 °C 93 % 1018,4 hPa 0,0 mm 0,0 km/h (0 Bft) S-SO 163 ° 0 min 0,000 mm 0,0 UV-I 0 W/m² 2,7 °C 3,7 °C 0,0 km/h (0 Bft)
01.05.2019 00:47 3,7 °C 93 % 1018,4 hPa 0,0 mm 0,2 km/h (0 Bft) N-NO 20 ° 0 min 0,000 mm 0,0 UV-I 0 W/m² 2,7 °C 3,7 °C 1,6 km/h (1 Bft)
01.05.2019 00:48 3,7 °C 93 % 1018,5 hPa 0,0 mm 0,0 km/h (0 Bft) N-NO 20 ° 0 min 0,000 mm 0,0 UV-I 0 W/m² 2,7 °C 3,7 °C 0,0 km/h (0 Bft)
01.05.2019 00:49 3,8 °C 93 % 1018,4 hPa 0,0 mm 0,0 km/h (0 Bft) N-NO 20 ° 0 min 0,000 mm 0,0 UV-I 0 W/m² 2,8 °C 3,8 °C 0,0 km/h (0 Bft)
01.05.2019 00:50 3,8 °C 93 % 1018,5 hPa 0,0 mm 0,0 km/h (0 Bft) N-NO 20 ° 0 min 0,000 mm 0,0 UV-I 0 W/m² 2,8 °C 3,8 °C 0,0 km/h (0 Bft)
01.05.2019 00:51 3,8 °C 93 % 1018,5 hPa 0,0 mm 0,0 km/h (0 Bft) N-NO 20 ° 0 min 0,000 mm 0,0 UV-I 0 W/m² 2,8 °C 3,8 °C 0,0 km/h (0 Bft)
01.05.2019 00:52 3,8 °C 93 % 1018,5 hPa 0,0 mm 0,0 km/h (0 Bft) N-NO 20 ° 0 min 0,000 mm 0,0 UV-I 0 W/m² 2,8 °C 3,8 °C 0,0 km/h (0 Bft)
01.05.2019 00:53 3,9 °C 93 % 1018,5 hPa 0,0 mm 0,0 km/h (0 Bft) N-NO 20 ° 0 min 0,000 mm 0,0 UV-I 0 W/m² 2,9 °C 3,9 °C 0,0 km/h (0 Bft)
01.05.2019 00:54 3,9 °C 93 % 1018,5 hPa 0,0 mm 1,4 km/h (1 Bft) NO 44 ° 0 min 0,000 mm 0,0 UV-I 0 W/m² 2,9 °C 3,9 °C 4,8 km/h (1 Bft)
01.05.2019 00:55 3,9 °C 93 % 1018,5 hPa 0,0 mm 1,7 km/h (1 Bft) O-SO 123 ° 0 min 0,000 mm 0,0 UV-I 0 W/m² 2,9 °C 3,9 °C 6,4 km/h (2 Bft)
01.05.2019 00:56 3,9 °C 93 % 1018,5 hPa 0,0 mm 0,0 km/h (0 Bft) O-SO 121 ° 0 min 0,000 mm 0,0 UV-I 0 W/m² 2,9 °C 3,9 °C 0,0 km/h (0 Bft)
01.05.2019 00:57 3,9 °C 93 % 1018,5 hPa 0,0 mm 0,5 km/h (0 Bft) NO 44 ° 0 min 0,000 mm 0,0 UV-I 0 W/m² 2,9 °C 3,9 °C 1,6 km/h (1 Bft)
01.05.2019 00:58 3,9 °C 93 % 1018,4 hPa 0,0 mm 0,0 km/h (0 Bft) NO 44 ° 0 min 0,000 mm 0,0 UV-I 0 W/m² 2,9 °C 3,9 °C 0,0 km/h (0 Bft)
01.05.2019 00:59 3,9 °C 93 % 1018,5 hPa 0,0 mm 0,0 km/h (0 Bft) NO 44 ° 0 min 0,000 mm 0,0 UV-I 0 W/m² 2,9 °C 3,9 °C 0,0 km/h (0 Bft)
01.05.2019 01:00 3,9 °C 93 % 1018,5 hPa 0,0 mm 0,0 km/h (0 Bft) NO 44 ° 0 min 0,000 mm 0,0 UV-I 0 W/m² 2,9 °C 3,9 °C 0,0 km/h (0 Bft)
01.05.2019 01:01 3,9 °C 93 % 1018,5 hPa 0,0 mm 0,7 km/h (0 Bft) NO 44 ° 0 min 0,000 mm 0,0 UV-I 0 W/m² 2,9 °C 3,9 °C 3,2 km/h (1 Bft)
01.05.2019 01:02 4,0 °C 93 % 1018,5 hPa 0,0 mm 0,0 km/h (0 Bft) NO 44 ° 0 min 0,000 mm 0,0 UV-I 0 W/m² 3,0 °C 4,0 °C 0,0 km/h (0 Bft)
01.05.2019 01:03 4,1 °C 93 % 1018,5 hPa 0,0 mm 0,0 km/h (0 Bft) N-NW 338 ° 0 min 0,000 mm 0,0 UV-I 0 W/m² 3,1 °C 4,1 °C 0,0 km/h (0 Bft)
01.05.2019 01:04 4,1 °C 93 % 1018,5 hPa 0,0 mm 0,0 km/h (0 Bft) N-NW 338 ° 0 min 0,000 mm 0,0 UV-I 0 W/m² 3,1 °C 4,1 °C 0,0 km/h (0 Bft)
01.05.2019 01:05 4,1 °C 93 % 1018,5 hPa 0,0 mm 0,0 km/h (0 Bft) N-NW 338 ° 0 min 0,000 mm 0,0 UV-I 0 W/m² 3,1 °C 4,1 °C 0,0 km/h (0 Bft)
01.05.2019 01:06 4,1 °C 93 % 1018,5 hPa 0,0 mm 1,7 km/h (1 Bft) W 267 ° 0 min 0,000 mm 0,0 UV-I 0 W/m² 3,1 °C 4,1 °C 4,8 km/h (1 Bft)
01.05.2019 01:07 4,1 °C 93 % 1018,5 hPa 0,0 mm 4,1 km/h (1 Bft) W 267 ° 0 min 0,000 mm 0,0 UV-I 0 W/m² 3,1 °C 4,1 °C 4,8 km/h (1 Bft)
01.05.2019 01:08 4,1 °C 93 % 1018,5 hPa 0,0 mm 0,9 km/h (0 Bft) W 267 ° 0 min 0,000 mm 0,0 UV-I 0 W/m² 3,1 °C 4,1 °C 3,2 km/h (1 Bft)
01.05.2019 01:09 4,2 °C 93 % 1018,4 hPa 0,0 mm 0,0 km/h (0 Bft) W 267 ° 0 min 0,000 mm 0,0 UV-I 0 W/m² 3,2 °C 4,2 °C 0,0 km/h (0 Bft)
01.05.2019 01:10 4,2 °C 93 % 1018,4 hPa 0,0 mm 0,0 km/h (0 Bft) W 267 ° 0 min 0,000 mm 0,0 UV-I 0 W/m² 3,2 °C 4,2 °C 0,0 km/h (0 Bft)
01.05.2019 01:11 4,2 °C 93 % 1018,4 hPa 0,0 mm 0,0 km/h (0 Bft) W 267 ° 0 min 0,000 mm 0,0 UV-I 0 W/m² 3,2 °C 4,2 °C 0,0 km/h (0 Bft)
01.05.2019 01:12 4,2 °C 92 % 1018,4 hPa 0,0 mm 0,0 km/h (0 Bft) W 267 ° 0 min 0,000 mm 0,0 UV-I 0 W/m² 3,0 °C 4,2 °C 0,0 km/h (0 Bft)
01.05.2019 01:13 4,2 °C 92 % 1018,3 hPa 0,0 mm 0,0 km/h (0 Bft) W 268 ° 0 min 0,000 mm 0,0 UV-I 0 W/m² 3,0 °C 4,2 °C 0,0 km/h (0 Bft)
01.05.2019 01:14 4,2 °C 92 % 1018,3 hPa 0,0 mm 0,0 km/h (0 Bft) W 268 ° 0 min 0,000 mm 0,0 UV-I 0 W/m² 3,0 °C 4,2 °C 0,0 km/h (0 Bft)
01.05.2019 01:15 4,2 °C 92 % 1018,3 hPa 0,0 mm 0,0 km/h (0 Bft) W 268 ° 0 min 0,000 mm 0,0 UV-I 0 W/m² 3,0 °C 4,2 °C 0,0 km/h (0 Bft)
01.05.2019 01:16 4,2 °C 92 % 1018,3 hPa 0,0 mm 0,0 km/h (0 Bft) W 268 ° 0 min 0,000 mm 0,0 UV-I 0 W/m² 3,0 °C 4,2 °C 0,0 km/h (0 Bft)
01.05.2019 01:17 4,2 °C 92 % 1018,3 hPa 0,0 mm 0,0 km/h (0 Bft) W 268 ° 0 min 0,000 mm 0,0 UV-I 0 W/m² 3,0 °C 4,2 °C 0,0 km/h (0 Bft)
01.05.2019 01:18 4,2 °C 92 % 1018,2 hPa 0,0 mm 0,0 km/h (0 Bft) W 268 ° 0 min 0,000 mm 0,0 UV-I 0 W/m² 3,0 °C 4,2 °C 0,0 km/h (0 Bft)
01.05.2019 01:19 4,2 °C 92 % 1018,3 hPa 0,0 mm 0,0 km/h (0 Bft) W 268 ° 0 min 0,000 mm 0,0 UV-I 0 W/m² 3,0 °C 4,2 °C 0,0 km/h (0 Bft)
01.05.2019 01:20 4,2 °C 92 % 1018,2 hPa 0,0 mm 0,0 km/h (0 Bft) W 268 ° 0 min 0,000 mm 0,0 UV-I 0 W/m² 3,0 °C 4,2 °C 0,0 km/h (0 Bft)
01.05.2019 01:21 4,2 °C 92 % 1018,2 hPa 0,0 mm 0,0 km/h (0 Bft) W 268 ° 0 min 0,000 mm 0,0 UV-I 0 W/m² 3,0 °C 4,2 °C 0,0 km/h (0 Bft)
01.05.2019 01:22 4,2 °C 92 % 1018,2 hPa 0,0 mm 0,0 km/h (0 Bft) W 268 ° 0 min 0,000 mm 0,0 UV-I 0 W/m² 3,0 °C 4,2 °C 0,0 km/h (0 Bft)
01.05.2019 01:23 4,2 °C 92 % 1018,2 hPa 0,0 mm 0,0 km/h (0 Bft) W 268 ° 0 min 0,000 mm 0,0 UV-I 0 W/m² 3,0 °C 4,2 °C 0,0 km/h (0 Bft)
01.05.2019 01:24 4,2 °C 92 % 1018,2 hPa 0,0 mm 0,0 km/h (0 Bft) W 268 ° 0 min 0,000 mm 0,0 UV-I 0 W/m² 3,0 °C 4,2 °C 0,0 km/h (0 Bft)
01.05.2019 01:25 4,2 °C 92 % 1018,2 hPa 0,0 mm 0,0 km/h (0 Bft) W 268 ° 0 min 0,000 mm 0,0 UV-I 0 W/m² 3,0 °C 4,2 °C 0,0 km/h (0 Bft)
01.05.2019 01:26 4,2 °C 92 % 1018,2 hPa 0,0 mm 0,0 km/h (0 Bft) W 268 ° 0 min 0,000 mm 0,0 UV-I 0 W/m² 3,0 °C 4,2 °C 0,0 km/h (0 Bft)
01.05.2019 01:27 4,2 °C 92 % 1018,2 hPa 0,0 mm 0,0 km/h (0 Bft) W 268 ° 0 min 0,000 mm 0,0 UV-I 0 W/m² 3,0 °C 4,2 °C 0,0 km/h (0 Bft)
01.05.2019 01:28 4,2 °C 92 % 1018,1 hPa 0,0 mm 0,0 km/h (0 Bft) W 268 ° 0 min 0,000 mm 0,0 UV-I 0 W/m² 3,0 °C 4,2 °C 0,0 km/h (0 Bft)
01.05.2019 01:29 4,2 °C 92 % 1018,0 hPa 0,0 mm 0,0 km/h (0 Bft) W 268 ° 0 min 0,000 mm 0,0 UV-I 0 W/m² 3,0 °C 4,2 °C 0,0 km/h (0 Bft)
01.05.2019 01:30 4,2 °C 92 % 1018,0 hPa 0,0 mm 0,0 km/h (0 Bft) W 268 ° 0 min 0,000 mm 0,0 UV-I 0 W/m² 3,0 °C 4,2 °C 0,0 km/h (0 Bft)
01.05.2019 01:31 4,2 °C 92 % 1018,1 hPa 0,0 mm 0,0 km/h (0 Bft) W 268 ° 0 min 0,000 mm 0,0 UV-I 0 W/m² 3,0 °C 4,2 °C 0,0 km/h (0 Bft)
01.05.2019 01:32 4,2 °C 92 % 1018,1 hPa 0,0 mm 0,0 km/h (0 Bft) W 268 ° 0 min 0,000 mm 0,0 UV-I 0 W/m² 3,0 °C 4,2 °C 0,0 km/h (0 Bft)
01.05.2019 01:33 4,2 °C 92 % 1018,1 hPa 0,0 mm 0,0 km/h (0 Bft) W 268 ° 0 min 0,000 mm 0,0 UV-I 0 W/m² 3,0 °C 4,2 °C 0,0 km/h (0 Bft)
01.05.2019 01:34 4,2 °C 92 % 1018,0 hPa 0,0 mm 0,0 km/h (0 Bft) W 268 ° 0 min 0,000 mm 0,0 UV-I 0 W/m² 3,0 °C 4,2 °C 0,0 km/h (0 Bft)
01.05.2019 01:35 4,3 °C 92 % 1018,0 hPa 0,0 mm 0,0 km/h (0 Bft) W 268 ° 0 min 0,000 mm 0,0 UV-I 0 W/m² 3,1 °C 4,3 °C 0,0 km/h (0 Bft)
01.05.2019 01:36 4,3 °C 92 % 1018,1 hPa 0,0 mm 0,0 km/h (0 Bft) W 268 ° 0 min 0,000 mm 0,0 UV-I 0 W/m² 3,1 °C 4,3 °C 0,0 km/h (0 Bft)
01.05.2019 01:37 4,3 °C 92 % 1018,1 hPa 0,0 mm 0,0 km/h (0 Bft) W 268 ° 0 min 0,000 mm 0,0 UV-I 0 W/m² 3,1 °C 4,3 °C 0,0 km/h (0 Bft)
01.05.2019 01:38 4,3 °C 92 % 1018,1 hPa 0,0 mm 0,0 km/h (0 Bft) W 268 ° 0 min 0,000 mm 0,0 UV-I 0 W/m² 3,1 °C 4,3 °C 0,0 km/h (0 Bft)
01.05.2019 01:39 4,2 °C 92 % 1018,1 hPa 0,0 mm 0,0 km/h (0 Bft) W 268 ° 0 min 0,000 mm 0,0 UV-I 0 W/m² 3,0 °C 4,2 °C 0,0 km/h (0 Bft)
01.05.2019 01:40 4,2 °C 92 % 1018,0 hPa 0,0 mm 0,0 km/h (0 Bft) W 268 ° 0 min 0,000 mm 0,0 UV-I 0 W/m² 3,0 °C 4,2 °C 0,0 km/h (0 Bft)
01.05.2019 01:41 4,2 °C 92 % 1018,0 hPa 0,0 mm 0,0 km/h (0 Bft) W 268 ° 0 min 0,000 mm 0,0 UV-I 0 W/m² 3,0 °C 4,2 °C 0,0 km/h (0 Bft)
01.05.2019 01:42 4,2 °C 92 % 1018,0 hPa 0,0 mm 0,0 km/h (0 Bft) W 268 ° 0 min 0,000 mm 0,0 UV-I 0 W/m² 3,0 °C 4,2 °C 0,0 km/h (0 Bft)
01.05.2019 01:43 4,3 °C 92 % 1018,0 hPa 0,0 mm 0,0 km/h (0 Bft) W 268 ° 0 min 0,000 mm 0,0 UV-I 0 W/m² 3,1 °C 4,3 °C 0,0 km/h (0 Bft)
01.05.2019 01:44 4,2 °C 92 % 1018,0 hPa 0,0 mm 0,0 km/h (0 Bft) W 268 ° 0 min 0,000 mm 0,0 UV-I 0 W/m² 3,0 °C 4,2 °C 0,0 km/h (0 Bft)
01.05.2019 01:45 4,3 °C 92 % 1018,0 hPa 0,0 mm 0,6 km/h (0 Bft) W 268 ° 0 min 0,000 mm 0,0 UV-I 0 W/m² 3,1 °C 4,3 °C 4,8 km/h (1 Bft)
01.05.2019 01:46 4,3 °C 92 % 1018,0 hPa 0,0 mm 0,0 km/h (0 Bft) W 268 ° 0 min 0,000 mm 0,0 UV-I 0 W/m² 3,1 °C 4,3 °C 0,0 km/h (0 Bft)
01.05.2019 01:47 4,3 °C 92 % 1018,0 hPa 0,0 mm 0,0 km/h (0 Bft) W 268 ° 0 min 0,000 mm 0,0 UV-I 0 W/m² 3,1 °C 4,3 °C 0,0 km/h (0 Bft)
01.05.2019 01:48 4,3 °C 92 % 1018,0 hPa 0,0 mm 0,0 km/h (0 Bft) W 268 ° 0 min 0,000 mm 0,0 UV-I 0 W/m² 3,1 °C 4,3 °C 0,0 km/h (0 Bft)
01.05.2019 01:49 4,3 °C 92 % 1018,1 hPa 0,0 mm 0,6 km/h (0 Bft) W 268 ° 0 min 0,000 mm 0,0 UV-I 0 W/m² 3,1 °C 4,3 °C 3,2 km/h (1 Bft)
01.05.2019 01:50 4,3 °C 92 % 1018,0 hPa 0,0 mm 0,0 km/h (0 Bft) SW 225 ° 0 min 0,000 mm 0,0 UV-I 0 W/m² 3,1 °C 4,3 °C 0,0 km/h (0 Bft)
01.05.2019 01:51 4,4 °C 92 % 1018,1 hPa 0,0 mm 0,0 km/h (0 Bft) SW 224 ° 0 min 0,000 mm 0,0 UV-I 0 W/m² 3,2 °C 4,4 °C 0,0 km/h (0 Bft)
01.05.2019 01:52 4,4 °C 92 % 1018,0 hPa 0,0 mm 0,0 km/h (0 Bft) SW 224 ° 0 min 0,000 mm 0,0 UV-I 0 W/m² 3,2 °C 4,4 °C 0,0 km/h (0 Bft)
01.05.2019 01:53 4,4 °C 92 % 1018,0 hPa 0,0 mm 0,0 km/h (0 Bft) SW 224 ° 0 min 0,000 mm 0,0 UV-I 0 W/m² 3,2 °C 4,4 °C 0,0 km/h (0 Bft)
01.05.2019 01:54 4,4 °C 92 % 1018,0 hPa 0,0 mm 0,0 km/h (0 Bft) SW 224 ° 0 min 0,000 mm 0,0 UV-I 0 W/m² 3,2 °C 4,4 °C 0,0 km/h (0 Bft)
01.05.2019 01:55 4,4 °C 92 % 1018,0 hPa 0,0 mm 0,0 km/h (0 Bft) W-SW 238 ° 0 min 0,000 mm 0,0 UV-I 0 W/m² 3,2 °C 4,4 °C 0,0 km/h (0 Bft)
01.05.2019 01:56 4,4 °C 92 % 1018,0 hPa 0,0 mm 0,0 km/h (0 Bft) W-SW 237 ° 0 min 0,000 mm 0,0 UV-I 0 W/m² 3,2 °C 4,4 °C 0,0 km/h (0 Bft)
01.05.2019 01:57 4,4 °C 92 % 1018,0 hPa 0,0 mm 0,0 km/h (0 Bft) W-SW 237 ° 0 min 0,000 mm 0,0 UV-I 0 W/m² 3,2 °C 4,4 °C 0,0 km/h (0 Bft)
01.05.2019 01:58 4,5 °C 91 % 1018,0 hPa 0,0 mm 0,8 km/h (0 Bft) W-SW 239 ° 0 min 0,000 mm 0,0 UV-I 0 W/m² 3,2 °C 4,5 °C 3,2 km/h (1 Bft)
01.05.2019 01:59 4,4 °C 91 % 1017,9 hPa 0,0 mm 0,5 km/h (0 Bft) S-SW 213 ° 0 min 0,000 mm 0,0 UV-I 0 W/m² 3,1 °C 4,4 °C 4,8 km/h (1 Bft)
01.05.2019 02:00 4,4 °C 91 % 1017,9 hPa 0,0 mm 1,2 km/h (1 Bft) S-SW 213 ° 0 min 0,000 mm 0,0 UV-I 0 W/m² 3,1 °C 4,4 °C 4,8 km/h (1 Bft)
01.05.2019 02:01 4,4 °C 91 % 1017,9 hPa 0,0 mm 0,0 km/h (0 Bft) S-SW 213 ° 0 min 0,000 mm 0,0 UV-I 0 W/m² 3,1 °C 4,4 °C 0,0 km/h (0 Bft)
01.05.2019 02:02 4,4 °C 91 % 1017,9 hPa 0,0 mm 0,1 km/h (0 Bft) S-SW 213 ° 0 min 0,000 mm 0,0 UV-I 0 W/m² 3,1 °C 4,4 °C 1,6 km/h (1 Bft)
01.05.2019 02:03 4,4 °C 91 % 1017,9 hPa 0,0 mm 0,0 km/h (0 Bft) W-SW 246 ° 0 min 0,000 mm 0,0 UV-I 0 W/m² 3,1 °C 4,4 °C 0,0 km/h (0 Bft)
01.05.2019 02:04 4,4 °C 91 % 1017,9 hPa 0,0 mm 0,0 km/h (0 Bft) W-SW 246 ° 0 min 0,000 mm 0,0 UV-I 0 W/m² 3,1 °C 4,4 °C 0,0 km/h (0 Bft)
01.05.2019 02:05 4,4 °C 91 % 1017,9 hPa 0,0 mm 0,2 km/h (0 Bft) W-SW 246 ° 0 min 0,000 mm 0,0 UV-I 0 W/m² 3,1 °C 4,4 °C 1,6 km/h (1 Bft)
01.05.2019 02:06 4,4 °C 91 % 1017,9 hPa 0,0 mm 1,0 km/h (0 Bft) S 179 ° 0 min 0,000 mm 0,0 UV-I 0 W/m² 3,1 °C 4,4 °C 4,8 km/h (1 Bft)
01.05.2019 02:07 4,4 °C 91 % 1017,9 hPa 0,0 mm 1,8 km/h (1 Bft) SO 132 ° 0 min 0,000 mm 0,0 UV-I 0 W/m² 3,1 °C 4,4 °C 8,0 km/h (2 Bft)
01.05.2019 02:08 4,4 °C 91 % 1017,8 hPa 0,0 mm 2,5 km/h (1 Bft) S-SO 155 ° 0 min 0,000 mm 0,0 UV-I 0 W/m² 3,1 °C 4,4 °C 8,0 km/h (2 Bft)
01.05.2019 02:09 4,4 °C 91 % 1017,8 hPa 0,0 mm 1,8 km/h (1 Bft) S-SO 155 ° 0 min 0,000 mm 0,0 UV-I 0 W/m² 3,1 °C 4,4 °C 3,2 km/h (1 Bft)
01.05.2019 02:10 4,4 °C 91 % 1017,8 hPa 0,0 mm 2,1 km/h (1 Bft) S-SO 155 ° 0 min 0,000 mm 0,0 UV-I 0 W/m² 3,1 °C 4,4 °C 6,4 km/h (2 Bft)
01.05.2019 02:11 4,4 °C 91 % 1017,8 hPa 0,0 mm 0,5 km/h (0 Bft) S 171 ° 0 min 0,000 mm 0,0 UV-I 0 W/m² 3,1 °C 4,4 °C 3,2 km/h (1 Bft)
01.05.2019 02:12 4,4 °C 91 % 1017,8 hPa 0,0 mm 0,1 km/h (0 Bft) S 171 ° 0 min 0,000 mm 0,0 UV-I 0 W/m² 3,1 °C 4,4 °C 1,6 km/h (1 Bft)
01.05.2019 02:13 4,4 °C 91 % 1017,8 hPa 0,0 mm 0,0 km/h (0 Bft) S 171 ° 0 min 0,000 mm 0,0 UV-I 0 W/m² 3,1 °C 4,4 °C 0,0 km/h (0 Bft)
01.05.2019 02:14 4,3 °C 91 % 1017,7 hPa 0,0 mm 0,2 km/h (0 Bft) S 171 ° 0 min 0,000 mm 0,0 UV-I 0 W/m² 3,0 °C 4,3 °C 1,6 km/h (1 Bft)
01.05.2019 02:15 4,3 °C 91 % 1017,8 hPa 0,0 mm 0,6 km/h (0 Bft) S 171 ° 0 min 0,000 mm 0,0 UV-I 0 W/m² 3,0 °C 4,3 °C 3,2 km/h (1 Bft)
01.05.2019 02:16 4,3 °C 91 % 1017,7 hPa 0,0 mm 2,9 km/h (1 Bft) S 172 ° 0 min 0,000 mm 0,0 UV-I 0 W/m² 3,0 °C 4,3 °C 8,0 km/h (2 Bft)
01.05.2019 02:17 4,3 °C 91 % 1017,7 hPa 0,0 mm 4,4 km/h (1 Bft) SO 138 ° 0 min 0,000 mm 0,0 UV-I 0 W/m² 3,0 °C 4,3 °C 6,4 km/h (2 Bft)
01.05.2019 02:18 4,3 °C 91 % 1017,7 hPa 0,0 mm 4,2 km/h (1 Bft) SO 135 ° 0 min 0,000 mm 0,0 UV-I 0 W/m² 3,0 °C 4,3 °C 6,4 km/h (2 Bft)
01.05.2019 02:19 4,3 °C 91 % 1017,7 hPa 0,0 mm 3,2 km/h (1 Bft) SO 135 ° 0 min 0,000 mm 0,0 UV-I 0 W/m² 3,0 °C 4,3 °C 4,8 km/h (1 Bft)
01.05.2019 02:20 4,3 °C 91 % 1017,7 hPa 0,0 mm 2,5 km/h (1 Bft) SO 136 ° 0 min 0,000 mm 0,0 UV-I 0 W/m² 3,0 °C 4,3 °C 4,8 km/h (1 Bft)
01.05.2019 02:21 4,3 °C 91 % 1017,7 hPa 0,0 mm 0,2 km/h (0 Bft) SO 145 ° 0 min 0,000 mm 0,0 UV-I 0 W/m² 3,0 °C 4,3 °C 1,6 km/h (1 Bft)
01.05.2019 02:22 4,3 °C 91 % 1017,7 hPa 0,0 mm 0,0 km/h (0 Bft) SO 145 ° 0 min 0,000 mm 0,0 UV-I 0 W/m² 3,0 °C 4,3 °C 0,0 km/h (0 Bft)
01.05.2019 02:23 4,3 °C 91 % 1017,6 hPa 0,0 mm 2,1 km/h (1 Bft) W-SW 240 ° 0 min 0,000 mm 0,0 UV-I 0 W/m² 3,0 °C 4,3 °C 4,8 km/h (1 Bft)
01.05.2019 02:24 4,3 °C 91 % 1017,5 hPa 0,0 mm 0,6 km/h (0 Bft) W-SW 239 ° 0 min 0,000 mm 0,0 UV-I 0 W/m² 3,0 °C 4,3 °C 1,6 km/h (1 Bft)
01.05.2019 02:25 4,3 °C 91 % 1017,6 hPa 0,0 mm 0,0 km/h (0 Bft) W-SW 239 ° 0 min 0,000 mm 0,0 UV-I 0 W/m² 3,0 °C 4,3 °C 0,0 km/h (0 Bft)
01.05.2019 02:26 4,3 °C 91 % 1017,5 hPa 0,0 mm 0,1 km/h (0 Bft) W-SW 239 ° 0 min 0,000 mm 0,0 UV-I 0 W/m² 3,0 °C 4,3 °C 1,6 km/h (1 Bft)
01.05.2019 02:27 4,3 °C 91 % 1017,6 hPa 0,0 mm 0,3 km/h (0 Bft) W-SW 242 ° 0 min 0,000 mm 0,0 UV-I 0 W/m² 3,0 °C 4,3 °C 3,2 km/h (1 Bft)
01.05.2019 02:28 4,3 °C 91 % 1017,5 hPa 0,0 mm 2,0 km/h (1 Bft) S-SW 204 ° 0 min 0,000 mm 0,0 UV-I 0 W/m² 3,0 °C 4,3 °C 6,4 km/h (2 Bft)
01.05.2019 02:29 4,3 °C 91 % 1017,5 hPa 0,0 mm 0,0 km/h (0 Bft) S-SW 204 ° 0 min 0,000 mm 0,0 UV-I 0 W/m² 3,0 °C 4,3 °C 0,0 km/h (0 Bft)
01.05.2019 02:30 4,3 °C 91 % 1017,5 hPa 0,0 mm 0,0 km/h (0 Bft) S-SW 204 ° 0 min 0,000 mm 0,0 UV-I 0 W/m² 3,0 °C 4,3 °C 0,0 km/h (0 Bft)
01.05.2019 02:31 4,3 °C 91 % 1017,5 hPa 0,0 mm 0,0 km/h (0 Bft) S-SW 204 ° 0 min 0,000 mm 0,0 UV-I 0 W/m² 3,0 °C 4,3 °C 0,0 km/h (0 Bft)
01.05.2019 02:32 4,3 °C 91 % 1017,5 hPa 0,0 mm 0,1 km/h (0 Bft) W-SW 238 ° 0 min 0,000 mm 0,0 UV-I 0 W/m² 3,0 °C 4,3 °C 1,6 km/h (1 Bft)
01.05.2019 02:33 4,3 °C 91 % 1017,5 hPa 0,0 mm 0,0 km/h (0 Bft) W-SW 238 ° 0 min 0,000 mm 0,0 UV-I 0 W/m² 3,0 °C 4,3 °C 0,0 km/h (0 Bft)
01.05.2019 02:34 4,3 °C 91 % 1017,5 hPa 0,0 mm 0,0 km/h (0 Bft) W-SW 238 ° 0 min 0,000 mm 0,0 UV-I 0 W/m² 3,0 °C 4,3 °C 0,0 km/h (0 Bft)
01.05.2019 02:35 4,3 °C 91 % 1017,5 hPa 0,0 mm 0,0 km/h (0 Bft) W-SW 238 ° 0 min 0,000 mm 0,0 UV-I 0 W/m² 3,0 °C 4,3 °C 0,0 km/h (0 Bft)
01.05.2019 02:36 4,3 °C 91 % 1017,5 hPa 0,0 mm 0,0 km/h (0 Bft) W-SW 238 ° 0 min 0,000 mm 0,0 UV-I 0 W/m² 3,0 °C 4,3 °C 0,0 km/h (0 Bft)
01.05.2019 02:37 4,3 °C 91 % 1017,5 hPa 0,0 mm 0,0 km/h (0 Bft) W-SW 238 ° 0 min 0,000 mm 0,0 UV-I 0 W/m² 3,0 °C 4,3 °C 0,0 km/h (0 Bft)
01.05.2019 02:38 4,3 °C 91 % 1017,5 hPa 0,0 mm 0,3 km/h (0 Bft) S-SW 192 ° 0 min 0,000 mm 0,0 UV-I 0 W/m² 3,0 °C 4,3 °C 1,6 km/h (1 Bft)
01.05.2019 02:39 4,3 °C 91 % 1017,5 hPa 0,0 mm 0,3 km/h (0 Bft) S-SW 192 ° 0 min 0,000 mm 0,0 UV-I 0 W/m² 3,0 °C 4,3 °C 3,2 km/h (1 Bft)
01.05.2019 02:40 4,3 °C 91 % 1017,5 hPa 0,0 mm 0,6 km/h (0 Bft) S-SW 192 ° 0 min 0,000 mm 0,0 UV-I 0 W/m² 3,0 °C 4,3 °C 3,2 km/h (1 Bft)
01.05.2019 02:41 4,3 °C 91 % 1017,4 hPa 0,0 mm 0,0 km/h (0 Bft) S-SW 192 ° 0 min 0,000 mm 0,0 UV-I 0 W/m² 3,0 °C 4,3 °C 0,0 km/h (0 Bft)
01.05.2019 02:42 4,3 °C 91 % 1017,4 hPa 0,0 mm 0,0 km/h (0 Bft) S-SW 192 ° 0 min 0,000 mm 0,0 UV-I 0 W/m² 3,0 °C 4,3 °C 0,0 km/h (0 Bft)
01.05.2019 02:43 4,3 °C 91 % 1017,4 hPa 0,0 mm 0,0 km/h (0 Bft) S-SW 192 ° 0 min 0,000 mm 0,0 UV-I 0 W/m² 3,0 °C 4,3 °C 0,0 km/h (0 Bft)
01.05.2019 02:44 4,3 °C 91 % 1017,4 hPa 0,0 mm 1,5 km/h (1 Bft) S-SW 208 ° 0 min 0,000 mm 0,0 UV-I 0 W/m² 3,0 °C 4,3 °C 4,8 km/h (1 Bft)
01.05.2019 02:45 4,3 °C 91 % 1017,4 hPa 0,0 mm 0,0 km/h (0 Bft) S-SW 208 ° 0 min 0,000 mm 0,0 UV-I 0 W/m² 3,0 °C 4,3 °C 0,0 km/h (0 Bft)
01.05.2019 02:46 4,3 °C 91 % 1017,3 hPa 0,0 mm 0,0 km/h (0 Bft) S-SW 208 ° 0 min 0,000 mm 0,0 UV-I 0 W/m² 3,0 °C 4,3 °C 0,0 km/h (0 Bft)
01.05.2019 02:47 4,3 °C 91 % 1017,4 hPa 0,0 mm 0,0 km/h (0 Bft) S-SW 208 ° 0 min 0,000 mm 0,0 UV-I 0 W/m² 3,0 °C 4,3 °C 0,0 km/h (0 Bft)
01.05.2019 02:48 4,2 °C 91 % 1017,3 hPa 0,0 mm 0,0 km/h (0 Bft) S-SW 208 ° 0 min 0,000 mm 0,0 UV-I 0 W/m² 2,9 °C 4,2 °C 0,0 km/h (0 Bft)
01.05.2019 02:49 4,2 °C 91 % 1017,3 hPa 0,0 mm 0,0 km/h (0 Bft) S-SW 208 ° 0 min 0,000 mm 0,0 UV-I 0 W/m² 2,9 °C 4,2 °C 0,0 km/h (0 Bft)
01.05.2019 02:50 4,2 °C 91 % 1017,3 hPa 0,0 mm 0,0 km/h (0 Bft) S-SW 208 ° 0 min 0,000 mm 0,0 UV-I 0 W/m² 2,9 °C 4,2 °C 0,0 km/h (0 Bft)
01.05.2019 02:51 4,1 °C 91 % 1017,3 hPa 0,0 mm 0,0 km/h (0 Bft) S-SW 208 ° 0 min 0,000 mm 0,0 UV-I 0 W/m² 2,8 °C 4,1 °C 0,0 km/h (0 Bft)
01.05.2019 02:52 4,1 °C 91 % 1017,3 hPa 0,0 mm 0,0 km/h (0 Bft) S-SW 208 ° 0 min 0,000 mm 0,0 UV-I 0 W/m² 2,8 °C 4,1 °C 0,0 km/h (0 Bft)
01.05.2019 02:53 4,0 °C 91 % 1017,3 hPa 0,0 mm 0,0 km/h (0 Bft) S-SW 208 ° 0 min 0,000 mm 0,0 UV-I 0 W/m² 2,7 °C 4,0 °C 0,0 km/h (0 Bft)
01.05.2019 02:54 4,0 °C 91 % 1017,2 hPa 0,0 mm 0,0 km/h (0 Bft) S-SW 208 ° 0 min 0,000 mm 0,0 UV-I 0 W/m² 2,7 °C 4,0 °C 0,0 km/h (0 Bft)
01.05.2019 02:55 4,0 °C 91 % 1017,2 hPa 0,0 mm 0,0 km/h (0 Bft) S-SW 207 ° 0 min 0,000 mm 0,0 UV-I 0 W/m² 2,7 °C 4,0 °C 0,0 km/h (0 Bft)
01.05.2019 02:56 4,0 °C 91 % 1017,3 hPa 0,0 mm 0,0 km/h (0 Bft) S-SW 207 ° 0 min 0,000 mm 0,0 UV-I 0 W/m² 2,7 °C 4,0 °C 0,0 km/h (0 Bft)
01.05.2019 02:57 3,9 °C 91 % 1017,3 hPa 0,0 mm 0,0 km/h (0 Bft) S-SW 207 ° 0 min 0,000 mm 0,0 UV-I 0 W/m² 2,6 °C 3,9 °C 0,0 km/h (0 Bft)
01.05.2019 02:58 3,9 °C 91 % 1017,3 hPa 0,0 mm 0,0 km/h (0 Bft) S-SW 207 ° 0 min 0,000 mm 0,0 UV-I 0 W/m² 2,6 °C 3,9 °C 0,0 km/h (0 Bft)
01.05.2019 02:59 3,9 °C 91 % 1017,3 hPa 0,0 mm 0,0 km/h (0 Bft) S-SW 207 ° 0 min 0,000 mm 0,0 UV-I 0 W/m² 2,6 °C 3,9 °C 0,0 km/h (0 Bft)
01.05.2019 03:00 3,8 °C 91 % 1017,3 hPa 0,0 mm 0,0 km/h (0 Bft) SW 223 ° 0 min 0,000 mm 0,0 UV-I 0 W/m² 2,5 °C 3,8 °C 0,0 km/h (0 Bft)
01.05.2019 03:01 3,8 °C 91 % 1017,3 hPa 0,0 mm 0,0 km/h (0 Bft) S-SW 196 ° 0 min 0,000 mm 0,0 UV-I 0 W/m² 2,5 °C 3,8 °C 0,0 km/h (0 Bft)
01.05.2019 03:02 3,8 °C 91 % 1017,2 hPa 0,0 mm 0,0 km/h (0 Bft) S-SW 196 ° 0 min 0,000 mm 0,0 UV-I 0 W/m² 2,5 °C 3,8 °C 0,0 km/h (0 Bft)
01.05.2019 03:03 3,8 °C 91 % 1017,2 hPa 0,0 mm 0,0 km/h (0 Bft) S-SW 196 ° 0 min 0,000 mm 0,0 UV-I 0 W/m² 2,5 °C 3,8 °C 0,0 km/h (0 Bft)
01.05.2019 03:04 3,8 °C 91 % 1017,2 hPa 0,0 mm 0,0 km/h (0 Bft) S-SW 196 ° 0 min 0,000 mm 0,0 UV-I 0 W/m² 2,5 °C 3,8 °C 0,0 km/h (0 Bft)
01.05.2019 03:05 3,7 °C 90 % 1017,2 hPa 0,0 mm 0,0 km/h (0 Bft) S-SW 196 ° 0 min 0,000 mm 0,0 UV-I 0 W/m² 2,2 °C 3,7 °C 0,0 km/h (0 Bft)
01.05.2019 03:06 3,6 °C 91 % 1017,3 hPa 0,0 mm 0,0 km/h (0 Bft) S-SW 196 ° 0 min 0,000 mm 0,0 UV-I 0 W/m² 2,3 °C 3,6 °C 0,0 km/h (0 Bft)
01.05.2019 03:07 3,6 °C 91 % 1017,3 hPa 0,0 mm 0,0 km/h (0 Bft) S-SW 196 ° 0 min 0,000 mm 0,0 UV-I 0 W/m² 2,3 °C 3,6 °C 0,0 km/h (0 Bft)
01.05.2019 03:08 3,6 °C 91 % 1017,2 hPa 0,0 mm 0,0 km/h (0 Bft) S-SW 196 ° 0 min 0,000 mm 0,0 UV-I 0 W/m² 2,3 °C 3,6 °C 0,0 km/h (0 Bft)
01.05.2019 03:09 3,5 °C 91 % 1017,2 hPa 0,0 mm 0,0 km/h (0 Bft) S-SW 196 ° 0 min 0,000 mm 0,0 UV-I 0 W/m² 2,2 °C 3,5 °C 0,0 km/h (0 Bft)
01.05.2019 03:10 3,4 °C 91 % 1017,2 hPa 0,0 mm 0,0 km/h (0 Bft) S-SW 196 ° 0 min 0,000 mm 0,0 UV-I 0 W/m² 2,1 °C 3,4 °C 0,0 km/h (0 Bft)
01.05.2019 03:11 3,4 °C 91 % 1017,2 hPa 0,0 mm 0,0 km/h (0 Bft) S-SW 196 ° 0 min 0,000 mm 0,0 UV-I 0 W/m² 2,1 °C 3,4 °C 0,0 km/h (0 Bft)
01.05.2019 03:12 3,3 °C 91 % 1017,2 hPa 0,0 mm 0,0 km/h (0 Bft) S-SW 196 ° 0 min 0,000 mm 0,0 UV-I 0 W/m² 2,0 °C 3,3 °C 0,0 km/h (0 Bft)
01.05.2019 03:13 3,3 °C 91 % 1017,2 hPa 0,0 mm 0,0 km/h (0 Bft) S-SW 196 ° 0 min 0,000 mm 0,0 UV-I 0 W/m² 2,0 °C 3,3 °C 0,0 km/h (0 Bft)
01.05.2019 03:14 3,3 °C 91 % 1017,2 hPa 0,0 mm 0,0 km/h (0 Bft) S-SW 196 ° 0 min 0,000 mm 0,0 UV-I 0 W/m² 2,0 °C 3,3 °C 0,0 km/h (0 Bft)
01.05.2019 03:15 3,3 °C 91 % 1017,1 hPa 0,0 mm 0,0 km/h (0 Bft) S-SW 196 ° 0 min 0,000 mm 0,0 UV-I 0 W/m² 2,0 °C 3,3 °C 0,0 km/h (0 Bft)
01.05.2019 03:16 3,2 °C 91 % 1017,1 hPa 0,0 mm 0,0 km/h (0 Bft) S-SW 196 ° 0 min 0,000 mm 0,0 UV-I 0 W/m² 1,9 °C 3,2 °C 0,0 km/h (0 Bft)
01.05.2019 03:17 3,2 °C 91 % 1017,1 hPa 0,0 mm 0,0 km/h (0 Bft) S-SW 196 ° 0 min 0,000 mm 0,0 UV-I 0 W/m² 1,9 °C 3,2 °C 0,0 km/h (0 Bft)
01.05.2019 03:18 3,2 °C 91 % 1017,1 hPa 0,0 mm 0,0 km/h (0 Bft) S-SW 196 ° 0 min 0,000 mm 0,0 UV-I 0 W/m² 1,9 °C 3,2 °C 0,0 km/h (0 Bft)
01.05.2019 03:19 3,2 °C 91 % 1017,1 hPa 0,0 mm 0,0 km/h (0 Bft) S-SW 196 ° 0 min 0,000 mm 0,0 UV-I 0 W/m² 1,9 °C 3,2 °C 0,0 km/h (0 Bft)
01.05.2019 03:20 3,2 °C 91 % 1017,1 hPa 0,0 mm 0,0 km/h (0 Bft) S-SW 196 ° 0 min 0,000 mm 0,0 UV-I 0 W/m² 1,9 °C 3,2 °C 0,0 km/h (0 Bft)
01.05.2019 03:21 3,1 °C 91 % 1017,1 hPa 0,0 mm 0,1 km/h (0 Bft) W-SW 254 ° 0 min 0,000 mm 0,0 UV-I 0 W/m² 1,8 °C 3,1 °C 1,6 km/h (1 Bft)
01.05.2019 03:22 3,0 °C 91 % 1017,2 hPa 0,0 mm 0,0 km/h (0 Bft) W-SW 254 ° 0 min 0,000 mm 0,0 UV-I 0 W/m² 1,7 °C 3,0 °C 0,0 km/h (0 Bft)
01.05.2019 03:23 2,9 °C 91 % 1017,1 hPa 0,0 mm 0,0 km/h (0 Bft) W-SW 254 ° 0 min 0,000 mm 0,0 UV-I 0 W/m² 1,6 °C 2,9 °C 0,0 km/h (0 Bft)
01.05.2019 03:24 2,9 °C 91 % 1017,1 hPa 0,0 mm 0,0 km/h (0 Bft) W-SW 253 ° 0 min 0,000 mm 0,0 UV-I 0 W/m² 1,6 °C 2,9 °C 0,0 km/h (0 Bft)
01.05.2019 03:25 2,9 °C 92 % 1017,1 hPa 0,0 mm 0,0 km/h (0 Bft) W-SW 253 ° 0 min 0,000 mm 0,0 UV-I 0 W/m² 1,7 °C 2,9 °C 0,0 km/h (0 Bft)
01.05.2019 03:26 2,9 °C 92 % 1017,1 hPa 0,0 mm 0,0 km/h (0 Bft) W-SW 254 ° 0 min 0,000 mm 0,0 UV-I 0 W/m² 1,7 °C 2,9 °C 0,0 km/h (0 Bft)
01.05.2019 03:27 2,9 °C 92 % 1017,1 hPa 0,0 mm 0,0 km/h (0 Bft) W-SW 254 ° 0 min 0,000 mm 0,0 UV-I 0 W/m² 1,7 °C 2,9 °C 0,0 km/h (0 Bft)
01.05.2019 03:28 2,9 °C 92 % 1017,1 hPa 0,0 mm 0,9 km/h (0 Bft) S-SO 151 ° 0 min 0,000 mm 0,0 UV-I 0 W/m² 1,7 °C 2,9 °C 3,2 km/h (1 Bft)
01.05.2019 03:29 2,9 °C 91 % 1017,2 hPa 0,0 mm 0,0 km/h (0 Bft) S-SO 151 ° 0 min 0,000 mm 0,0 UV-I 0 W/m² 1,6 °C 2,9 °C 0,0 km/h (0 Bft)
01.05.2019 03:30 2,8 °C 91 % 1017,1 hPa 0,0 mm 0,0 km/h (0 Bft) S-SO 151 ° 0 min 0,000 mm 0,0 UV-I 0 W/m² 1,5 °C 2,8 °C 0,0 km/h (0 Bft)
01.05.2019 03:31 2,8 °C 91 % 1017,1 hPa 0,0 mm 0,0 km/h (0 Bft) S-SO 151 ° 0 min 0,000 mm 0,0 UV-I 0 W/m² 1,5 °C 2,8 °C 0,0 km/h (0 Bft)
01.05.2019 03:32 2,8 °C 92 % 1017,1 hPa 0,0 mm 0,0 km/h (0 Bft) S-SO 151 ° 0 min 0,000 mm 0,0 UV-I 0 W/m² 1,6 °C 2,8 °C 0,0 km/h (0 Bft)
01.05.2019 03:33 2,8 °C 92 % 1017,1 hPa 0,0 mm 1,1 km/h (1 Bft) S-SO 151 ° 0 min 0,000 mm 0,0 UV-I 0 W/m² 1,6 °C 2,8 °C 3,2 km/h (1 Bft)
01.05.2019 03:34 2,8 °C 92 % 1017,1 hPa 0,0 mm 0,0 km/h (0 Bft) S-SO 151 ° 0 min 0,000 mm 0,0 UV-I 0 W/m² 1,6 °C 2,8 °C 0,0 km/h (0 Bft)
01.05.2019 03:35 2,8 °C 92 % 1017,1 hPa 0,0 mm 0,0 km/h (0 Bft) S-SO 151 ° 0 min 0,000 mm 0,0 UV-I 0 W/m² 1,6 °C 2,8 °C 0,0 km/h (0 Bft)
01.05.2019 03:36 2,8 °C 92 % 1017,0 hPa 0,0 mm 0,0 km/h (0 Bft) S-SO 151 ° 0 min 0,000 mm 0,0 UV-I 0 W/m² 1,6 °C 2,8 °C 0,0 km/h (0 Bft)
01.05.2019 03:37 2,8 °C 92 % 1017,0 hPa 0,0 mm 0,0 km/h (0 Bft) S-SO 151 ° 0 min 0,000 mm 0,0 UV-I 0 W/m² 1,6 °C 2,8 °C 0,0 km/h (0 Bft)
01.05.2019 03:38 2,7 °C 92 % 1017,1 hPa 0,0 mm 0,0 km/h (0 Bft) S-SO 151 ° 0 min 0,000 mm 0,0 UV-I 0 W/m² 1,5 °C 2,7 °C 0,0 km/h (0 Bft)
01.05.2019 03:39 2,7 °C 92 % 1017,0 hPa 0,0 mm 0,0 km/h (0 Bft) S-SO 151 ° 0 min 0,000 mm 0,0 UV-I 0 W/m² 1,5 °C 2,7 °C 0,0 km/h (0 Bft)
01.05.2019 03:40 2,7 °C 92 % 1017,1 hPa 0,0 mm 0,0 km/h (0 Bft) W-NW 296 ° 0 min 0,000 mm 0,0 UV-I 0 W/m² 1,5 °C 2,7 °C 0,0 km/h (0 Bft)
01.05.2019 03:41 2,7 °C 92 % 1017,0 hPa 0,0 mm 0,0 km/h (0 Bft) O 89 ° 0 min 0,000 mm 0,0 UV-I 0 W/m² 1,5 °C 2,7 °C 0,0 km/h (0 Bft)
01.05.2019 03:42 2,7 °C 92 % 1017,0 hPa 0,0 mm 0,0 km/h (0 Bft) O 89 ° 0 min 0,000 mm 0,0 UV-I 0 W/m² 1,5 °C 2,7 °C 0,0 km/h (0 Bft)
01.05.2019 03:43 2,7 °C 92 % 1017,0 hPa 0,0 mm 0,0 km/h (0 Bft) O 89 ° 0 min 0,000 mm 0,0 UV-I 0 W/m² 1,5 °C 2,7 °C 0,0 km/h (0 Bft)
01.05.2019 03:44 2,7 °C 92 % 1017,0 hPa 0,0 mm 0,0 km/h (0 Bft) O 89 ° 0 min 0,000 mm 0,0 UV-I 0 W/m² 1,5 °C 2,7 °C 0,0 km/h (0 Bft)
01.05.2019 03:45 2,7 °C 92 % 1017,1 hPa 0,0 mm 0,0 km/h (0 Bft) O 83 ° 0 min 0,000 mm 0,0 UV-I 0 W/m² 1,5 °C 2,7 °C 0,0 km/h (0 Bft)
01.05.2019 03:46 2,7 °C 92 % 1017,0 hPa 0,0 mm 0,0 km/h (0 Bft) O 83 ° 0 min 0,000 mm 0,0 UV-I 0 W/m² 1,5 °C 2,7 °C 0,0 km/h (0 Bft)
01.05.2019 03:47 2,7 °C 92 % 1017,0 hPa 0,0 mm 0,0 km/h (0 Bft) O 83 ° 0 min 0,000 mm 0,0 UV-I 0 W/m² 1,5 °C 2,7 °C 0,0 km/h (0 Bft)
01.05.2019 03:48 2,8 °C 92 % 1017,0 hPa 0,0 mm 0,0 km/h (0 Bft) O 83 ° 0 min 0,000 mm 0,0 UV-I 0 W/m² 1,6 °C 2,8 °C 0,0 km/h (0 Bft)
01.05.2019 03:49 2,8 °C 92 % 1017,0 hPa 0,0 mm 0,0 km/h (0 Bft) O 83 ° 0 min 0,000 mm 0,0 UV-I 0 W/m² 1,6 °C 2,8 °C 0,0 km/h (0 Bft)
01.05.2019 03:50 2,8 °C 92 % 1017,0 hPa 0,0 mm 2,4 km/h (1 Bft) W 259 ° 0 min 0,000 mm 0,0 UV-I 0 W/m² 1,6 °C 2,8 °C 6,4 km/h (2 Bft)
01.05.2019 03:51 2,8 °C 92 % 1016,9 hPa 0,0 mm 0,7 km/h (0 Bft) W-NW 288 ° 0 min 0,000 mm 0,0 UV-I 0 W/m² 1,6 °C 2,8 °C 1,6 km/h (1 Bft)
01.05.2019 03:52 2,8 °C 92 % 1016,9 hPa 0,0 mm 0,0 km/h (0 Bft) W-NW 288 ° 0 min 0,000 mm 0,0 UV-I 0 W/m² 1,6 °C 2,8 °C 0,0 km/h (0 Bft)
01.05.2019 03:53 2,7 °C 92 % 1016,9 hPa 0,0 mm 0,0 km/h (0 Bft) W-NW 288 ° 0 min 0,000 mm 0,0 UV-I 0 W/m² 1,5 °C 2,7 °C 0,0 km/h (0 Bft)
01.05.2019 03:54 2,7 °C 92 % 1016,9 hPa 0,0 mm 0,0 km/h (0 Bft) W-NW 288 ° 0 min 0,000 mm 0,0 UV-I 0 W/m² 1,5 °C 2,7 °C 0,0 km/h (0 Bft)
01.05.2019 03:55 2,7 °C 92 % 1016,9 hPa 0,0 mm 0,0 km/h (0 Bft) W-NW 288 ° 0 min 0,000 mm 0,0 UV-I 0 W/m² 1,5 °C 2,7 °C 0,0 km/h (0 Bft)
01.05.2019 03:56 2,8 °C 92 % 1016,9 hPa 0,0 mm 0,0 km/h (0 Bft) W-NW 288 ° 0 min 0,000 mm 0,0 UV-I 0 W/m² 1,6 °C 2,8 °C 0,0 km/h (0 Bft)
01.05.2019 03:57 2,7 °C 92 % 1016,9 hPa 0,0 mm 0,0 km/h (0 Bft) W-NW 288 ° 0 min 0,000 mm 0,0 UV-I 0 W/m² 1,5 °C 2,7 °C 0,0 km/h (0 Bft)
01.05.2019 03:58 2,6 °C 92 % 1016,9 hPa 0,0 mm 0,0 km/h (0 Bft) W-NW 288 ° 0 min 0,000 mm 0,0 UV-I 0 W/m² 1,4 °C 2,6 °C 0,0 km/h (0 Bft)
01.05.2019 03:59 2,6 °C 92 % 1016,9 hPa 0,0 mm 0,0 km/h (0 Bft) W-NW 288 ° 0 min 0,000 mm 0,0 UV-I 0 W/m² 1,4 °C 2,6 °C 0,0 km/h (0 Bft)
01.05.2019 04:00 2,6 °C 92 % 1016,8 hPa 0,0 mm 0,0 km/h (0 Bft) W-NW 288 ° 0 min 0,000 mm 0,0 UV-I 0 W/m² 1,4 °C 2,6 °C 0,0 km/h (0 Bft)
01.05.2019 04:01 2,4 °C 92 % 1016,9 hPa 0,0 mm 0,0 km/h (0 Bft) W-NW 288 ° 0 min 0,000 mm 0,0 UV-I 0 W/m² 1,2 °C 2,4 °C 0,0 km/h (0 Bft)
01.05.2019 04:02 2,6 °C 92 % 1016,8 hPa 0,0 mm 0,0 km/h (0 Bft) W-NW 288 ° 0 min 0,000 mm 0,0 UV-I 0 W/m² 1,4 °C 2,6 °C 0,0 km/h (0 Bft)
01.05.2019 04:03 2,6 °C 92 % 1016,8 hPa 0,0 mm 0,0 km/h (0 Bft) W-NW 288 ° 0 min 0,000 mm 0,0 UV-I 0 W/m² 1,4 °C 2,6 °C 0,0 km/h (0 Bft)
01.05.2019 04:04 2,6 °C 92 % 1016,8 hPa 0,0 mm 0,0 km/h (0 Bft) W-NW 288 ° 0 min 0,000 mm 0,0 UV-I 0 W/m² 1,4 °C 2,6 °C 0,0 km/h (0 Bft)
01.05.2019 04:05 2,5 °C 92 % 1016,7 hPa 0,0 mm 0,0 km/h (0 Bft) W-NW 288 ° 0 min 0,000 mm 0,0 UV-I 0 W/m² 1,3 °C 2,5 °C 0,0 km/h (0 Bft)
01.05.2019 04:06 2,5 °C 92 % 1016,7 hPa 0,0 mm 0,0 km/h (0 Bft) W-NW 288 ° 0 min 0,000 mm 0,0 UV-I 0 W/m² 1,3 °C 2,5 °C 0,0 km/h (0 Bft)
01.05.2019 04:07 2,4 °C 92 % 1016,7 hPa 0,0 mm 0,0 km/h (0 Bft) W-NW 288 ° 0 min 0,000 mm 0,0 UV-I 0 W/m² 1,2 °C 2,4 °C 0,0 km/h (0 Bft)
01.05.2019 04:08 2,4 °C 92 % 1016,8 hPa 0,0 mm 0,0 km/h (0 Bft) W-NW 288 ° 0 min 0,000 mm 0,0 UV-I 0 W/m² 1,2 °C 2,4 °C 0,0 km/h (0 Bft)
01.05.2019 04:09 2,4 °C 92 % 1016,8 hPa 0,0 mm 0,0 km/h (0 Bft) W-NW 288 ° 0 min 0,000 mm 0,0 UV-I 0 W/m² 1,2 °C 2,4 °C 0,0 km/h (0 Bft)
01.05.2019 04:10 2,3 °C 92 % 1016,7 hPa 0,0 mm 0,0 km/h (0 Bft) W-NW 288 ° 0 min 0,000 mm 0,0 UV-I 0 W/m² 1,1 °C 2,3 °C 0,0 km/h (0 Bft)
01.05.2019 04:11 2,4 °C 92 % 1016,8 hPa 0,0 mm 0,0 km/h (0 Bft) W-NW 288 ° 0 min 0,000 mm 0,0 UV-I 0 W/m² 1,2 °C 2,4 °C 0,0 km/h (0 Bft)
01.05.2019 04:12 2,4 °C 92 % 1016,8 hPa 0,0 mm 0,0 km/h (0 Bft) W-NW 288 ° 0 min 0,000 mm 0,0 UV-I 0 W/m² 1,2 °C 2,4 °C 0,0 km/h (0 Bft)
01.05.2019 04:13 2,4 °C 92 % 1016,8 hPa 0,0 mm 0,0 km/h (0 Bft) W-NW 288 ° 0 min 0,000 mm 0,0 UV-I 0 W/m² 1,2 °C 2,4 °C 0,0 km/h (0 Bft)
01.05.2019 04:14 2,4 °C 92 % 1016,8 hPa 0,0 mm 0,0 km/h (0 Bft) W-NW 288 ° 0 min 0,000 mm 0,0 UV-I 0 W/m² 1,2 °C 2,4 °C 0,0 km/h (0 Bft)
01.05.2019 04:15 2,4 °C 92 % 1016,7 hPa 0,0 mm 0,0 km/h (0 Bft) W-NW 288 ° 0 min 0,000 mm 0,0 UV-I 0 W/m² 1,2 °C 2,4 °C 0,0 km/h (0 Bft)
01.05.2019 04:16 2,3 °C 92 % 1016,7 hPa 0,0 mm 0,0 km/h (0 Bft) W-NW 288 ° 0 min 0,000 mm 0,0 UV-I 0 W/m² 1,1 °C 2,3 °C 0,0 km/h (0 Bft)
01.05.2019 04:17 2,3 °C 92 % 1016,7 hPa 0,0 mm 0,0 km/h (0 Bft) W-NW 288 ° 0 min 0,000 mm 0,0 UV-I 0 W/m² 1,1 °C 2,3 °C 0,0 km/h (0 Bft)
01.05.2019 04:18 2,3 °C 92 % 1016,7 hPa 0,0 mm 0,0 km/h (0 Bft) W-NW 288 ° 0 min 0,000 mm 0,0 UV-I 0 W/m² 1,1 °C 2,3 °C 0,0 km/h (0 Bft)
01.05.2019 04:19 2,3 °C 92 % 1016,7 hPa 0,0 mm 0,0 km/h (0 Bft) W-NW 288 ° 0 min 0,000 mm 0,0 UV-I 0 W/m² 1,1 °C 2,3 °C 0,0 km/h (0 Bft)
01.05.2019 04:20 2,2 °C 92 % 1016,7 hPa 0,0 mm 0,0 km/h (0 Bft) W-NW 288 ° 0 min 0,000 mm 0,0 UV-I 0 W/m² 1,0 °C 2,2 °C 0,0 km/h (0 Bft)
01.05.2019 04:21 2,2 °C 92 % 1016,6 hPa 0,0 mm 0,0 km/h (0 Bft) W-NW 288 ° 0 min 0,000 mm 0,0 UV-I 0 W/m² 1,0 °C 2,2 °C 0,0 km/h (0 Bft)
01.05.2019 04:22 2,2 °C 92 % 1016,7 hPa 0,0 mm 0,0 km/h (0 Bft) W-NW 288 ° 0 min 0,000 mm 0,0 UV-I 0 W/m² 1,0 °C 2,2 °C 0,0 km/h (0 Bft)
01.05.2019 04:23 2,2 °C 92 % 1016,6 hPa 0,0 mm 0,2 km/h (0 Bft) W 281 ° 0 min 0,000 mm 0,0 UV-I 0 W/m² 1,0 °C 2,2 °C 4,8 km/h (1 Bft)
01.05.2019 04:24 2,2 °C 92 % 1016,6 hPa 0,0 mm 0,6 km/h (0 Bft) NW 321 ° 0 min 0,000 mm 0,0 UV-I 0 W/m² 1,0 °C 2,2 °C 4,8 km/h (1 Bft)
01.05.2019 04:25 2,2 °C 92 % 1016,6 hPa 0,0 mm 0,0 km/h (0 Bft) NW 321 ° 0 min 0,000 mm 0,0 UV-I 0 W/m² 1,0 °C 2,2 °C 0,0 km/h (0 Bft)
01.05.2019 04:26 2,2 °C 92 % 1016,6 hPa 0,0 mm 0,0 km/h (0 Bft) NW 321 ° 0 min 0,000 mm 0,0 UV-I 0 W/m² 1,0 °C 2,2 °C 0,0 km/h (0 Bft)
01.05.2019 04:27 2,2 °C 92 % 1016,6 hPa 0,0 mm 0,0 km/h (0 Bft) NW 321 ° 0 min 0,000 mm 0,0 UV-I 0 W/m² 1,0 °C 2,2 °C 0,0 km/h (0 Bft)
01.05.2019 04:28 2,2 °C 92 % 1016,6 hPa 0,0 mm 0,0 km/h (0 Bft) NW 321 ° 0 min 0,000 mm 0,0 UV-I 0 W/m² 1,0 °C 2,2 °C 0,0 km/h (0 Bft)
01.05.2019 04:29 2,2 °C 93 % 1016,6 hPa 0,0 mm 0,0 km/h (0 Bft) NW 321 ° 0 min 0,000 mm 0,0 UV-I 0 W/m² 1,2 °C 2,2 °C 0,0 km/h (0 Bft)
01.05.2019 04:30 2,1 °C 92 % 1016,6 hPa 0,0 mm 0,0 km/h (0 Bft) NW 321 ° 0 min 0,000 mm 0,0 UV-I 0 W/m² 0,9 °C 2,1 °C 0,0 km/h (0 Bft)
01.05.2019 04:31 2,1 °C 92 % 1016,6 hPa 0,0 mm 0,0 km/h (0 Bft) NW 321 ° 0 min 0,000 mm 0,0 UV-I 0 W/m² 0,9 °C 2,1 °C 0,0 km/h (0 Bft)
01.05.2019 04:32 2,1 °C 92 % 1016,5 hPa 0,0 mm 0,0 km/h (0 Bft) NW 321 ° 0 min 0,000 mm 0,0 UV-I 0 W/m² 0,9 °C 2,1 °C 0,0 km/h (0 Bft)
01.05.2019 04:33 2,1 °C 92 % 1016,5 hPa 0,0 mm 0,0 km/h (0 Bft) NW 321 ° 0 min 0,000 mm 0,0 UV-I 0 W/m² 0,9 °C 2,1 °C 0,0 km/h (0 Bft)
01.05.2019 04:34 2,2 °C 92 % 1016,6 hPa 0,0 mm 0,0 km/h (0 Bft) NW 321 ° 0 min 0,000 mm 0,0 UV-I 0 W/m² 1,0 °C 2,2 °C 0,0 km/h (0 Bft)
01.05.2019 04:35 2,1 °C 92 % 1016,6 hPa 0,0 mm 0,0 km/h (0 Bft) NW 321 ° 0 min 0,000 mm 0,0 UV-I 0 W/m² 0,9 °C 2,1 °C 0,0 km/h (0 Bft)
01.05.2019 04:36 2,1 °C 92 % 1016,6 hPa 0,0 mm 0,0 km/h (0 Bft) NW 321 ° 0 min 0,000 mm 0,0 UV-I 0 W/m² 0,9 °C 2,1 °C 0,0 km/h (0 Bft)
01.05.2019 04:37 2,1 °C 92 % 1016,6 hPa 0,0 mm 0,0 km/h (0 Bft) NW 321 ° 0 min 0,000 mm 0,0 UV-I 0 W/m² 0,9 °C 2,1 °C 0,0 km/h (0 Bft)
01.05.2019 04:38 2,1 °C 92 % 1016,6 hPa 0,0 mm 0,0 km/h (0 Bft) NW 321 ° 0 min 0,000 mm 0,0 UV-I 0 W/m² 0,9 °C 2,1 °C 0,0 km/h (0 Bft)
01.05.2019 04:39 2,0 °C 92 % 1016,5 hPa 0,0 mm 0,0 km/h (0 Bft) NW 321 ° 0 min 0,000 mm 0,0 UV-I 0 W/m² 0,8 °C 2,0 °C 0,0 km/h (0 Bft)
01.05.2019 04:40 2,0 °C 93 % 1016,6 hPa 0,0 mm 0,0 km/h (0 Bft) NW 321 ° 0 min 0,000 mm 0,0 UV-I 0 W/m² 1,0 °C 2,0 °C 0,0 km/h (0 Bft)
01.05.2019 04:41 2,0 °C 93 % 1016,5 hPa 0,0 mm 0,0 km/h (0 Bft) NW 321 ° 0 min 0,000 mm 0,0 UV-I 0 W/m² 1,0 °C 2,0 °C 0,0 km/h (0 Bft)
01.05.2019 04:42 2,0 °C 93 % 1016,6 hPa 0,0 mm 0,0 km/h (0 Bft) NW 321 ° 0 min 0,000 mm 0,0 UV-I 0 W/m² 1,0 °C 2,0 °C 0,0 km/h (0 Bft)
01.05.2019 04:43 2,0 °C 93 % 1016,5 hPa 0,0 mm 0,0 km/h (0 Bft) NW 321 ° 0 min 0,000 mm 0,0 UV-I 0 W/m² 1,0 °C 2,0 °C 0,0 km/h (0 Bft)
01.05.2019 04:44 2,0 °C 93 % 1016,5 hPa 0,0 mm 0,0 km/h (0 Bft) NW 321 ° 0 min 0,000 mm 0,0 UV-I 0 W/m² 1,0 °C 2,0 °C 0,0 km/h (0 Bft)
01.05.2019 04:45 1,9 °C 92 % 1016,5 hPa 0,0 mm 0,0 km/h (0 Bft) NW 321 ° 0 min 0,000 mm 0,0 UV-I 0 W/m² 0,7 °C 1,9 °C 0,0 km/h (0 Bft)
01.05.2019 04:46 1,9 °C 93 % 1016,5 hPa 0,0 mm 0,0 km/h (0 Bft) NW 321 ° 0 min 0,000 mm 0,0 UV-I 0 W/m² 0,9 °C 1,9 °C 0,0 km/h (0 Bft)
01.05.2019 04:47 1,9 °C 93 % 1016,5 hPa 0,0 mm 0,0 km/h (0 Bft) NW 321 ° 0 min 0,000 mm 0,0 UV-I 0 W/m² 0,9 °C 1,9 °C 0,0 km/h (0 Bft)
01.05.2019 04:48 2,0 °C 93 % 1016,5 hPa 0,0 mm 0,0 km/h (0 Bft) NW 321 ° 0 min 0,000 mm 0,0 UV-I 0 W/m² 1,0 °C 2,0 °C 0,0 km/h (0 Bft)
01.05.2019 04:49 1,9 °C 93 % 1016,5 hPa 0,0 mm 0,0 km/h (0 Bft) NW 321 ° 0 min 0,000 mm 0,0 UV-I 0 W/m² 0,9 °C 1,9 °C 0,0 km/h (0 Bft)
01.05.2019 04:50 2,0 °C 93 % 1016,5 hPa 0,0 mm 0,0 km/h (0 Bft) NW 321 ° 0 min 0,000 mm 0,0 UV-I 0 W/m² 1,0 °C 2,0 °C 0,0 km/h (0 Bft)
01.05.2019 04:51 2,0 °C 93 % 1016,5 hPa 0,0 mm 0,0 km/h (0 Bft) NW 321 ° 0 min 0,000 mm 0,0 UV-I 0 W/m² 1,0 °C 2,0 °C 0,0 km/h (0 Bft)
01.05.2019 04:52 2,0 °C 93 % 1016,5 hPa 0,0 mm 0,0 km/h (0 Bft) NW 321 ° 0 min 0,000 mm 0,0 UV-I 0 W/m² 1,0 °C 2,0 °C 0,0 km/h (0 Bft)
01.05.2019 04:53 2,1 °C 93 % 1016,5 hPa 0,0 mm 0,0 km/h (0 Bft) NW 321 ° 0 min 0,000 mm 0,0 UV-I 0 W/m² 1,1 °C 2,1 °C 0,0 km/h (0 Bft)
01.05.2019 04:54 2,0 °C 93 % 1016,5 hPa 0,0 mm 0,0 km/h (0 Bft) NW 321 ° 0 min 0,000 mm 0,0 UV-I 0 W/m² 1,0 °C 2,0 °C 0,0 km/h (0 Bft)
01.05.2019 04:55 2,0 °C 93 % 1016,5 hPa 0,0 mm 0,0 km/h (0 Bft) NW 321 ° 0 min 0,000 mm 0,0 UV-I 0 W/m² 1,0 °C 2,0 °C 0,0 km/h (0 Bft)
01.05.2019 04:56 2,1 °C 93 % 1016,5 hPa 0,0 mm 0,0 km/h (0 Bft) NW 321 ° 0 min 0,000 mm 0,0 UV-I 0 W/m² 1,1 °C 2,1 °C 0,0 km/h (0 Bft)
01.05.2019 04:57 2,1 °C 93 % 1016,5 hPa 0,0 mm 0,0 km/h (0 Bft) NW 321 ° 0 min 0,000 mm 0,0 UV-I 0 W/m² 1,1 °C 2,1 °C 0,0 km/h (0 Bft)
01.05.2019 04:58 2,0 °C 93 % 1016,5 hPa 0,0 mm 0,0 km/h (0 Bft) NW 321 ° 0 min 0,000 mm 0,0 UV-I 0 W/m² 1,0 °C 2,0 °C 0,0 km/h (0 Bft)
01.05.2019 04:59 2,0 °C 93 % 1016,5 hPa 0,0 mm 0,0 km/h (0 Bft) NW 321 ° 0 min 0,000 mm 0,0 UV-I 0 W/m² 1,0 °C 2,0 °C 0,0 km/h (0 Bft)
01.05.2019 05:00 2,0 °C 93 % 1016,5 hPa 0,0 mm 0,0 km/h (0 Bft) NW 321 ° 0 min 0,000 mm 0,0 UV-I 0 W/m² 1,0 °C 2,0 °C 0,0 km/h (0 Bft)
01.05.2019 05:01 1,9 °C 93 % 1016,5 hPa 0,0 mm 0,0 km/h (0 Bft) NW 321 ° 0 min 0,000 mm 0,0 UV-I 0 W/m² 0,9 °C 1,9 °C 0,0 km/h (0 Bft)
01.05.2019 05:02 1,9 °C 93 % 1016,5 hPa 0,0 mm 0,0 km/h (0 Bft) NW 321 ° 0 min 0,000 mm 0,0 UV-I 0 W/m² 0,9 °C 1,9 °C 0,0 km/h (0 Bft)
01.05.2019 05:03 1,8 °C 92 % 1016,5 hPa 0,0 mm 0,0 km/h (0 Bft) NW 321 ° 0 min 0,000 mm 0,0 UV-I 0 W/m² 0,6 °C 1,8 °C 0,0 km/h (0 Bft)
01.05.2019 05:04 1,8 °C 92 % 1016,5 hPa 0,0 mm 0,0 km/h (0 Bft) NW 321 ° 0 min 0,000 mm 0,0 UV-I 0 W/m² 0,6 °C 1,8 °C 0,0 km/h (0 Bft)
01.05.2019 05:05 1,8 °C 92 % 1016,5 hPa 0,0 mm 0,0 km/h (0 Bft) NW 321 ° 0 min 0,000 mm 0,0 UV-I 0 W/m² 0,6 °C 1,8 °C 0,0 km/h (0 Bft)
01.05.2019 05:06 1,9 °C 93 % 1016,5 hPa 0,0 mm 0,0 km/h (0 Bft) NW 321 ° 0 min 0,000 mm 0,0 UV-I 0 W/m² 0,9 °C 1,9 °C 0,0 km/h (0 Bft)
01.05.2019 05:07 1,9 °C 93 % 1016,5 hPa 0,0 mm 0,1 km/h (0 Bft) N 349 ° 0 min 0,000 mm 0,0 UV-I 0 W/m² 0,9 °C 1,9 °C 1,6 km/h (1 Bft)
01.05.2019 05:08 1,9 °C 93 % 1016,4 hPa 0,0 mm 0,0 km/h (0 Bft) N 349 ° 0 min 0,000 mm 0,0 UV-I 0 W/m² 0,9 °C 1,9 °C 0,0 km/h (0 Bft)
01.05.2019 05:09 1,8 °C 92 % 1016,4 hPa 0,0 mm 0,0 km/h (0 Bft) N 349 ° 0 min 0,000 mm 0,0 UV-I 0 W/m² 0,6 °C 1,8 °C 0,0 km/h (0 Bft)
01.05.2019 05:10 1,8 °C 92 % 1016,4 hPa 0,0 mm 0,0 km/h (0 Bft) N 349 ° 0 min 0,000 mm 0,0 UV-I 0 W/m² 0,6 °C 1,8 °C 0,0 km/h (0 Bft)
01.05.2019 05:11 1,8 °C 92 % 1016,4 hPa 0,0 mm 0,0 km/h (0 Bft) N 349 ° 0 min 0,000 mm 0,0 UV-I 0 W/m² 0,6 °C 1,8 °C 0,0 km/h (0 Bft)
01.05.2019 05:12 1,8 °C 92 % 1016,4 hPa 0,0 mm 0,0 km/h (0 Bft) N 349 ° 0 min 0,000 mm 0,0 UV-I 0 W/m² 0,6 °C 1,8 °C 0,0 km/h (0 Bft)
01.05.2019 05:13 1,8 °C 92 % 1016,5 hPa 0,0 mm 0,0 km/h (0 Bft) N 349 ° 0 min 0,000 mm 0,0 UV-I 0 W/m² 0,6 °C 1,8 °C 0,0 km/h (0 Bft)
01.05.2019 05:14 1,8 °C 92 % 1016,4 hPa 0,0 mm 0,0 km/h (0 Bft) N 349 ° 0 min 0,000 mm 0,0 UV-I 0 W/m² 0,6 °C 1,8 °C 0,0 km/h (0 Bft)
01.05.2019 05:15 1,8 °C 93 % 1016,4 hPa 0,0 mm 0,0 km/h (0 Bft) N 349 ° 0 min 0,000 mm 0,0 UV-I 0 W/m² 0,8 °C 1,8 °C 0,0 km/h (0 Bft)
01.05.2019 05:16 1,9 °C 93 % 1016,5 hPa 0,0 mm 0,0 km/h (0 Bft) N 349 ° 0 min 0,000 mm 0,0 UV-I 0 W/m² 0,9 °C 1,9 °C 0,0 km/h (0 Bft)
01.05.2019 05:17 1,9 °C 93 % 1016,5 hPa 0,0 mm 0,0 km/h (0 Bft) N 349 ° 0 min 0,000 mm 0,0 UV-I 0 W/m² 0,9 °C 1,9 °C 0,0 km/h (0 Bft)
01.05.2019 05:18 1,9 °C 93 % 1016,4 hPa 0,0 mm 0,0 km/h (0 Bft) N 349 ° 0 min 0,000 mm 0,0 UV-I 0 W/m² 0,9 °C 1,9 °C 0,0 km/h (0 Bft)
01.05.2019 05:19 1,9 °C 93 % 1016,5 hPa 0,0 mm 0,0 km/h (0 Bft) N 349 ° 0 min 0,000 mm 0,0 UV-I 0 W/m² 0,9 °C 1,9 °C 0,0 km/h (0 Bft)
01.05.2019 05:20 1,9 °C 93 % 1016,5 hPa 0,0 mm 0,0 km/h (0 Bft) N 349 ° 0 min 0,000 mm 0,0 UV-I 0 W/m² 0,9 °C 1,9 °C 0,0 km/h (0 Bft)
01.05.2019 05:21 1,9 °C 92 % 1016,4 hPa 0,0 mm 0,0 km/h (0 Bft) N 349 ° 0 min 0,000 mm 0,0 UV-I 0 W/m² 0,7 °C 1,9 °C 0,0 km/h (0 Bft)
01.05.2019 05:22 1,9 °C 92 % 1016,4 hPa 0,0 mm 0,0 km/h (0 Bft) N 349 ° 0 min 0,000 mm 0,0 UV-I 0 W/m² 0,7 °C 1,9 °C 0,0 km/h (0 Bft)
01.05.2019 05:23 1,9 °C 92 % 1016,4 hPa 0,0 mm 0,0 km/h (0 Bft) N 349 ° 0 min 0,000 mm 0,0 UV-I 0 W/m² 0,7 °C 1,9 °C 0,0 km/h (0 Bft)
01.05.2019 05:24 1,8 °C 92 % 1016,4 hPa 0,0 mm 0,0 km/h (0 Bft) N 349 ° 0 min 0,000 mm 0,0 UV-I 0 W/m² 0,6 °C 1,8 °C 0,0 km/h (0 Bft)
01.05.2019 05:25 1,9 °C 93 % 1016,4 hPa 0,0 mm 0,0 km/h (0 Bft) N 349 ° 0 min 0,000 mm 0,0 UV-I 0 W/m² 0,9 °C 1,9 °C 0,0 km/h (0 Bft)
01.05.2019 05:26 1,9 °C 93 % 1016,4 hPa 0,0 mm 0,0 km/h (0 Bft) N 349 ° 0 min 0,000 mm 0,0 UV-I 0 W/m² 0,9 °C 1,9 °C 0,0 km/h (0 Bft)
01.05.2019 05:27 1,9 °C 93 % 1016,4 hPa 0,0 mm 0,0 km/h (0 Bft) N 349 ° 0 min 0,000 mm 0,0 UV-I 0 W/m² 0,9 °C 1,9 °C 0,0 km/h (0 Bft)
01.05.2019 05:28 1,9 °C 93 % 1016,4 hPa 0,0 mm 0,0 km/h (0 Bft) N 349 ° 0 min 0,000 mm 0,0 UV-I 0 W/m² 0,9 °C 1,9 °C 0,0 km/h (0 Bft)
01.05.2019 05:29 1,9 °C 93 % 1016,4 hPa 0,0 mm 0,0 km/h (0 Bft) N 349 ° 0 min 0,000 mm 0,0 UV-I 0 W/m² 0,9 °C 1,9 °C 0,0 km/h (0 Bft)
01.05.2019 05:30 1,9 °C 93 % 1016,4 hPa 0,0 mm 0,0 km/h (0 Bft) N 349 ° 0 min 0,000 mm 0,0 UV-I 0 W/m² 0,9 °C 1,9 °C 0,0 km/h (0 Bft)
01.05.2019 05:31 1,9 °C 92 % 1016,4 hPa 0,0 mm 0,0 km/h (0 Bft) N 349 ° 0 min 0,000 mm 0,0 UV-I 0 W/m² 0,7 °C 1,9 °C 0,0 km/h (0 Bft)
01.05.2019 05:32 1,9 °C 92 % 1016,4 hPa 0,0 mm 0,8 km/h (0 Bft) N 349 ° 0 min 0,000 mm 0,0 UV-I 0 W/m² 0,7 °C 1,9 °C 4,8 km/h (1 Bft)
01.05.2019 05:33 1,8 °C 92 % 1016,4 hPa 0,0 mm 0,0 km/h (0 Bft) N 349 ° 0 min 0,000 mm 0,0 UV-I 0 W/m² 0,6 °C 1,8 °C 0,0 km/h (0 Bft)
01.05.2019 05:34 1,8 °C 92 % 1016,4 hPa 0,0 mm 0,0 km/h (0 Bft) N 349 ° 0 min 0,000 mm 0,0 UV-I 0 W/m² 0,6 °C 1,8 °C 0,0 km/h (0 Bft)
01.05.2019 05:35 1,8 °C 92 % 1016,4 hPa 0,0 mm 0,0 km/h (0 Bft) N 349 ° 0 min 0,000 mm 0,0 UV-I 0 W/m² 0,6 °C 1,8 °C 0,0 km/h (0 Bft)
01.05.2019 05:36 1,8 °C 92 % 1016,4 hPa 0,0 mm 0,0 km/h (0 Bft) N 349 ° 0 min 0,000 mm 0,0 UV-I 0 W/m² 0,6 °C 1,8 °C 0,0 km/h (0 Bft)
01.05.2019 05:37 1,8 °C 92 % 1016,4 hPa 0,0 mm 0,0 km/h (0 Bft) N 349 ° 0 min 0,000 mm 0,0 UV-I 0 W/m² 0,6 °C 1,8 °C 0,0 km/h (0 Bft)
01.05.2019 05:38 1,8 °C 92 % 1016,4 hPa 0,0 mm 0,0 km/h (0 Bft) N 349 ° 0 min 0,000 mm 0,0 UV-I 0 W/m² 0,6 °C 1,8 °C 0,0 km/h (0 Bft)
01.05.2019 05:39 1,8 °C 92 % 1016,5 hPa 0,0 mm 0,0 km/h (0 Bft) N 349 ° 0 min 0,000 mm 0,0 UV-I 0 W/m² 0,6 °C 1,8 °C 0,0 km/h (0 Bft)
01.05.2019 05:40 1,7 °C 92 % 1016,4 hPa 0,0 mm 0,0 km/h (0 Bft) N 349 ° 0 min 0,000 mm 0,0 UV-I 0 W/m² 0,5 °C 1,7 °C 0,0 km/h (0 Bft)
01.05.2019 05:41 1,7 °C 92 % 1016,4 hPa 0,0 mm 0,0 km/h (0 Bft) N 349 ° 0 min 0,000 mm 0,0 UV-I 0 W/m² 0,5 °C 1,7 °C 0,0 km/h (0 Bft)
01.05.2019 05:42 1,7 °C 92 % 1016,4 hPa 0,0 mm 0,0 km/h (0 Bft) N 349 ° 0 min 0,000 mm 0,0 UV-I 0 W/m² 0,5 °C 1,7 °C 0,0 km/h (0 Bft)
01.05.2019 05:43 1,7 °C 92 % 1016,5 hPa 0,0 mm 0,0 km/h (0 Bft) N 349 ° 0 min 0,000 mm 0,0 UV-I 0 W/m² 0,5 °C 1,7 °C 0,0 km/h (0 Bft)
01.05.2019 05:44 1,7 °C 92 % 1016,4 hPa 0,0 mm 0,0 km/h (0 Bft) N 349 ° 0 min 0,000 mm 0,0 UV-I 0 W/m² 0,5 °C 1,7 °C 0,0 km/h (0 Bft)
01.05.2019 05:45 1,7 °C 92 % 1016,4 hPa 0,0 mm 0,0 km/h (0 Bft) N 349 ° 0 min 0,000 mm 0,0 UV-I 0 W/m² 0,5 °C 1,7 °C 0,0 km/h (0 Bft)
01.05.2019 05:46 1,7 °C 92 % 1016,4 hPa 0,0 mm 0,0 km/h (0 Bft) N 349 ° 0 min 0,000 mm 0,0 UV-I 0 W/m² 0,5 °C 1,7 °C 0,0 km/h (0 Bft)
01.05.2019 05:47 1,7 °C 92 % 1016,4 hPa 0,0 mm 0,0 km/h (0 Bft) N 349 ° 0 min 0,000 mm 0,0 UV-I 0 W/m² 0,5 °C 1,7 °C 0,0 km/h (0 Bft)
01.05.2019 05:48 1,6 °C 92 % 1016,4 hPa 0,0 mm 0,0 km/h (0 Bft) N 349 ° 0 min 0,000 mm 0,0 UV-I 0 W/m² 0,4 °C 1,6 °C 0,0 km/h (0 Bft)
01.05.2019 05:49 1,6 °C 92 % 1016,4 hPa 0,0 mm 0,0 km/h (0 Bft) N 349 ° 0 min 0,000 mm 0,0 UV-I 0 W/m² 0,4 °C 1,6 °C 0,0 km/h (0 Bft)
01.05.2019 05:50 1,6 °C 93 % 1016,4 hPa 0,0 mm 0,0 km/h (0 Bft) N 349 ° 0 min 0,000 mm 0,0 UV-I 0 W/m² 0,6 °C 1,6 °C 0,0 km/h (0 Bft)
01.05.2019 05:51 1,6 °C 93 % 1016,4 hPa 0,0 mm 0,0 km/h (0 Bft) N 349 ° 0 min 0,000 mm 0,0 UV-I 0 W/m² 0,6 °C 1,6 °C 0,0 km/h (0 Bft)
01.05.2019 05:52 1,6 °C 93 % 1016,4 hPa 0,0 mm 0,0 km/h (0 Bft) N 349 ° 0 min 0,000 mm 0,0 UV-I 0 W/m² 0,6 °C 1,6 °C 0,0 km/h (0 Bft)
01.05.2019 05:53 1,6 °C 92 % 1016,4 hPa 0,0 mm 0,0 km/h (0 Bft) N 349 ° 0 min 0,000 mm 0,0 UV-I 0 W/m² 0,4 °C 1,6 °C 0,0 km/h (0 Bft)
01.05.2019 05:54 1,6 °C 93 % 1016,4 hPa 0,0 mm 0,0 km/h (0 Bft) N 349 ° 0 min 0,000 mm 0,0 UV-I 0 W/m² 0,6 °C 1,6 °C 0,0 km/h (0 Bft)
01.05.2019 05:55 1,6 °C 92 % 1016,4 hPa 0,0 mm 0,0 km/h (0 Bft) N 349 ° 0 min 0,000 mm 0,0 UV-I 0 W/m² 0,4 °C 1,6 °C 0,0 km/h (0 Bft)
01.05.2019 05:56 1,6 °C 93 % 1016,4 hPa 0,0 mm 0,0 km/h (0 Bft) N 349 ° 0 min 0,000 mm 0,0 UV-I 0 W/m² 0,6 °C 1,6 °C 0,0 km/h (0 Bft)
01.05.2019 05:57 1,6 °C 92 % 1016,4 hPa 0,0 mm 0,0 km/h (0 Bft) N 349 ° 0 min 0,000 mm 0,0 UV-I 0 W/m² 0,4 °C 1,6 °C 0,0 km/h (0 Bft)
01.05.2019 05:58 1,6 °C 93 % 1016,4 hPa 0,0 mm 0,0 km/h (0 Bft) N 349 ° 0 min 0,000 mm 0,0 UV-I 0 W/m² 0,6 °C 1,6 °C 0,0 km/h (0 Bft)
01.05.2019 05:59 1,6 °C 93 % 1016,4 hPa 0,0 mm 0,0 km/h (0 Bft) N 349 ° 0 min 0,000 mm 0,0 UV-I 0 W/m² 0,6 °C 1,6 °C 0,0 km/h (0 Bft)
01.05.2019 06:00 1,6 °C 93 % 1016,4 hPa 0,0 mm 0,0 km/h (0 Bft) N 349 ° 0 min 0,000 mm 0,0 UV-I 0 W/m² 0,6 °C 1,6 °C 0,0 km/h (0 Bft)
01.05.2019 06:01 1,6 °C 93 % 1016,4 hPa 0,0 mm 0,0 km/h (0 Bft) N 349 ° 0 min 0,000 mm 0,0 UV-I 5 W/m² 0,6 °C 1,6 °C 0,0 km/h (0 Bft)
01.05.2019 06:02 1,6 °C 92 % 1016,4 hPa 0,0 mm 0,0 km/h (0 Bft) N 349 ° 0 min 0,000 mm 0,0 UV-I 5 W/m² 0,4 °C 1,6 °C 0,0 km/h (0 Bft)
01.05.2019 06:03 1,6 °C 92 % 1016,4 hPa 0,0 mm 0,0 km/h (0 Bft) N 349 ° 0 min 0,000 mm 0,0 UV-I 5 W/m² 0,4 °C 1,6 °C 0,0 km/h (0 Bft)
01.05.2019 06:04 1,6 °C 92 % 1016,4 hPa 0,0 mm 0,0 km/h (0 Bft) N 349 ° 0 min 0,000 mm 0,0 UV-I 5 W/m² 0,4 °C 1,6 °C 0,0 km/h (0 Bft)
01.05.2019 06:05 1,5 °C 92 % 1016,4 hPa 0,0 mm 0,0 km/h (0 Bft) N 349 ° 0 min 0,000 mm 0,0 UV-I 5 W/m² 0,3 °C 1,5 °C 0,0 km/h (0 Bft)
01.05.2019 06:06 1,4 °C 92 % 1016,4 hPa 0,0 mm 0,0 km/h (0 Bft) N 349 ° 0 min 0,000 mm 0,0 UV-I 7 W/m² 0,2 °C 1,4 °C 0,0 km/h (0 Bft)
01.05.2019 06:07 1,4 °C 92 % 1016,4 hPa 0,0 mm 0,0 km/h (0 Bft) N 349 ° 0 min 0,000 mm 0,0 UV-I 7 W/m² 0,2 °C 1,4 °C 0,0 km/h (0 Bft)
01.05.2019 06:08 1,3 °C 92 % 1016,4 hPa 0,0 mm 0,0 km/h (0 Bft) N 349 ° 0 min 0,000 mm 0,0 UV-I 7 W/m² 0,1 °C 1,3 °C 0,0 km/h (0 Bft)
01.05.2019 06:09 1,3 °C 92 % 1016,4 hPa 0,0 mm 0,0 km/h (0 Bft) N 349 ° 0 min 0,000 mm 0,0 UV-I 9 W/m² 0,1 °C 1,3 °C 0,0 km/h (0 Bft)
01.05.2019 06:10 1,3 °C 92 % 1016,3 hPa 0,0 mm 0,0 km/h (0 Bft) N 349 ° 0 min 0,000 mm 0,0 UV-I 9 W/m² 0,1 °C 1,3 °C 0,0 km/h (0 Bft)
01.05.2019 06:11 1,2 °C 92 % 1016,4 hPa 0,0 mm 0,0 km/h (0 Bft) N 349 ° 0 min 0,000 mm 0,0 UV-I 9 W/m² 0,0 °C 1,2 °C 0,0 km/h (0 Bft)
01.05.2019 06:12 1,2 °C 92 % 1016,3 hPa 0,0 mm 0,0 km/h (0 Bft) N 349 ° 0 min 0,000 mm 0,0 UV-I 9 W/m² 0,0 °C 1,2 °C 0,0 km/h (0 Bft)
01.05.2019 06:13 1,2 °C 92 % 1016,4 hPa 0,0 mm 0,0 km/h (0 Bft) N 349 ° 0 min 0,000 mm 0,0 UV-I 11 W/m² 0,0 °C 1,2 °C 0,0 km/h (0 Bft)
01.05.2019 06:14 1,2 °C 92 % 1016,3 hPa 0,0 mm 0,0 km/h (0 Bft) N 349 ° 0 min 0,000 mm 0,0 UV-I 11 W/m² 0,0 °C 1,2 °C 0,0 km/h (0 Bft)
01.05.2019 06:15 1,2 °C 92 % 1016,4 hPa 0,0 mm 0,0 km/h (0 Bft) N 349 ° 0 min 0,000 mm 0,0 UV-I 11 W/m² 0,0 °C 1,2 °C 0,0 km/h (0 Bft)
01.05.2019 06:16 1,2 °C 92 % 1016,4 hPa 0,0 mm 0,0 km/h (0 Bft) N 349 ° 0 min 0,000 mm 0,0 UV-I 12 W/m² 0,0 °C 1,2 °C 0,0 km/h (0 Bft)
01.05.2019 06:17 1,2 °C 92 % 1016,4 hPa 0,0 mm 0,0 km/h (0 Bft) N 349 ° 0 min 0,000 mm 0,0 UV-I 12 W/m² 0,0 °C 1,2 °C 0,0 km/h (0 Bft)
01.05.2019 06:18 1,3 °C 92 % 1016,4 hPa 0,0 mm 0,0 km/h (0 Bft) N 349 ° 0 min 0,000 mm 0,0 UV-I 12 W/m² 0,1 °C 1,3 °C 0,0 km/h (0 Bft)
01.05.2019 06:19 1,3 °C 92 % 1016,4 hPa 0,0 mm 0,0 km/h (0 Bft) N 349 ° 0 min 0,000 mm 0,0 UV-I 14 W/m² 0,1 °C 1,3 °C 0,0 km/h (0 Bft)
01.05.2019 06:20 1,3 °C 92 % 1016,4 hPa 0,0 mm 1,4 km/h (1 Bft) N-NW 336 ° 0 min 0,000 mm 0,0 UV-I 14 W/m² 0,1 °C 1,3 °C 4,8 km/h (1 Bft)
01.05.2019 06:21 1,3 °C 92 % 1016,4 hPa 0,0 mm 0,1 km/h (0 Bft) N-NW 336 ° 0 min 0,000 mm 0,0 UV-I 16 W/m² 0,1 °C 1,3 °C 1,6 km/h (1 Bft)
01.05.2019 06:22 1,3 °C 92 % 1016,4 hPa 0,0 mm 0,0 km/h (0 Bft) N-NW 336 ° 0 min 0,000 mm 0,0 UV-I 16 W/m² 0,1 °C 1,3 °C 0,0 km/h (0 Bft)
01.05.2019 06:23 1,4 °C 92 % 1016,4 hPa 0,0 mm 0,9 km/h (0 Bft) N 360 ° 0 min 0,000 mm 0,0 UV-I 16 W/m² 0,2 °C 1,4 °C 3,2 km/h (1 Bft)
01.05.2019 06:24 1,3 °C 92 % 1016,4 hPa 0,0 mm 0,0 km/h (0 Bft) N 360 ° 0 min 0,000 mm 0,0 UV-I 18 W/m² 0,1 °C 1,3 °C 0,0 km/h (0 Bft)
01.05.2019 06:25 1,3 °C 92 % 1016,4 hPa 0,0 mm 0,0 km/h (0 Bft) N 360 ° 0 min 0,000 mm 0,0 UV-I 18 W/m² 0,1 °C 1,3 °C 0,0 km/h (0 Bft)
01.05.2019 06:26 1,3 °C 92 % 1016,4 hPa 0,0 mm 0,0 km/h (0 Bft) N 360 ° 0 min 0,000 mm 0,0 UV-I 19 W/m² 0,1 °C 1,3 °C 0,0 km/h (0 Bft)
01.05.2019 06:27 1,3 °C 92 % 1016,4 hPa 0,0 mm 0,0 km/h (0 Bft) N 360 ° 0 min 0,000 mm 0,0 UV-I 19 W/m² 0,1 °C 1,3 °C 0,0 km/h (0 Bft)
01.05.2019 06:28 1,4 °C 92 % 1016,4 hPa 0,0 mm 0,0 km/h (0 Bft) N 360 ° 0 min 0,000 mm 0,0 UV-I 19 W/m² 0,2 °C 1,4 °C 0,0 km/h (0 Bft)
01.05.2019 06:29 1,4 °C 92 % 1016,4 hPa 0,0 mm 0,0 km/h (0 Bft) N 360 ° 0 min 0,000 mm 0,0 UV-I 21 W/m² 0,2 °C 1,4 °C 0,0 km/h (0 Bft)
01.05.2019 06:30 1,4 °C 93 % 1016,4 hPa 0,0 mm 0,0 km/h (0 Bft) N 360 ° 0 min 0,000 mm 0,0 UV-I 21 W/m² 0,4 °C 1,4 °C 0,0 km/h (0 Bft)
01.05.2019 06:31 1,4 °C 93 % 1016,4 hPa 0,0 mm 0,0 km/h (0 Bft) N 360 ° 0 min 0,000 mm 0,0 UV-I 21 W/m² 0,4 °C 1,4 °C 0,0 km/h (0 Bft)
01.05.2019 06:32 1,4 °C 92 % 1016,5 hPa 0,0 mm 0,0 km/h (0 Bft) N 360 ° 0 min 0,000 mm 0,0 UV-I 23 W/m² 0,2 °C 1,4 °C 0,0 km/h (0 Bft)
01.05.2019 06:33 1,5 °C 93 % 1016,4 hPa 0,0 mm 0,0 km/h (0 Bft) N 360 ° 0 min 0,000 mm 0,0 UV-I 26 W/m² 0,5 °C 1,5 °C 0,0 km/h (0 Bft)
01.05.2019 06:34 1,5 °C 93 % 1016,5 hPa 0,0 mm 0,0 km/h (0 Bft) N 360 ° 0 min 0,000 mm 0,0 UV-I 26 W/m² 0,5 °C 1,5 °C 0,0 km/h (0 Bft)
01.05.2019 06:35 1,6 °C 93 % 1016,4 hPa 0,0 mm 0,0 km/h (0 Bft) N 360 ° 0 min 0,000 mm 0,0 UV-I 26 W/m² 0,6 °C 1,6 °C 0,0 km/h (0 Bft)
01.05.2019 06:36 1,6 °C 93 % 1016,5 hPa 0,0 mm 0,0 km/h (0 Bft) N 360 ° 0 min 0,000 mm 0,0 UV-I 26 W/m² 0,6 °C 1,6 °C 0,0 km/h (0 Bft)
01.05.2019 06:37 1,6 °C 93 % 1016,5 hPa 0,0 mm 0,0 km/h (0 Bft) N 360 ° 0 min 0,000 mm 0,0 UV-I 26 W/m² 0,6 °C 1,6 °C 0,0 km/h (0 Bft)
01.05.2019 06:38 1,6 °C 93 % 1016,5 hPa 0,0 mm 0,1 km/h (0 Bft) N 360 ° 0 min 0,000 mm 0,0 UV-I 26 W/m² 0,6 °C 1,6 °C 1,6 km/h (1 Bft)
01.05.2019 06:39 1,6 °C 92 % 1016,5 hPa 0,0 mm 0,0 km/h (0 Bft) N 360 ° 0 min 0,000 mm 0,0 UV-I 28 W/m² 0,4 °C 1,6 °C 0,0 km/h (0 Bft)
01.05.2019 06:40 1,6 °C 93 % 1016,6 hPa 0,0 mm 0,0 km/h (0 Bft) N 360 ° 0 min 0,000 mm 0,0 UV-I 28 W/m² 0,6 °C 1,6 °C 0,0 km/h (0 Bft)
01.05.2019 06:41 1,7 °C 93 % 1016,6 hPa 0,0 mm 0,0 km/h (0 Bft) N 360 ° 0 min 0,000 mm 0,0 UV-I 28 W/m² 0,7 °C 1,7 °C 0,0 km/h (0 Bft)
01.05.2019 06:42 1,7 °C 93 % 1016,5 hPa 0,0 mm 0,0 km/h (0 Bft) N 360 ° 0 min 0,000 mm 0,0 UV-I 30 W/m² 0,7 °C 1,7 °C 0,0 km/h (0 Bft)
01.05.2019 06:43 1,7 °C 93 % 1016,5 hPa 0,0 mm 0,0 km/h (0 Bft) N 360 ° 0 min 0,000 mm 0,0 UV-I 32 W/m² 0,7 °C 1,7 °C 0,0 km/h (0 Bft)
01.05.2019 06:44 1,7 °C 92 % 1016,5 hPa 0,0 mm 0,0 km/h (0 Bft) N 360 ° 0 min 0,000 mm 0,0 UV-I 32 W/m² 0,5 °C 1,7 °C 0,0 km/h (0 Bft)
01.05.2019 06:45 1,7 °C 92 % 1016,5 hPa 0,0 mm 0,0 km/h (0 Bft) N 360 ° 0 min 0,000 mm 0,0 UV-I 32 W/m² 0,5 °C 1,7 °C 0,0 km/h (0 Bft)
01.05.2019 06:46 1,7 °C 92 % 1016,6 hPa 0,0 mm 0,0 km/h (0 Bft) N 360 ° 0 min 0,000 mm 0,0 UV-I 32 W/m² 0,5 °C 1,7 °C 0,0 km/h (0 Bft)
01.05.2019 06:47 1,7 °C 92 % 1016,6 hPa 0,0 mm 0,0 km/h (0 Bft) N 360 ° 0 min 0,000 mm 0,0 UV-I 33 W/m² 0,5 °C 1,7 °C 0,0 km/h (0 Bft)
01.05.2019 06:48 1,7 °C 92 % 1016,6 hPa 0,0 mm 0,0 km/h (0 Bft) N 360 ° 0 min 0,000 mm 0,0 UV-I 35 W/m² 0,5 °C 1,7 °C 0,0 km/h (0 Bft)
01.05.2019 06:49 1,7 °C 92 % 1016,6 hPa 0,0 mm 0,0 km/h (0 Bft) N 360 ° 0 min 0,000 mm 0,0 UV-I 39 W/m² 0,5 °C 1,7 °C 0,0 km/h (0 Bft)
01.05.2019 06:50 1,7 °C 92 % 1016,6 hPa 0,0 mm 0,0 km/h (0 Bft) N 360 ° 0 min 0,000 mm 0,0 UV-I 40 W/m² 0,5 °C 1,7 °C 0,0 km/h (0 Bft)
01.05.2019 06:51 1,8 °C 92 % 1016,5 hPa 0,0 mm 0,0 km/h (0 Bft) N 360 ° 0 min 0,000 mm 0,0 UV-I 39 W/m² 0,6 °C 1,8 °C 0,0 km/h (0 Bft)
01.05.2019 06:52 1,8 °C 92 % 1016,6 hPa 0,0 mm 0,0 km/h (0 Bft) N 360 ° 0 min 0,000 mm 0,0 UV-I 39 W/m² 0,6 °C 1,8 °C 0,0 km/h (0 Bft)
01.05.2019 06:53 1,9 °C 93 % 1016,6 hPa 0,0 mm 0,0 km/h (0 Bft) N 360 ° 0 min 0,000 mm 0,0 UV-I 40 W/m² 0,9 °C 1,9 °C 0,0 km/h (0 Bft)
01.05.2019 06:54 2,0 °C 93 % 1016,6 hPa 0,0 mm 0,1 km/h (0 Bft) N 360 ° 0 min 0,000 mm 0,0 UV-I 44 W/m² 1,0 °C 2,0 °C 1,6 km/h (1 Bft)
01.05.2019 06:55 2,1 °C 92 % 1016,6 hPa 0,0 mm 0,0 km/h (0 Bft) N 360 ° 0 min 0,000 mm 0,0 UV-I 46 W/m² 0,9 °C 2,1 °C 0,0 km/h (0 Bft)
01.05.2019 06:56 2,1 °C 92 % 1016,6 hPa 0,0 mm 0,0 km/h (0 Bft) N 360 ° 0 min 0,000 mm 0,0 UV-I 42 W/m² 0,9 °C 2,1 °C 0,0 km/h (0 Bft)
01.05.2019 06:57 2,2 °C 92 % 1016,6 hPa 0,0 mm 0,0 km/h (0 Bft) N 360 ° 0 min 0,000 mm 0,0 UV-I 42 W/m² 1,0 °C 2,2 °C 0,0 km/h (0 Bft)
01.05.2019 06:58 2,2 °C 92 % 1016,6 hPa 0,0 mm 0,0 km/h (0 Bft) N 360 ° 0 min 0,000 mm 0,0 UV-I 42 W/m² 1,0 °C 2,2 °C 0,0 km/h (0 Bft)
01.05.2019 06:59 2,2 °C 92 % 1016,7 hPa 0,0 mm 0,0 km/h (0 Bft) N 360 ° 0 min 0,000 mm 0,0 UV-I 42 W/m² 1,0 °C 2,2 °C 0,0 km/h (0 Bft)
01.05.2019 07:00 2,2 °C 92 % 1016,6 hPa 0,0 mm 0,0 km/h (0 Bft) N 360 ° 0 min 0,000 mm 0,0 UV-I 40 W/m² 1,0 °C 2,2 °C 0,0 km/h (0 Bft)
01.05.2019 07:01 2,3 °C 92 % 1016,7 hPa 0,0 mm 0,0 km/h (0 Bft) N 360 ° 0 min 0,000 mm 0,0 UV-I 42 W/m² 1,1 °C 2,3 °C 0,0 km/h (0 Bft)
01.05.2019 07:02 2,3 °C 92 % 1016,7 hPa 0,0 mm 0,0 km/h (0 Bft) N 360 ° 0 min 0,000 mm 0,0 UV-I 46 W/m² 1,1 °C 2,3 °C 0,0 km/h (0 Bft)
01.05.2019 07:03 2,3 °C 92 % 1016,6 hPa 0,0 mm 0,0 km/h (0 Bft) N 360 ° 0 min 0,000 mm 0,0 UV-I 46 W/m² 1,1 °C 2,3 °C 0,0 km/h (0 Bft)
01.05.2019 07:04 2,3 °C 92 % 1016,7 hPa 0,0 mm 0,0 km/h (0 Bft) N 360 ° 0 min 0,000 mm 0,0 UV-I 46 W/m² 1,1 °C 2,3 °C 0,0 km/h (0 Bft)
01.05.2019 07:05 2,3 °C 92 % 1016,6 hPa 0,0 mm 0,0 km/h (0 Bft) N 360 ° 0 min 0,000 mm 0,0 UV-I 44 W/m² 1,1 °C 2,3 °C 0,0 km/h (0 Bft)
01.05.2019 07:06 2,4 °C 92 % 1016,6 hPa 0,0 mm 0,0 km/h (0 Bft) N 360 ° 0 min 0,000 mm 0,0 UV-I 44 W/m² 1,2 °C 2,4 °C 0,0 km/h (0 Bft)
01.05.2019 07:07 2,3 °C 91 % 1016,7 hPa 0,0 mm 0,0 km/h (0 Bft) N 360 ° 0 min 0,000 mm 0,0 UV-I 44 W/m² 1,0 °C 2,3 °C 0,0 km/h (0 Bft)
01.05.2019 07:08 2,4 °C 91 % 1016,7 hPa 0,0 mm 0,0 km/h (0 Bft) N 360 ° 0 min 0,000 mm 0,0 UV-I 44 W/m² 1,1 °C 2,4 °C 0,0 km/h (0 Bft)
01.05.2019 07:09 2,4 °C 91 % 1016,7 hPa 0,0 mm 0,0 km/h (0 Bft) N 360 ° 0 min 0,000 mm 0,0 UV-I 44 W/m² 1,1 °C 2,4 °C 0,0 km/h (0 Bft)
01.05.2019 07:10 2,4 °C 91 % 1016,7 hPa 0,0 mm 0,0 km/h (0 Bft) N 360 ° 0 min 0,000 mm 0,0 UV-I 46 W/m² 1,1 °C 2,4 °C 0,0 km/h (0 Bft)
01.05.2019 07:11 2,4 °C 91 % 1016,7 hPa 0,0 mm 0,0 km/h (0 Bft) N 360 ° 0 min 0,000 mm 0,0 UV-I 46 W/m² 1,1 °C 2,4 °C 0,0 km/h (0 Bft)
01.05.2019 07:12 2,5 °C 91 % 1016,7 hPa 0,0 mm 0,0 km/h (0 Bft) W-SW 252 ° 0 min 0,000 mm 0,0 UV-I 46 W/m² 1,2 °C 2,5 °C 0,0 km/h (0 Bft)
01.05.2019 07:13 2,6 °C 91 % 1016,7 hPa 0,0 mm 0,0 km/h (0 Bft) W-SW 252 ° 0 min 0,000 mm 0,0 UV-I 49 W/m² 1,3 °C 2,6 °C 0,0 km/h (0 Bft)
01.05.2019 07:14 2,6 °C 91 % 1016,7 hPa 0,0 mm 0,0 km/h (0 Bft) W-SW 252 ° 0 min 0,000 mm 0,0 UV-I 53 W/m² 1,3 °C 2,6 °C 0,0 km/h (0 Bft)
01.05.2019 07:15 2,7 °C 91 % 1016,7 hPa 0,0 mm 0,0 km/h (0 Bft) W-SW 253 ° 0 min 0,000 mm 0,0 UV-I 53 W/m² 1,4 °C 2,7 °C 0,0 km/h (0 Bft)
01.05.2019 07:16 2,7 °C 91 % 1016,7 hPa 0,0 mm 0,0 km/h (0 Bft) W-SW 252 ° 0 min 0,000 mm 0,0 UV-I 49 W/m² 1,4 °C 2,7 °C 0,0 km/h (0 Bft)
01.05.2019 07:17 2,7 °C 91 % 1016,7 hPa 0,0 mm 0,0 km/h (0 Bft) W-SW 252 ° 0 min 0,000 mm 0,0 UV-I 49 W/m² 1,4 °C 2,7 °C 0,0 km/h (0 Bft)
01.05.2019 07:18 2,7 °C 91 % 1016,7 hPa 0,0 mm 0,0 km/h (0 Bft) W-SW 252 ° 0 min 0,000 mm 0,0 UV-I 49 W/m² 1,4 °C 2,7 °C 0,0 km/h (0 Bft)
01.05.2019 07:19 2,7 °C 91 % 1016,7 hPa 0,0 mm 0,0 km/h (0 Bft) W-SW 252 ° 0 min 0,000 mm 0,0 UV-I 51 W/m² 1,4 °C 2,7 °C 0,0 km/h (0 Bft)
01.05.2019 07:20 2,7 °C 91 % 1016,7 hPa 0,0 mm 0,0 km/h (0 Bft) W-SW 252 ° 0 min 0,000 mm 0,0 UV-I 51 W/m² 1,4 °C 2,7 °C 0,0 km/h (0 Bft)
01.05.2019 07:21 2,7 °C 91 % 1016,8 hPa 0,0 mm 0,0 km/h (0 Bft) W-SW 252 ° 0 min 0,000 mm 0,5 UV-I 56 W/m² 1,4 °C 2,7 °C 0,0 km/h (0 Bft)
01.05.2019 07:22 2,8 °C 91 % 1016,8 hPa 0,0 mm 0,0 km/h (0 Bft) W-SW 253 ° 0 min 0,000 mm 0,5 UV-I 65 W/m² 1,5 °C 2,8 °C 0,0 km/h (0 Bft)
01.05.2019 07:23 2,9 °C 91 % 1016,7 hPa 0,0 mm 0,0 km/h (0 Bft) W-SW 253 ° 0 min 0,000 mm 0,5 UV-I 74 W/m² 1,6 °C 2,9 °C 0,0 km/h (0 Bft)
01.05.2019 07:24 2,9 °C 91 % 1016,8 hPa 0,0 mm 0,0 km/h (0 Bft) W-SW 253 ° 0 min 0,000 mm 0,5 UV-I 70 W/m² 1,6 °C 2,9 °C 0,0 km/h (0 Bft)
01.05.2019 07:25 3,1 °C 91 % 1016,8 hPa 0,0 mm 0,0 km/h (0 Bft) N-NW 329 ° 0 min 0,000 mm 0,5 UV-I 83 W/m² 1,8 °C 3,1 °C 0,0 km/h (0 Bft)
01.05.2019 07:26 3,1 °C 90 % 1016,7 hPa 0,0 mm 0,0 km/h (0 Bft) N-NO 14 ° 0 min 0,000 mm 0,5 UV-I 91 W/m² 1,6 °C 3,1 °C 0,0 km/h (0 Bft)
01.05.2019 07:27 3,1 °C 90 % 1016,8 hPa 0,0 mm 0,0 km/h (0 Bft) N-NO 14 ° 0 min 0,000 mm 0,5 UV-I 84 W/m² 1,6 °C 3,1 °C 0,0 km/h (0 Bft)
01.05.2019 07:28 3,2 °C 90 % 1016,8 hPa 0,0 mm 0,0 km/h (0 Bft) N-NO 14 ° 0 min 0,000 mm 0,5 UV-I 91 W/m² 1,7 °C 3,2 °C 0,0 km/h (0 Bft)
01.05.2019 07:29 3,2 °C 90 % 1016,7 hPa 0,0 mm 0,0 km/h (0 Bft) N-NO 14 ° 0 min 0,000 mm 0,6 UV-I 118 W/m² 1,7 °C 3,2 °C 0,0 km/h (0 Bft)
01.05.2019 07:30 3,2 °C 90 % 1016,7 hPa 0,0 mm 0,0 km/h (0 Bft) N-NO 14 ° 0 min 0,000 mm 0,6 UV-I 158 W/m² 1,7 °C 3,2 °C 0,0 km/h (0 Bft)
01.05.2019 07:31 3,3 °C 90 % 1016,7 hPa 0,0 mm 0,0 km/h (0 Bft) N-NO 14 ° 0 min 0,000 mm 0,6 UV-I 160 W/m² 1,8 °C 3,3 °C 0,0 km/h (0 Bft)
01.05.2019 07:32 3,3 °C 90 % 1016,7 hPa 0,0 mm 0,0 km/h (0 Bft) N-NO 14 ° 0 min 0,000 mm 0,6 UV-I 163 W/m² 1,8 °C 3,3 °C 0,0 km/h (0 Bft)
01.05.2019 07:33 3,3 °C 90 % 1016,7 hPa 0,0 mm 0,0 km/h (0 Bft) N-NO 14 ° 0 min 0,000 mm 0,6 UV-I 165 W/m² 1,8 °C 3,3 °C 0,0 km/h (0 Bft)
01.05.2019 07:34 3,4 °C 89 % 1016,7 hPa 0,0 mm 0,0 km/h (0 Bft) N-NO 14 ° 0 min 0,000 mm 0,6 UV-I 167 W/m² 1,8 °C 3,4 °C 0,0 km/h (0 Bft)
01.05.2019 07:35 3,5 °C 89 % 1016,8 hPa 0,0 mm 0,0 km/h (0 Bft) N-NO 14 ° 0 min 0,000 mm 0,6 UV-I 171 W/m² 1,9 °C 3,5 °C 0,0 km/h (0 Bft)
01.05.2019 07:36 3,6 °C 89 % 1016,8 hPa 0,0 mm 0,0 km/h (0 Bft) N-NO 14 ° 0 min 0,000 mm 0,6 UV-I 174 W/m² 2,0 °C 3,6 °C 0,0 km/h (0 Bft)
01.05.2019 07:37 3,6 °C 89 % 1016,8 hPa 0,0 mm 0,0 km/h (0 Bft) N-NO 14 ° 0 min 0,000 mm 0,7 UV-I 178 W/m² 2,0 °C 3,6 °C 0,0 km/h (0 Bft)
01.05.2019 07:38 3,7 °C 89 % 1016,8 hPa 0,0 mm 0,0 km/h (0 Bft) N-NO 14 ° 0 min 0,000 mm 0,7 UV-I 181 W/m² 2,1 °C 3,7 °C 0,0 km/h (0 Bft)
01.05.2019 07:39 3,7 °C 89 % 1016,7 hPa 0,0 mm 0,0 km/h (0 Bft) N-NO 14 ° 0 min 0,000 mm 0,7 UV-I 185 W/m² 2,1 °C 3,7 °C 0,0 km/h (0 Bft)
01.05.2019 07:40 3,8 °C 88 % 1016,8 hPa 0,0 mm 0,0 km/h (0 Bft) N-NO 14 ° 0 min 0,000 mm 0,7 UV-I 186 W/m² 2,0 °C 3,8 °C 0,0 km/h (0 Bft)
01.05.2019 07:41 3,8 °C 88 % 1016,8 hPa 0,0 mm 0,0 km/h (0 Bft) N-NO 14 ° 0 min 0,000 mm 0,7 UV-I 190 W/m² 2,0 °C 3,8 °C 0,0 km/h (0 Bft)
01.05.2019 07:42 3,9 °C 88 % 1016,8 hPa 0,0 mm 0,0 km/h (0 Bft) N-NO 14 ° 0 min 0,000 mm 0,7 UV-I 193 W/m² 2,1 °C 3,9 °C 0,0 km/h (0 Bft)
01.05.2019 07:43 3,8 °C 88 % 1016,8 hPa 0,0 mm 0,0 km/h (0 Bft) N-NO 14 ° 0 min 0,000 mm 0,7 UV-I 195 W/m² 2,0 °C 3,8 °C 0,0 km/h (0 Bft)
01.05.2019 07:44 3,9 °C 88 % 1016,8 hPa 0,0 mm 0,0 km/h (0 Bft) N-NO 14 ° 0 min 0,000 mm 0,8 UV-I 197 W/m² 2,1 °C 3,9 °C 0,0 km/h (0 Bft)
01.05.2019 07:45 3,9 °C 88 % 1016,8 hPa 0,0 mm 0,0 km/h (0 Bft) N-NO 14 ° 0 min 0,000 mm 0,8 UV-I 199 W/m² 2,1 °C 3,9 °C 0,0 km/h (0 Bft)
01.05.2019 07:46 4,0 °C 88 % 1016,8 hPa 0,0 mm 0,0 km/h (0 Bft) N-NO 14 ° 0 min 0,000 mm 0,8 UV-I 200 W/m² 2,2 °C 4,0 °C 0,0 km/h (0 Bft)
01.05.2019 07:47 4,0 °C 88 % 1016,8 hPa 0,0 mm 0,0 km/h (0 Bft) N-NO 14 ° 0 min 0,000 mm 0,8 UV-I 204 W/m² 2,2 °C 4,0 °C 0,0 km/h (0 Bft)
01.05.2019 07:48 4,1 °C 88 % 1016,8 hPa 0,0 mm 0,0 km/h (0 Bft) N-NO 14 ° 0 min 0,000 mm 0,8 UV-I 209 W/m² 2,3 °C 4,1 °C 0,0 km/h (0 Bft)
01.05.2019 07:49 4,2 °C 88 % 1016,8 hPa 0,0 mm 0,0 km/h (0 Bft) N-NO 14 ° 0 min 0,000 mm 0,8 UV-I 213 W/m² 2,4 °C 4,2 °C 0,0 km/h (0 Bft)
01.05.2019 07:50 4,2 °C 88 % 1016,8 hPa 0,0 mm 0,0 km/h (0 Bft) N-NO 14 ° 0 min 0,000 mm 0,8 UV-I 214 W/m² 2,4 °C 4,2 °C 0,0 km/h (0 Bft)
01.05.2019 07:51 4,2 °C 88 % 1016,8 hPa 0,0 mm 0,0 km/h (0 Bft) N-NO 14 ° 0 min 0,000 mm 0,8 UV-I 216 W/m² 2,4 °C 4,2 °C 0,0 km/h (0 Bft)
01.05.2019 07:52 4,3 °C 88 % 1016,9 hPa 0,0 mm 0,0 km/h (0 Bft) N-NO 14 ° 0 min 0,000 mm 0,9 UV-I 218 W/m² 2,5 °C 4,3 °C 0,0 km/h (0 Bft)
01.05.2019 07:53 4,4 °C 88 % 1016,8 hPa 0,0 mm 0,0 km/h (0 Bft) N-NO 14 ° 0 min 0,000 mm 0,9 UV-I 220 W/m² 2,6 °C 4,4 °C 0,0 km/h (0 Bft)
01.05.2019 07:54 4,6 °C 88 % 1016,8 hPa 0,0 mm 0,0 km/h (0 Bft) N-NO 14 ° 0 min 0,000 mm 0,9 UV-I 225 W/m² 2,8 °C 4,6 °C 0,0 km/h (0 Bft)
01.05.2019 07:55 4,6 °C 87 % 1016,8 hPa 0,0 mm 0,0 km/h (0 Bft) N-NO 14 ° 0 min 0,000 mm 0,9 UV-I 227 W/m² 2,6 °C 4,6 °C 0,0 km/h (0 Bft)
01.05.2019 07:56 4,6 °C 87 % 1016,8 hPa 0,0 mm 0,0 km/h (0 Bft) N-NO 14 ° 0 min 0,000 mm 0,9 UV-I 230 W/m² 2,6 °C 4,6 °C 0,0 km/h (0 Bft)
01.05.2019 07:57 4,7 °C 87 % 1016,8 hPa 0,0 mm 0,0 km/h (0 Bft) N-NO 14 ° 0 min 0,000 mm 0,9 UV-I 230 W/m² 2,7 °C 4,7 °C 0,0 km/h (0 Bft)
01.05.2019 07:58 4,7 °C 88 % 1016,8 hPa 0,0 mm 0,0 km/h (0 Bft) N-NO 14 ° 0 min 0,000 mm 0,9 UV-I 236 W/m² 2,9 °C 4,7 °C 0,0 km/h (0 Bft)
01.05.2019 07:59 4,8 °C 87 % 1016,8 hPa 0,0 mm 0,0 km/h (0 Bft) N-NO 14 ° 0 min 0,000 mm 0,9 UV-I 237 W/m² 2,8 °C 4,8 °C 0,0 km/h (0 Bft)
01.05.2019 08:00 4,8 °C 86 % 1016,8 hPa 0,0 mm 0,0 km/h (0 Bft) N-NO 14 ° 0 min 0,000 mm 1,0 UV-I 243 W/m² 2,7 °C 4,8 °C 0,0 km/h (0 Bft)
01.05.2019 08:01 4,8 °C 87 % 1016,8 hPa 0,0 mm 0,0 km/h (0 Bft) N-NO 14 ° 0 min 0,051 mm 1,0 UV-I 246 W/m² 2,8 °C 4,8 °C 0,0 km/h (0 Bft)
01.05.2019 08:02 4,8 °C 86 % 1016,8 hPa 0,0 mm 0,0 km/h (0 Bft) N-NO 14 ° 0 min 0,000 mm 1,0 UV-I 250 W/m² 2,7 °C 4,8 °C 0,0 km/h (0 Bft)
01.05.2019 08:03 4,9 °C 87 % 1016,8 hPa 0,0 mm 0,0 km/h (0 Bft) N-NO 14 ° 0 min 0,000 mm 1,0 UV-I 251 W/m² 2,9 °C 4,9 °C 0,0 km/h (0 Bft)
01.05.2019 08:04 4,9 °C 87 % 1016,8 hPa 0,0 mm 0,0 km/h (0 Bft) N-NO 14 ° 0 min 0,000 mm 1,0 UV-I 255 W/m² 2,9 °C 4,9 °C 0,0 km/h (0 Bft)
01.05.2019 08:05 5,1 °C 86 % 1016,8 hPa 0,0 mm 0,0 km/h (0 Bft) N-NO 14 ° 0 min 0,000 mm 1,1 UV-I 257 W/m² 3,0 °C 5,1 °C 0,0 km/h (0 Bft)
01.05.2019 08:06 5,1 °C 87 % 1016,8 hPa 0,0 mm 0,0 km/h (0 Bft) N-NO 14 ° 0 min 0,000 mm 1,1 UV-I 264 W/m² 3,1 °C 5,1 °C 0,0 km/h (0 Bft)
01.05.2019 08:07 5,2 °C 87 % 1016,8 hPa 0,0 mm 0,0 km/h (0 Bft) N-NO 14 ° 0 min 0,000 mm 1,1 UV-I 267 W/m² 3,2 °C 5,2 °C 0,0 km/h (0 Bft)
01.05.2019 08:08 5,2 °C 86 % 1016,8 hPa 0,0 mm 0,0 km/h (0 Bft) N-NO 14 ° 0 min 0,000 mm 1,1 UV-I 271 W/m² 3,1 °C 5,2 °C 0,0 km/h (0 Bft)
01.05.2019 08:09 5,2 °C 87 % 1016,8 hPa 0,0 mm 0,0 km/h (0 Bft) N-NO 14 ° 0 min 0,000 mm 1,1 UV-I 274 W/m² 3,2 °C 5,2 °C 0,0 km/h (0 Bft)
01.05.2019 08:10 5,3 °C 87 % 1016,7 hPa 0,0 mm 0,0 km/h (0 Bft) SO 125 ° 0 min 0,000 mm 1,1 UV-I 279 W/m² 3,3 °C 5,3 °C 0,0 km/h (0 Bft)
01.05.2019 08:11 5,3 °C 86 % 1016,8 hPa 0,0 mm 0,0 km/h (0 Bft) SO 124 ° 0 min 0,000 mm 1,2 UV-I 287 W/m² 3,2 °C 5,3 °C 0,0 km/h (0 Bft)
01.05.2019 08:12 5,4 °C 86 % 1016,7 hPa 0,0 mm 0,0 km/h (0 Bft) SO 124 ° 0 min 0,000 mm 1,2 UV-I 288 W/m² 3,3 °C 5,4 °C 0,0 km/h (0 Bft)
01.05.2019 08:13 5,5 °C 86 % 1016,7 hPa 0,0 mm 0,0 km/h (0 Bft) SO 124 ° 0 min 0,000 mm 1,2 UV-I 290 W/m² 3,3 °C 5,5 °C 0,0 km/h (0 Bft)
01.05.2019 08:14 5,6 °C 86 % 1016,8 hPa 0,0 mm 0,0 km/h (0 Bft) SO 124 ° 0 min 0,000 mm 1,2 UV-I 292 W/m² 3,4 °C 5,6 °C 0,0 km/h (0 Bft)
01.05.2019 08:15 5,6 °C 85 % 1016,8 hPa 0,0 mm 0,0 km/h (0 Bft) SO 124 ° 0 min 0,000 mm 1,2 UV-I 292 W/m² 3,3 °C 5,6 °C 0,0 km/h (0 Bft)
01.05.2019 08:16 5,6 °C 85 % 1016,8 hPa 0,0 mm 0,0 km/h (0 Bft) SO 124 ° 0 min 0,000 mm 1,2 UV-I 297 W/m² 3,3 °C 5,6 °C 0,0 km/h (0 Bft)
01.05.2019 08:17 5,7 °C 84 % 1016,7 hPa 0,0 mm 0,0 km/h (0 Bft) SO 124 ° 0 min 0,000 mm 1,3 UV-I 304 W/m² 3,2 °C 5,7 °C 0,0 km/h (0 Bft)
01.05.2019 08:18 5,7 °C 84 % 1016,7 hPa 0,0 mm 0,0 km/h (0 Bft) SO 124 ° 0 min 0,000 mm 1,3 UV-I 308 W/m² 3,2 °C 5,7 °C 0,0 km/h (0 Bft)
01.05.2019 08:19 5,8 °C 83 % 1016,8 hPa 0,0 mm 0,0 km/h (0 Bft) SO 124 ° 0 min 0,000 mm 1,3 UV-I 311 W/m² 3,1 °C 5,8 °C 0,0 km/h (0 Bft)
01.05.2019 08:20 5,8 °C 83 % 1016,8 hPa 0,0 mm 0,0 km/h (0 Bft) SO 124 ° 0 min 0,000 mm 1,3 UV-I 315 W/m² 3,1 °C 5,8 °C 0,0 km/h (0 Bft)
01.05.2019 08:21 5,9 °C 83 % 1016,7 hPa 0,0 mm 0,0 km/h (0 Bft) SO 124 ° 0 min 0,000 mm 1,3 UV-I 316 W/m² 3,2 °C 5,9 °C 0,0 km/h (0 Bft)
01.05.2019 08:22 6,1 °C 84 % 1016,8 hPa 0,0 mm 0,0 km/h (0 Bft) SO 124 ° 0 min 0,000 mm 1,3 UV-I 320 W/m² 3,6 °C 6,1 °C 0,0 km/h (0 Bft)
01.05.2019 08:23 6,1 °C 83 % 1016,7 hPa 0,0 mm 0,0 km/h (0 Bft) SO 124 ° 0 min 0,000 mm 1,3 UV-I 323 W/m² 3,4 °C 6,1 °C 0,0 km/h (0 Bft)
01.05.2019 08:24 6,1 °C 83 % 1016,8 hPa 0,0 mm 0,0 km/h (0 Bft) SO 124 ° 0 min 0,000 mm 1,4 UV-I 325 W/m² 3,4 °C 6,1 °C 0,0 km/h (0 Bft)
01.05.2019 08:25 6,1 °C 83 % 1016,8 hPa 0,0 mm 0,0 km/h (0 Bft) SO 124 ° 0 min 0,000 mm 1,4 UV-I 327 W/m² 3,4 °C 6,1 °C 0,0 km/h (0 Bft)
01.05.2019 08:26 6,1 °C 82 % 1016,8 hPa 0,0 mm 0,0 km/h (0 Bft) SO 124 ° 0 min 0,000 mm 1,4 UV-I 329 W/m² 3,3 °C 6,1 °C 0,0 km/h (0 Bft)
01.05.2019 08:27 6,2 °C 83 % 1016,8 hPa 0,0 mm 0,0 km/h (0 Bft) SO 124 ° 0 min 0,000 mm 1,4 UV-I 330 W/m² 3,5 °C 6,2 °C 0,0 km/h (0 Bft)
01.05.2019 08:28 6,3 °C 83 % 1016,8 hPa 0,0 mm 0,0 km/h (0 Bft) SO 124 ° 0 min 0,000 mm 1,4 UV-I 334 W/m² 3,6 °C 6,3 °C 0,0 km/h (0 Bft)
01.05.2019 08:29 6,3 °C 82 % 1016,8 hPa 0,0 mm 0,0 km/h (0 Bft) SO 124 ° 0 min 0,000 mm 1,4 UV-I 339 W/m² 3,5 °C 6,3 °C 0,0 km/h (0 Bft)
01.05.2019 08:30 6,3 °C 82 % 1016,8 hPa 0,0 mm 0,0 km/h (0 Bft) SO 124 ° 0 min 0,000 mm 1,5 UV-I 343 W/m² 3,5 °C 6,3 °C 0,0 km/h (0 Bft)
01.05.2019 08:31 6,4 °C 82 % 1016,8 hPa 0,0 mm 0,0 km/h (0 Bft) SO 124 ° 0 min 0,000 mm 1,5 UV-I 345 W/m² 3,6 °C 6,4 °C 0,0 km/h (0 Bft)
01.05.2019 08:32 6,4 °C 82 % 1016,8 hPa 0,0 mm 0,0 km/h (0 Bft) SO 124 ° 0 min 0,000 mm 1,5 UV-I 348 W/m² 3,6 °C 6,4 °C 0,0 km/h (0 Bft)
01.05.2019 08:33 6,5 °C 83 % 1016,8 hPa 0,0 mm 0,0 km/h (0 Bft) SO 124 ° 0 min 0,000 mm 1,5 UV-I 352 W/m² 3,8 °C 6,5 °C 0,0 km/h (0 Bft)
01.05.2019 08:34 6,6 °C 83 % 1016,8 hPa 0,0 mm 0,0 km/h (0 Bft) SO 124 ° 0 min 0,000 mm 1,5 UV-I 353 W/m² 3,9 °C 6,6 °C 0,0 km/h (0 Bft)
01.05.2019 08:35 6,7 °C 83 % 1016,8 hPa 0,0 mm 0,0 km/h (0 Bft) SO 124 ° 0 min 0,000 mm 1,6 UV-I 359 W/m² 4,0 °C 6,7 °C 0,0 km/h (0 Bft)
01.05.2019 08:36 6,7 °C 81 % 1016,8 hPa 0,0 mm 0,0 km/h (0 Bft) SO 124 ° 0 min 0,000 mm 1,6 UV-I 360 W/m² 3,7 °C 6,7 °C 0,0 km/h (0 Bft)
01.05.2019 08:37 6,7 °C 81 % 1016,8 hPa 0,0 mm 0,0 km/h (0 Bft) SO 124 ° 0 min 0,000 mm 1,6 UV-I 364 W/m² 3,7 °C 6,7 °C 0,0 km/h (0 Bft)
01.05.2019 08:38 6,8 °C 82 % 1016,8 hPa 0,0 mm 0,0 km/h (0 Bft) SO 124 ° 0 min 0,000 mm 1,6 UV-I 367 W/m² 3,9 °C 6,8 °C 0,0 km/h (0 Bft)
01.05.2019 08:39 6,8 °C 81 % 1016,7 hPa 0,0 mm 0,0 km/h (0 Bft) SO 124 ° 0 min 0,000 mm 1,6 UV-I 369 W/m² 3,8 °C 6,8 °C 0,0 km/h (0 Bft)
01.05.2019 08:40 6,9 °C 83 % 1016,8 hPa 0,0 mm 0,0 km/h (0 Bft) SO 124 ° 0 min 0,000 mm 1,6 UV-I 371 W/m² 4,2 °C 6,9 °C 0,0 km/h (0 Bft)
01.05.2019 08:41 7,0 °C 82 % 1016,8 hPa 0,0 mm 0,0 km/h (0 Bft) SO 126 ° 0 min 0,000 mm 1,7 UV-I 378 W/m² 4,1 °C 7,0 °C 0,0 km/h (0 Bft)
01.05.2019 08:42 7,1 °C 81 % 1016,8 hPa 0,0 mm 0,0 km/h (0 Bft) SO 128 ° 0 min 0,000 mm 1,7 UV-I 381 W/m² 4,1 °C 7,1 °C 0,0 km/h (0 Bft)
01.05.2019 08:43 7,1 °C 82 % 1016,8 hPa 0,0 mm 0,0 km/h (0 Bft) SO 126 ° 0 min 0,000 mm 1,7 UV-I 385 W/m² 4,2 °C 7,1 °C 0,0 km/h (0 Bft)
01.05.2019 08:44 7,2 °C 80 % 1016,8 hPa 0,0 mm 0,0 km/h (0 Bft) SO 126 ° 0 min 0,000 mm 1,7 UV-I 387 W/m² 4,0 °C 7,2 °C 0,0 km/h (0 Bft)
01.05.2019 08:45 7,3 °C 82 % 1016,7 hPa 0,0 mm 0,0 km/h (0 Bft) SO 126 ° 0 min 0,000 mm 1,8 UV-I 392 W/m² 4,4 °C 7,3 °C 0,0 km/h (0 Bft)
01.05.2019 08:46 7,3 °C 81 % 1016,7 hPa 0,0 mm 0,0 km/h (0 Bft) SO 126 ° 0 min 0,000 mm 1,8 UV-I 394 W/m² 4,3 °C 7,3 °C 0,0 km/h (0 Bft)
01.05.2019 08:47 7,4 °C 82 % 1016,7 hPa 0,0 mm 0,0 km/h (0 Bft) SO 126 ° 0 min 0,000 mm 1,8 UV-I 399 W/m² 4,5 °C 7,4 °C 0,0 km/h (0 Bft)
01.05.2019 08:48 7,4 °C 81 % 1016,7 hPa 0,0 mm 0,0 km/h (0 Bft) SO 126 ° 0 min 0,000 mm 1,8 UV-I 403 W/m² 4,4 °C 7,4 °C 0,0 km/h (0 Bft)
01.05.2019 08:49 7,6 °C 81 % 1016,7 hPa 0,0 mm 0,0 km/h (0 Bft) SO 126 ° 0 min 0,000 mm 1,9 UV-I 404 W/m² 4,6 °C 7,6 °C 0,0 km/h (0 Bft)
01.05.2019 08:50 7,6 °C 80 % 1016,7 hPa 0,0 mm 0,0 km/h (0 Bft) SO 126 ° 0 min 0,000 mm 1,9 UV-I 408 W/m² 4,4 °C 7,6 °C 0,0 km/h (0 Bft)
01.05.2019 08:51 7,6 °C 80 % 1016,8 hPa 0,0 mm 0,0 km/h (0 Bft) SO 126 ° 0 min 0,000 mm 1,9 UV-I 410 W/m² 4,4 °C 7,6 °C 0,0 km/h (0 Bft)
01.05.2019 08:52 7,7 °C 80 % 1016,8 hPa 0,0 mm 0,0 km/h (0 Bft) SO 126 ° 0 min 0,000 mm 1,9 UV-I 415 W/m² 4,5 °C 7,7 °C 0,0 km/h (0 Bft)
01.05.2019 08:53 7,7 °C 81 % 1016,8 hPa 0,0 mm 0,0 km/h (0 Bft) SO 126 ° 0 min 0,000 mm 1,9 UV-I 418 W/m² 4,7 °C 7,7 °C 0,0 km/h (0 Bft)
01.05.2019 08:54 7,8 °C 80 % 1016,8 hPa 0,0 mm 0,0 km/h (0 Bft) SO 126 ° 0 min 0,000 mm 2,0 UV-I 422 W/m² 4,6 °C 7,8 °C 0,0 km/h (0 Bft)
01.05.2019 08:55 7,9 °C 79 % 1016,8 hPa 0,0 mm 0,0 km/h (0 Bft) SO 126 ° 0 min 0,000 mm 2,0 UV-I 424 W/m² 4,5 °C 7,9 °C 0,0 km/h (0 Bft)
01.05.2019 08:56 7,9 °C 77 % 1016,8 hPa 0,0 mm 0,0 km/h (0 Bft) SO 126 ° 0 min 0,000 mm 2,0 UV-I 427 W/m² 4,1 °C 7,9 °C 0,0 km/h (0 Bft)
01.05.2019 08:57 8,1 °C 76 % 1016,8 hPa 0,0 mm 0,0 km/h (0 Bft) SO 126 ° 0 min 0,000 mm 2,1 UV-I 429 W/m² 4,1 °C 8,1 °C 0,0 km/h (0 Bft)
01.05.2019 08:58 8,1 °C 75 % 1016,8 hPa 0,0 mm 0,0 km/h (0 Bft) SO 126 ° 0 min 0,000 mm 2,0 UV-I 432 W/m² 3,9 °C 8,1 °C 0,0 km/h (0 Bft)
01.05.2019 08:59 8,3 °C 78 % 1016,8 hPa 0,0 mm 1,0 km/h (0 Bft) SO 127 ° 0 min 0,000 mm 2,1 UV-I 436 W/m² 4,7 °C 8,3 °C 3,2 km/h (1 Bft)
01.05.2019 09:00 8,4 °C 76 % 1016,8 hPa 0,0 mm 1,1 km/h (1 Bft) SO 127 ° 0 min 0,152 mm 2,1 UV-I 438 W/m² 4,4 °C 8,4 °C 3,2 km/h (1 Bft)
01.05.2019 09:01 8,6 °C 75 % 1016,8 hPa 0,0 mm 0,0 km/h (0 Bft) SO 127 ° 0 min 0,000 mm 2,1 UV-I 441 W/m² 4,4 °C 8,6 °C 0,0 km/h (0 Bft)
01.05.2019 09:02 8,6 °C 75 % 1016,7 hPa 0,0 mm 0,0 km/h (0 Bft) SO 127 ° 0 min 0,000 mm 2,1 UV-I 441 W/m² 4,4 °C 8,6 °C 0,0 km/h (0 Bft)
01.05.2019 09:03 8,7 °C 75 % 1016,8 hPa 0,0 mm 0,0 km/h (0 Bft) SO 127 ° 0 min 0,000 mm 2,2 UV-I 445 W/m² 4,5 °C 8,7 °C 0,0 km/h (0 Bft)
01.05.2019 09:04 8,8 °C 75 % 1016,7 hPa 0,0 mm 0,0 km/h (0 Bft) SO 127 ° 0 min 0,000 mm 2,2 UV-I 450 W/m² 4,6 °C 8,8 °C 0,0 km/h (0 Bft)
01.05.2019 09:05 8,8 °C 77 % 1016,7 hPa 0,0 mm 0,0 km/h (0 Bft) SO 126 ° 0 min 0,000 mm 2,2 UV-I 452 W/m² 5,0 °C 8,8 °C 0,0 km/h (0 Bft)
01.05.2019 09:06 8,9 °C 78 % 1016,7 hPa 0,0 mm 0,0 km/h (0 Bft) SO 126 ° 0 min 0,000 mm 2,3 UV-I 454 W/m² 5,3 °C 8,9 °C 0,0 km/h (0 Bft)
01.05.2019 09:07 9,1 °C 75 % 1016,7 hPa 0,0 mm 0,0 km/h (0 Bft) O-SO 123 ° 0 min 0,000 mm 2,3 UV-I 455 W/m² 4,9 °C 9,1 °C 0,0 km/h (0 Bft)
01.05.2019 09:08 9,1 °C 75 % 1016,7 hPa 0,0 mm 0,1 km/h (0 Bft) O-SO 123 ° 0 min 0,000 mm 2,3 UV-I 459 W/m² 4,9 °C 9,1 °C 1,6 km/h (1 Bft)
01.05.2019 09:09 9,1 °C 77 % 1016,7 hPa 0,0 mm 0,0 km/h (0 Bft) O-SO 123 ° 0 min 0,000 mm 2,3 UV-I 461 W/m² 5,3 °C 9,1 °C 0,0 km/h (0 Bft)
01.05.2019 09:10 9,1 °C 76 % 1016,8 hPa 0,0 mm 0,2 km/h (0 Bft) O-SO 116 ° 0 min 0,000 mm 2,3 UV-I 468 W/m² 5,1 °C 9,1 °C 1,6 km/h (1 Bft)
01.05.2019 09:11 9,2 °C 75 % 1016,7 hPa 0,0 mm 0,0 km/h (0 Bft) O-SO 116 ° 0 min 0,000 mm 2,4 UV-I 471 W/m² 5,0 °C 9,2 °C 0,0 km/h (0 Bft)
01.05.2019 09:12 9,3 °C 74 % 1016,7 hPa 0,0 mm 0,0 km/h (0 Bft) O-SO 113 ° 0 min 0,000 mm 2,4 UV-I 473 W/m² 4,9 °C 9,3 °C 0,0 km/h (0 Bft)
01.05.2019 09:13 9,3 °C 75 % 1016,7 hPa 0,0 mm 1,4 km/h (1 Bft) O-SO 109 ° 0 min 0,000 mm 2,4 UV-I 475 W/m² 5,1 °C 9,3 °C 3,2 km/h (1 Bft)
01.05.2019 09:14 9,4 °C 72 % 1016,7 hPa 0,0 mm 1,9 km/h (1 Bft) NO 35 ° 0 min 0,000 mm 2,4 UV-I 476 W/m² 4,6 °C 9,4 °C 6,4 km/h (2 Bft)
01.05.2019 09:15 9,3 °C 71 % 1016,7 hPa 0,0 mm 2,3 km/h (1 Bft) NO 36 ° 0 min 0,000 mm 2,5 UV-I 478 W/m² 4,3 °C 9,3 °C 6,4 km/h (2 Bft)
01.05.2019 09:16 9,2 °C 70 % 1016,7 hPa 0,0 mm 0,1 km/h (0 Bft) NO 36 ° 0 min 0,000 mm 2,5 UV-I 485 W/m² 4,0 °C 9,2 °C 1,6 km/h (1 Bft)
01.05.2019 09:17 9,2 °C 71 % 1016,7 hPa 0,0 mm 0,0 km/h (0 Bft) NO 37 ° 0 min 0,000 mm 2,5 UV-I 489 W/m² 4,2 °C 9,2 °C 0,0 km/h (0 Bft)
01.05.2019 09:18 9,1 °C 70 % 1016,7 hPa 0,0 mm 1,1 km/h (1 Bft) NO 38 ° 0 min 0,000 mm 2,5 UV-I 492 W/m² 3,9 °C 9,1 °C 3,2 km/h (1 Bft)
01.05.2019 09:19 9,0 °C 71 % 1016,7 hPa 0,0 mm 1,1 km/h (1 Bft) O 90 ° 0 min 0,000 mm 2,6 UV-I 496 W/m² 4,0 °C 9,0 °C 3,2 km/h (1 Bft)
01.05.2019 09:20 8,9 °C 73 % 1016,6 hPa 0,0 mm 0,0 km/h (0 Bft) O 90 ° 0 min 0,000 mm 2,6 UV-I 499 W/m² 4,3 °C 8,9 °C 0,0 km/h (0 Bft)
01.05.2019 09:21 9,0 °C 73 % 1016,6 hPa 0,0 mm 0,3 km/h (0 Bft) O 90 ° 0 min 0,000 mm 2,6 UV-I 503 W/m² 4,4 °C 9,0 °C 1,6 km/h (1 Bft)
01.05.2019 09:22 9,0 °C 74 % 1016,6 hPa 0,0 mm 1,5 km/h (1 Bft) O 90 ° 0 min 0,000 mm 2,6 UV-I 510 W/m² 4,6 °C 9,0 °C 3,2 km/h (1 Bft)
01.05.2019 09:23 9,1 °C 73 % 1016,6 hPa 0,0 mm 1,0 km/h (0 Bft) O 90 ° 0 min 0,000 mm 2,6 UV-I 513 W/m² 4,5 °C 9,1 °C 3,2 km/h (1 Bft)
01.05.2019 09:24 9,1 °C 73 % 1016,6 hPa 0,0 mm 2,4 km/h (1 Bft) O 90 ° 0 min 0,000 mm 2,7 UV-I 517 W/m² 4,5 °C 9,1 °C 4,8 km/h (1 Bft)
01.05.2019 09:25 9,0 °C 71 % 1016,6 hPa 0,0 mm 1,4 km/h (1 Bft) O 90 ° 0 min 0,000 mm 2,7 UV-I 519 W/m² 4,0 °C 9,0 °C 3,2 km/h (1 Bft)
01.05.2019 09:26 9,0 °C 71 % 1016,6 hPa 0,0 mm 0,0 km/h (0 Bft) O 90 ° 0 min 0,000 mm 2,7 UV-I 522 W/m² 4,0 °C 9,0 °C 0,0 km/h (0 Bft)
01.05.2019 09:27 8,9 °C 71 % 1016,6 hPa 0,0 mm 0,1 km/h (0 Bft) O 88 ° 0 min 0,000 mm 2,7 UV-I 526 W/m² 3,9 °C 8,9 °C 1,6 km/h (1 Bft)
01.05.2019 09:28 9,0 °C 73 % 1016,6 hPa 0,0 mm 0,0 km/h (0 Bft) O 84 ° 0 min 0,000 mm 2,7 UV-I 526 W/m² 4,4 °C 9,0 °C 0,0 km/h (0 Bft)
01.05.2019 09:29 9,1 °C 73 % 1016,6 hPa 0,0 mm 0,0 km/h (0 Bft) O 84 ° 0 min 0,000 mm 2,8 UV-I 526 W/m² 4,5 °C 9,1 °C 0,0 km/h (0 Bft)
01.05.2019 09:30 9,3 °C 73 % 1016,6 hPa 0,0 mm 1,1 km/h (1 Bft) N-NO 27 ° 0 min 0,000 mm 2,8 UV-I 527 W/m² 4,7 °C 9,3 °C 3,2 km/h (1 Bft)
01.05.2019 09:31 9,3 °C 71 % 1016,6 hPa 0,0 mm 2,1 km/h (1 Bft) N-NO 26 ° 0 min 0,000 mm 2,8 UV-I 529 W/m² 4,3 °C 9,3 °C 3,2 km/h (1 Bft)
01.05.2019 09:32 9,3 °C 71 % 1016,6 hPa 0,0 mm 0,0 km/h (0 Bft) N-NO 26 ° 0 min 0,000 mm 2,8 UV-I 531 W/m² 4,3 °C 9,3 °C 0,0 km/h (0 Bft)
01.05.2019 09:33 9,3 °C 69 % 1016,6 hPa 0,0 mm 1,1 km/h (1 Bft) N-NO 19 ° 0 min 0,000 mm 2,8 UV-I 538 W/m² 3,9 °C 9,3 °C 3,2 km/h (1 Bft)
01.05.2019 09:34 9,4 °C 72 % 1016,6 hPa 0,0 mm 0,4 km/h (0 Bft) N-NO 19 ° 0 min 0,000 mm 2,8 UV-I 538 W/m² 4,6 °C 9,4 °C 1,6 km/h (1 Bft)
01.05.2019 09:35 9,6 °C 74 % 1016,6 hPa 0,0 mm 1,1 km/h (1 Bft) N-NO 19 ° 0 min 0,000 mm 2,8 UV-I 541 W/m² 5,2 °C 9,6 °C 3,2 km/h (1 Bft)
01.05.2019 09:36 9,7 °C 73 % 1016,6 hPa 0,0 mm 1,0 km/h (0 Bft) N-NO 19 ° 0 min 0,000 mm 2,9 UV-I 545 W/m² 5,1 °C 9,7 °C 3,2 km/h (1 Bft)
01.05.2019 09:37 9,7 °C 69 % 1016,5 hPa 0,0 mm 0,2 km/h (0 Bft) N-NO 25 ° 0 min 0,000 mm 2,9 UV-I 548 W/m² 4,3 °C 9,7 °C 1,6 km/h (1 Bft)
01.05.2019 09:38 9,6 °C 69 % 1016,5 hPa 0,0 mm 0,7 km/h (0 Bft) NO 41 ° 0 min 0,000 mm 2,9 UV-I 550 W/m² 4,2 °C 9,6 °C 3,2 km/h (1 Bft)
01.05.2019 09:39 9,4 °C 68 % 1016,5 hPa 0,0 mm 2,2 km/h (1 Bft) N-NO 28 ° 0 min 0,000 mm 3,0 UV-I 559 W/m² 3,8 °C 9,4 °C 4,8 km/h (1 Bft)
01.05.2019 09:40 9,3 °C 69 % 1016,5 hPa 0,0 mm 1,7 km/h (1 Bft) N-NO 28 ° 0 min 0,000 mm 3,0 UV-I 564 W/m² 3,9 °C 9,3 °C 4,8 km/h (1 Bft)
01.05.2019 09:41 9,3 °C 68 % 1016,5 hPa 0,0 mm 1,7 km/h (1 Bft) NO 44 ° 0 min 0,000 mm 3,0 UV-I 570 W/m² 3,7 °C 9,3 °C 3,2 km/h (1 Bft)
01.05.2019 09:42 9,3 °C 68 % 1016,5 hPa 0,0 mm 0,5 km/h (0 Bft) NO 44 ° 0 min 0,000 mm 3,0 UV-I 575 W/m² 3,7 °C 9,3 °C 1,6 km/h (1 Bft)
01.05.2019 09:43 9,4 °C 69 % 1016,5 hPa 0,0 mm 1,2 km/h (1 Bft) NO 44 ° 0 min 0,000 mm 3,0 UV-I 577 W/m² 4,0 °C 9,4 °C 3,2 km/h (1 Bft)
01.05.2019 09:44 9,6 °C 70 % 1016,5 hPa 0,0 mm 2,8 km/h (1 Bft) N-NO 31 ° 0 min 0,000 mm 3,1 UV-I 580 W/m² 4,4 °C 9,6 °C 4,8 km/h (1 Bft)
01.05.2019 09:45 9,7 °C 69 % 1016,5 hPa 0,0 mm 1,9 km/h (1 Bft) NO 40 ° 0 min 0,000 mm 3,0 UV-I 591 W/m² 4,3 °C 9,7 °C 4,8 km/h (1 Bft)
01.05.2019 09:46 9,8 °C 72 % 1016,5 hPa 0,0 mm 1,9 km/h (1 Bft) NO 49 ° 0 min 0,000 mm 3,1 UV-I 594 W/m² 5,0 °C 9,8 °C 6,4 km/h (2 Bft)
01.05.2019 09:47 9,7 °C 67 % 1016,5 hPa 0,0 mm 0,0 km/h (0 Bft) NO 49 ° 0 min 0,000 mm 3,1 UV-I 598 W/m² 3,9 °C 9,7 °C 0,0 km/h (0 Bft)
01.05.2019 09:48 9,7 °C 69 % 1016,4 hPa 0,0 mm 0,0 km/h (0 Bft) NO 49 ° 0 min 0,000 mm 2,3 UV-I 555 W/m² 4,3 °C 9,7 °C 0,0 km/h (0 Bft)
01.05.2019 09:49 9,6 °C 68 % 1016,5 hPa 0,0 mm 0,8 km/h (0 Bft) NO 49 ° 0 min 0,000 mm 2,0 UV-I 555 W/m² 4,0 °C 9,6 °C 3,2 km/h (1 Bft)
01.05.2019 09:50 9,4 °C 69 % 1016,4 hPa 0,0 mm 0,4 km/h (0 Bft) NO 49 ° 0 min 0,000 mm 2,4 UV-I 555 W/m² 4,0 °C 9,4 °C 3,2 km/h (1 Bft)
01.05.2019 09:51 9,3 °C 69 % 1016,5 hPa 0,0 mm 2,7 km/h (1 Bft) NO 50 ° 0 min 0,000 mm 2,8 UV-I 555 W/m² 3,9 °C 9,3 °C 4,8 km/h (1 Bft)
01.05.2019 09:52 9,3 °C 68 % 1016,5 hPa 0,0 mm 0,9 km/h (0 Bft) NO 49 ° 0 min 0,000 mm 3,1 UV-I 596 W/m² 3,7 °C 9,3 °C 1,6 km/h (1 Bft)
01.05.2019 09:53 9,3 °C 68 % 1016,5 hPa 0,0 mm 0,7 km/h (0 Bft) NO 50 ° 1 min 0,000 mm 3,2 UV-I 603 W/m² 3,7 °C 9,3 °C 3,2 km/h (1 Bft)
01.05.2019 09:54 9,4 °C 68 % 1016,4 hPa 0,0 mm 0,8 km/h (0 Bft) NO 50 ° 1 min 0,000 mm 3,2 UV-I 610 W/m² 3,8 °C 9,4 °C 1,6 km/h (1 Bft)
01.05.2019 09:55 9,5 °C 68 % 1016,4 hPa 0,0 mm 0,3 km/h (0 Bft) NO 50 ° 1 min 0,000 mm 3,1 UV-I 613 W/m² 3,9 °C 9,5 °C 1,6 km/h (1 Bft)
01.05.2019 09:56 9,6 °C 69 % 1016,4 hPa 0,0 mm 0,0 km/h (0 Bft) NO 50 ° 1 min 0,000 mm 3,2 UV-I 613 W/m² 4,2 °C 9,6 °C 0,0 km/h (0 Bft)
01.05.2019 09:57 9,7 °C 70 % 1016,4 hPa 0,0 mm 0,0 km/h (0 Bft) NO 49 ° 1 min 0,000 mm 3,2 UV-I 622 W/m² 4,5 °C 9,7 °C 0,0 km/h (0 Bft)
01.05.2019 09:58 9,7 °C 70 % 1016,4 hPa 0,0 mm 1,8 km/h (1 Bft) NO 54 ° 1 min 0,000 mm 3,2 UV-I 643 W/m² 4,5 °C 9,7 °C 6,4 km/h (2 Bft)
01.05.2019 09:59 9,8 °C 68 % 1016,4 hPa 0,0 mm 2,1 km/h (1 Bft) NO 54 ° 1 min 0,000 mm 3,3 UV-I 603 W/m² 4,2 °C 9,8 °C 3,2 km/h (1 Bft)
01.05.2019 10:00 9,8 °C 66 % 1016,4 hPa 0,0 mm 0,3 km/h (0 Bft) NO 54 ° 1 min 0,000 mm 3,3 UV-I 643 W/m² 3,8 °C 9,8 °C 1,6 km/h (1 Bft)
01.05.2019 10:01 9,9 °C 65 % 1016,4 hPa 0,0 mm 0,0 km/h (0 Bft) NO 54 ° 1 min 0,229 mm 3,4 UV-I 656 W/m² 3,6 °C 9,9 °C 0,0 km/h (0 Bft)
01.05.2019 10:02 10,0 °C 70 % 1016,4 hPa 0,0 mm 3,3 km/h (1 Bft) O 95 ° 1 min 0,000 mm 3,4 UV-I 650 W/m² 4,8 °C 10,0 °C 4,8 km/h (1 Bft)
01.05.2019 10:03 10,0 °C 64 % 1016,4 hPa 0,0 mm 1,1 km/h (1 Bft) O 95 ° 1 min 0,000 mm 3,4 UV-I 663 W/m² 3,5 °C 10,0 °C 3,2 km/h (1 Bft)
01.05.2019 10:04 9,9 °C 64 % 1016,4 hPa 0,0 mm 4,5 km/h (1 Bft) SO 138 ° 1 min 0,000 mm 3,2 UV-I 663 W/m² 3,4 °C 9,9 °C 8,0 km/h (2 Bft)
01.05.2019 10:05 9,8 °C 64 % 1016,4 hPa 0,0 mm 2,3 km/h (1 Bft) NO 39 ° 1 min 0,000 mm 2,4 UV-I 663 W/m² 3,3 °C 9,8 °C 8,0 km/h (2 Bft)
01.05.2019 10:06 9,8 °C 66 % 1016,4 hPa 0,0 mm 3,2 km/h (1 Bft) N-NO 19 ° 1 min 0,000 mm 3,5 UV-I 663 W/m² 3,8 °C 9,8 °C 6,4 km/h (2 Bft)
01.05.2019 10:07 9,9 °C 64 % 1016,4 hPa 0,0 mm 3,5 km/h (1 Bft) N-NO 18 ° 1 min 0,000 mm 3,4 UV-I 675 W/m² 3,4 °C 9,9 °C 6,4 km/h (2 Bft)
01.05.2019 10:08 9,9 °C 65 % 1016,4 hPa 0,0 mm 2,3 km/h (1 Bft) NO 50 ° 1 min 0,000 mm 3,4 UV-I 687 W/m² 3,6 °C 9,9 °C 6,4 km/h (2 Bft)
01.05.2019 10:09 10,0 °C 65 % 1016,4 hPa 0,0 mm 2,8 km/h (1 Bft) O-NO 69 ° 1 min 0,000 mm 3,0 UV-I 687 W/m² 3,7 °C 10,0 °C 4,8 km/h (1 Bft)
01.05.2019 10:10 9,9 °C 65 % 1016,4 hPa 0,0 mm 1,3 km/h (1 Bft) O-NO 64 ° 0 min 0,000 mm 3,2 UV-I 480 W/m² 3,6 °C 9,9 °C 4,8 km/h (1 Bft)
01.05.2019 10:11 9,9 °C 65 % 1016,4 hPa 0,0 mm 0,1 km/h (0 Bft) O-NO 64 ° 0 min 0,000 mm 2,2 UV-I 480 W/m² 3,6 °C 9,9 °C 1,6 km/h (1 Bft)
01.05.2019 10:12 9,8 °C 66 % 1016,4 hPa 0,0 mm 2,0 km/h (1 Bft) N 10 ° 0 min 0,000 mm 2,0 UV-I 480 W/m² 3,8 °C 9,8 °C 4,8 km/h (1 Bft)
01.05.2019 10:13 9,8 °C 66 % 1016,4 hPa 0,0 mm 0,6 km/h (0 Bft) N 10 ° 0 min 0,000 mm 1,9 UV-I 132 W/m² 3,8 °C 9,8 °C 1,6 km/h (1 Bft)
01.05.2019 10:14 9,7 °C 65 % 1016,4 hPa 0,0 mm 0,1 km/h (0 Bft) N 10 ° 0 min 0,000 mm 1,9 UV-I 120 W/m² 3,4 °C 9,7 °C 1,6 km/h (1 Bft)
01.05.2019 10:15 9,6 °C 66 % 1016,3 hPa 0,0 mm 0,4 km/h (0 Bft) N 10 ° 0 min 0,000 mm 1,9 UV-I 120 W/m² 3,6 °C 9,6 °C 1,6 km/h (1 Bft)
01.05.2019 10:16 9,5 °C 64 % 1016,4 hPa 0,0 mm 1,0 km/h (0 Bft) N 10 ° 0 min 0,000 mm 1,9 UV-I 116 W/m² 3,0 °C 9,5 °C 1,6 km/h (1 Bft)
01.05.2019 10:17 9,4 °C 64 % 1016,3 hPa 0,0 mm 0,9 km/h (0 Bft) N 10 ° 0 min 0,000 mm 1,9 UV-I 123 W/m² 2,9 °C 9,4 °C 1,6 km/h (1 Bft)
01.05.2019 10:18 9,3 °C 65 % 1016,3 hPa 0,0 mm 0,0 km/h (0 Bft) N 10 ° 0 min 0,000 mm 2,0 UV-I 139 W/m² 3,1 °C 9,3 °C 0,0 km/h (0 Bft)
01.05.2019 10:19 9,3 °C 68 % 1016,4 hPa 0,0 mm 0,0 km/h (0 Bft) N 10 ° 0 min 0,000 mm 2,0 UV-I 156 W/m² 3,7 °C 9,3 °C 0,0 km/h (0 Bft)
01.05.2019 10:20 9,3 °C 68 % 1016,3 hPa 0,0 mm 0,0 km/h (0 Bft) N 10 ° 0 min 0,000 mm 2,2 UV-I 192 W/m² 3,7 °C 9,3 °C 0,0 km/h (0 Bft)
01.05.2019 10:21 9,4 °C 71 % 1016,3 hPa 0,0 mm 2,8 km/h (1 Bft) N 10 ° 1 min 0,000 mm 3,5 UV-I 712 W/m² 4,4 °C 9,4 °C 3,2 km/h (1 Bft)
01.05.2019 10:22 9,7 °C 70 % 1016,3 hPa 0,0 mm 2,1 km/h (1 Bft) N 10 ° 1 min 0,000 mm 3,7 UV-I 737 W/m² 4,5 °C 9,7 °C 3,2 km/h (1 Bft)
01.05.2019 10:23 9,9 °C 70 % 1016,3 hPa 0,0 mm 2,1 km/h (1 Bft) N 9 ° 1 min 0,000 mm 3,7 UV-I 737 W/m² 4,7 °C 9,9 °C 4,8 km/h (1 Bft)
01.05.2019 10:24 10,1 °C 69 % 1016,3 hPa 0,0 mm 0,0 km/h (0 Bft) N 9 ° 1 min 0,000 mm 3,8 UV-I 744 W/m² 4,7 °C 10,1 °C 0,0 km/h (0 Bft)
01.05.2019 10:25 10,3 °C 69 % 1016,3 hPa 0,0 mm 0,0 km/h (0 Bft) N 9 ° 1 min 0,000 mm 2,5 UV-I 744 W/m² 4,9 °C 10,3 °C 0,0 km/h (0 Bft)
01.05.2019 10:26 10,3 °C 68 % 1016,3 hPa 0,0 mm 0,3 km/h (0 Bft) N 355 ° 0 min 0,000 mm 2,2 UV-I 186 W/m² 4,7 °C 10,3 °C 1,6 km/h (1 Bft)
01.05.2019 10:27 10,2 °C 67 % 1016,3 hPa 0,0 mm 1,8 km/h (1 Bft) NO 35 ° 0 min 0,000 mm 2,3 UV-I 142 W/m² 4,4 °C 10,2 °C 3,2 km/h (1 Bft)
01.05.2019 10:28 10,0 °C 65 % 1016,3 hPa 0,0 mm 1,2 km/h (1 Bft) NO 41 ° 0 min 0,000 mm 3,4 UV-I 142 W/m² 3,7 °C 10,0 °C 3,2 km/h (1 Bft)
01.05.2019 10:29 10,0 °C 68 % 1016,3 hPa 0,0 mm 0,0 km/h (0 Bft) NO 41 ° 0 min 0,000 mm 3,8 UV-I 592 W/m² 4,4 °C 10,0 °C 0,0 km/h (0 Bft)
01.05.2019 10:30 9,9 °C 68 % 1016,3 hPa 0,0 mm 0,1 km/h (0 Bft) NO 41 ° 0 min 0,000 mm 3,9 UV-I 592 W/m² 4,3 °C 9,9 °C 1,6 km/h (1 Bft)
01.05.2019 10:31 9,9 °C 67 % 1016,3 hPa 0,0 mm 0,0 km/h (0 Bft) NO 41 ° 1 min 0,000 mm 3,9 UV-I 728 W/m² 4,1 °C 9,9 °C 0,0 km/h (0 Bft)
01.05.2019 10:32 10,1 °C 69 % 1016,3 hPa 0,0 mm 0,1 km/h (0 Bft) NO 41 ° 1 min 0,000 mm 3,8 UV-I 721 W/m² 4,7 °C 10,1 °C 1,6 km/h (1 Bft)
01.05.2019 10:33 10,2 °C 67 % 1016,3 hPa 0,0 mm 0,0 km/h (0 Bft) NO 41 ° 1 min 0,000 mm 4,0 UV-I 726 W/m² 4,4 °C 10,2 °C 0,0 km/h (0 Bft)
01.05.2019 10:34 10,3 °C 70 % 1016,4 hPa 0,0 mm 0,0 km/h (0 Bft) NO 41 ° 1 min 0,000 mm 4,0 UV-I 731 W/m² 5,1 °C 10,3 °C 0,0 km/h (0 Bft)
01.05.2019 10:35 10,4 °C 66 % 1016,3 hPa 0,0 mm 0,0 km/h (0 Bft) NO 41 ° 1 min 0,000 mm 4,0 UV-I 737 W/m² 4,3 °C 10,4 °C 0,0 km/h (0 Bft)
01.05.2019 10:36 10,6 °C 69 % 1016,3 hPa 0,0 mm 0,1 km/h (0 Bft) NO 41 ° 1 min 0,000 mm 4,1 UV-I 742 W/m² 5,2 °C 10,6 °C 1,6 km/h (1 Bft)
01.05.2019 10:37 10,7 °C 63 % 1016,3 hPa 0,0 mm 2,4 km/h (1 Bft) NO 41 ° 1 min 0,000 mm 4,1 UV-I 749 W/m² 3,9 °C 10,7 °C 4,8 km/h (1 Bft)
01.05.2019 10:38 10,8 °C 67 % 1016,3 hPa 0,0 mm 1,8 km/h (1 Bft) NO 41 ° 1 min 0,000 mm 4,1 UV-I 737 W/m² 4,9 °C 10,8 °C 3,2 km/h (1 Bft)
01.05.2019 10:39 10,8 °C 64 % 1016,3 hPa 0,0 mm 2,2 km/h (1 Bft) NO 40 ° 1 min 0,000 mm 4,2 UV-I 747 W/m² 4,3 °C 10,8 °C 4,8 km/h (1 Bft)
01.05.2019 10:40 10,8 °C 65 % 1016,2 hPa 0,0 mm 3,6 km/h (1 Bft) NO 40 ° 1 min 0,000 mm 4,2 UV-I 751 W/m² 4,5 °C 10,8 °C 4,8 km/h (1 Bft)
01.05.2019 10:41 10,9 °C 65 % 1016,2 hPa 0,0 mm 3,7 km/h (1 Bft) NO 40 ° 1 min 0,000 mm 4,2 UV-I 744 W/m² 4,6 °C 10,9 °C 4,8 km/h (1 Bft)
01.05.2019 10:42 10,9 °C 64 % 1016,3 hPa 0,0 mm 3,1 km/h (1 Bft) N-NO 19 ° 1 min 0,000 mm 4,2 UV-I 745 W/m² 4,4 °C 10,9 °C 4,8 km/h (1 Bft)
01.05.2019 10:43 10,9 °C 63 % 1016,3 hPa 0,0 mm 3,7 km/h (1 Bft) N-NO 19 ° 1 min 0,000 mm 4,3 UV-I 756 W/m² 4,1 °C 10,9 °C 4,8 km/h (1 Bft)
01.05.2019 10:44 10,8 °C 61 % 1016,3 hPa 0,0 mm 0,1 km/h (0 Bft) N-NO 19 ° 1 min 0,000 mm 4,3 UV-I 752 W/m² 3,6 °C 10,8 °C 1,6 km/h (1 Bft)
01.05.2019 10:45 10,7 °C 61 % 1016,3 hPa 0,0 mm 0,0 km/h (0 Bft) N-NO 19 ° 1 min 0,000 mm 4,3 UV-I 745 W/m² 3,5 °C 10,7 °C 0,0 km/h (0 Bft)
01.05.2019 10:46 10,7 °C 62 % 1016,3 hPa 0,0 mm 0,9 km/h (0 Bft) N-NO 20 ° 1 min 0,000 mm 4,2 UV-I 729 W/m² 3,7 °C 10,7 °C 3,2 km/h (1 Bft)
01.05.2019 10:47 10,6 °C 65 % 1016,3 hPa 0,0 mm 0,2 km/h (0 Bft) N-NO 20 ° 1 min 0,000 mm 4,3 UV-I 738 W/m² 4,3 °C 10,6 °C 1,6 km/h (1 Bft)
01.05.2019 10:48 10,8 °C 66 % 1016,3 hPa 0,0 mm 3,9 km/h (1 Bft) N-NO 26 ° 1 min 0,000 mm 4,4 UV-I 759 W/m² 4,7 °C 10,8 °C 6,4 km/h (2 Bft)
01.05.2019 10:49 10,9 °C 66 % 1016,3 hPa 0,0 mm 3,8 km/h (1 Bft) NO 47 ° 1 min 0,000 mm 3,3 UV-I 788 W/m² 4,8 °C 10,9 °C 6,4 km/h (2 Bft)
01.05.2019 10:50 10,9 °C 61 % 1016,3 hPa 0,0 mm 3,5 km/h (1 Bft) NO 51 ° 1 min 0,000 mm 3,3 UV-I 780 W/m² 3,7 °C 10,9 °C 4,8 km/h (1 Bft)
01.05.2019 10:51 10,8 °C 61 % 1016,3 hPa 0,0 mm 2,1 km/h (1 Bft) O-NO 65 ° 1 min 0,000 mm 3,8 UV-I 780 W/m² 3,6 °C 10,8 °C 4,8 km/h (1 Bft)
01.05.2019 10:52 10,8 °C 62 % 1016,3 hPa 0,0 mm 2,5 km/h (1 Bft) NO 42 ° 1 min 0,000 mm 3,8 UV-I 636 W/m² 3,8 °C 10,8 °C 3,2 km/h (1 Bft)
01.05.2019 10:53 10,7 °C 61 % 1016,3 hPa 0,0 mm 0,4 km/h (0 Bft) NO 35 ° 1 min 0,000 mm 4,4 UV-I 698 W/m² 3,5 °C 10,7 °C 3,2 km/h (1 Bft)
01.05.2019 10:54 10,8 °C 63 % 1016,3 hPa 0,0 mm 0,0 km/h (0 Bft) NO 46 ° 1 min 0,000 mm 4,4 UV-I 782 W/m² 4,0 °C 10,8 °C 0,0 km/h (0 Bft)
01.05.2019 10:55 10,8 °C 62 % 1016,3 hPa 0,0 mm 2,0 km/h (1 Bft) S 173 ° 1 min 0,000 mm 4,4 UV-I 789 W/m² 3,8 °C 10,8 °C 3,2 km/h (1 Bft)
01.05.2019 10:56 10,8 °C 64 % 1016,3 hPa 0,0 mm 0,7 km/h (0 Bft) S 173 ° 1 min 0,000 mm 4,5 UV-I 789 W/m² 4,3 °C 10,8 °C 3,2 km/h (1 Bft)
01.05.2019 10:57 10,7 °C 61 % 1016,3 hPa 0,0 mm 0,0 km/h (0 Bft) S 173 ° 1 min 0,000 mm 4,5 UV-I 789 W/m² 3,5 °C 10,7 °C 0,0 km/h (0 Bft)
01.05.2019 10:58 10,7 °C 61 % 1016,3 hPa 0,0 mm 0,0 km/h (0 Bft) S 173 ° 1 min 0,000 mm 4,6 UV-I 793 W/m² 3,5 °C 10,7 °C 0,0 km/h (0 Bft)
01.05.2019 10:59 10,8 °C 62 % 1016,3 hPa 0,0 mm 3,7 km/h (1 Bft) N-NO 19 ° 1 min 0,000 mm 4,6 UV-I 805 W/m² 3,8 °C 10,8 °C 11,3 km/h (2 Bft)
01.05.2019 11:00 10,9 °C 61 % 1016,2 hPa 0,0 mm 10,2 km/h (2 Bft) N-NO 18 ° 1 min 0,279 mm 4,6 UV-I 807 W/m² 3,7 °C 10,9 °C 14,5 km/h (3 Bft)
01.05.2019 11:01 10,9 °C 59 % 1016,3 hPa 0,0 mm 9,7 km/h (2 Bft) N 11 ° 1 min 0,000 mm 4,7 UV-I 805 W/m² 3,2 °C 10,9 °C 14,5 km/h (3 Bft)
01.05.2019 11:02 10,9 °C 58 % 1016,3 hPa 0,0 mm 1,9 km/h (1 Bft) N-NO 31 ° 1 min 0,000 mm 4,7 UV-I 795 W/m² 3,0 °C 10,9 °C 4,8 km/h (1 Bft)
01.05.2019 11:03 10,9 °C 61 % 1016,3 hPa 0,0 mm 2,6 km/h (1 Bft) N 350 ° 1 min 0,000 mm 4,7 UV-I 798 W/m² 3,7 °C 10,9 °C 8,0 km/h (2 Bft)
01.05.2019 11:04 11,2 °C 64 % 1016,3 hPa 0,0 mm 7,5 km/h (2 Bft) N-NO 27 ° 1 min 0,000 mm 4,8 UV-I 812 W/m² 4,6 °C 11,2 °C 9,7 km/h (2 Bft)
01.05.2019 11:05 11,2 °C 62 % 1016,3 hPa 0,0 mm 5,1 km/h (1 Bft) NW 315 ° 1 min 0,000 mm 4,8 UV-I 812 W/m² 4,2 °C 11,2 °C 6,4 km/h (2 Bft)
01.05.2019 11:06 11,2 °C 63 % 1016,3 hPa 0,0 mm 3,9 km/h (1 Bft) N 360 ° 1 min 0,000 mm 4,9 UV-I 840 W/m² 4,4 °C 11,2 °C 6,4 km/h (2 Bft)
01.05.2019 11:07 11,3 °C 61 % 1016,3 hPa 0,0 mm 2,5 km/h (1 Bft) N 360 ° 1 min 0,000 mm 4,9 UV-I 846 W/m² 4,1 °C 11,3 °C 4,8 km/h (1 Bft)
01.05.2019 11:08 11,4 °C 62 % 1016,3 hPa 0,0 mm 1,9 km/h (1 Bft) N 5 ° 1 min 0,000 mm 4,9 UV-I 861 W/m² 4,4 °C 11,4 °C 6,4 km/h (2 Bft)
01.05.2019 11:09 11,4 °C 63 % 1016,2 hPa 0,0 mm 4,9 km/h (1 Bft) N 11 ° 1 min 0,000 mm 4,9 UV-I 851 W/m² 4,6 °C 11,4 °C 8,0 km/h (2 Bft)
01.05.2019 11:10 11,4 °C 61 % 1016,2 hPa 0,0 mm 3,4 km/h (1 Bft) O-NO 73 ° 1 min 0,000 mm 4,9 UV-I 849 W/m² 4,2 °C 11,4 °C 6,4 km/h (2 Bft)
01.05.2019 11:11 11,4 °C 62 % 1016,2 hPa 0,0 mm 3,9 km/h (1 Bft) O 80 ° 1 min 0,000 mm 5,0 UV-I 853 W/m² 4,4 °C 11,4 °C 6,4 km/h (2 Bft)
01.05.2019 11:12 11,2 °C 60 % 1016,2 hPa 0,0 mm 3,6 km/h (1 Bft) O 85 ° 1 min 0,000 mm 5,0 UV-I 860 W/m² 3,7 °C 11,2 °C 4,8 km/h (1 Bft)
01.05.2019 11:13 11,1 °C 60 % 1016,2 hPa 0,0 mm 4,0 km/h (1 Bft) O-NO 72 ° 1 min 0,000 mm 5,1 UV-I 875 W/m² 3,6 °C 11,1 °C 6,4 km/h (2 Bft)
01.05.2019 11:14 10,9 °C 61 % 1016,3 hPa 0,0 mm 3,6 km/h (1 Bft) O-NO 73 ° 1 min 0,000 mm 5,2 UV-I 879 W/m² 3,7 °C 10,9 °C 4,8 km/h (1 Bft)
01.05.2019 11:15 10,9 °C 60 % 1016,3 hPa 0,0 mm 2,4 km/h (1 Bft) O 86 ° 1 min 0,000 mm 5,2 UV-I 881 W/m² 3,4 °C 10,9 °C 4,8 km/h (1 Bft)
01.05.2019 11:16 10,9 °C 64 % 1016,3 hPa 0,0 mm 3,5 km/h (1 Bft) O 87 ° 1 min 0,000 mm 5,2 UV-I 884 W/m² 4,4 °C 10,9 °C 4,8 km/h (1 Bft)
01.05.2019 11:17 11,0 °C 64 % 1016,3 hPa 0,0 mm 2,3 km/h (1 Bft) O 86 ° 1 min 0,000 mm 5,2 UV-I 893 W/m² 4,5 °C 11,0 °C 4,8 km/h (1 Bft)
01.05.2019 11:18 11,1 °C 62 % 1016,3 hPa 0,0 mm 2,2 km/h (1 Bft) S-SO 151 ° 1 min 0,000 mm 5,2 UV-I 898 W/m² 4,1 °C 11,1 °C 4,8 km/h (1 Bft)
01.05.2019 11:19 11,1 °C 61 % 1016,2 hPa 0,0 mm 4,6 km/h (1 Bft) S 184 ° 1 min 0,000 mm 5,2 UV-I 904 W/m² 3,9 °C 11,1 °C 8,0 km/h (2 Bft)
01.05.2019 11:20 11,2 °C 61 % 1016,3 hPa 0,0 mm 2,4 km/h (1 Bft) SO 146 ° 1 min 0,000 mm 5,2 UV-I 898 W/m² 4,0 °C 11,2 °C 6,4 km/h (2 Bft)
01.05.2019 11:21 11,3 °C 62 % 1016,2 hPa 0,0 mm 0,1 km/h (0 Bft) S-SO 154 ° 1 min 0,000 mm 4,3 UV-I 898 W/m² 4,3 °C 11,3 °C 1,6 km/h (1 Bft)
01.05.2019 11:22 11,3 °C 62 % 1016,2 hPa 0,0 mm 0,1 km/h (0 Bft) S 172 ° 1 min 0,000 mm 5,2 UV-I 657 W/m² 4,3 °C 11,3 °C 1,6 km/h (1 Bft)
01.05.2019 11:23 11,3 °C 62 % 1016,2 hPa 0,0 mm 0,0 km/h (0 Bft) S 172 ° 1 min 0,000 mm 4,1 UV-I 664 W/m² 4,3 °C 11,3 °C 0,0 km/h (0 Bft)
01.05.2019 11:24 11,3 °C 62 % 1016,2 hPa 0,0 mm 0,0 km/h (0 Bft) S 172 ° 1 min 0,000 mm 4,9 UV-I 802 W/m² 4,3 °C 11,3 °C 0,0 km/h (0 Bft)
01.05.2019 11:25 11,3 °C 60 % 1016,2 hPa 0,0 mm 0,4 km/h (0 Bft) O 90 ° 1 min 0,000 mm 4,5 UV-I 766 W/m² 3,8 °C 11,3 °C 1,6 km/h (1 Bft)
01.05.2019 11:26 11,3 °C 63 % 1016,2 hPa 0,0 mm 3,3 km/h (1 Bft) N-NW 328 ° 1 min 0,000 mm 4,3 UV-I 766 W/m² 4,5 °C 11,3 °C 6,4 km/h (2 Bft)
01.05.2019 11:27 11,4 °C 62 % 1016,2 hPa 0,0 mm 2,8 km/h (1 Bft) NO 53 ° 1 min 0,000 mm 4,3 UV-I 766 W/m² 4,4 °C 11,4 °C 4,8 km/h (1 Bft)
01.05.2019 11:28 11,7 °C 65 % 1016,2 hPa 0,0 mm 2,0 km/h (1 Bft) NO 40 ° 1 min 0,000 mm 4,7 UV-I 696 W/m² 5,3 °C 11,7 °C 4,8 km/h (1 Bft)
01.05.2019 11:29 11,8 °C 64 % 1016,2 hPa 0,0 mm 2,1 km/h (1 Bft) N-NO 31 ° 1 min 0,000 mm 5,1 UV-I 696 W/m² 5,2 °C 11,8 °C 4,8 km/h (1 Bft)
01.05.2019 11:30 11,8 °C 63 % 1016,2 hPa 0,0 mm 4,6 km/h (1 Bft) NO 51 ° 1 min 0,000 mm 4,6 UV-I 807 W/m² 5,0 °C 11,8 °C 8,0 km/h (2 Bft)
01.05.2019 11:31 11,9 °C 62 % 1016,2 hPa 0,0 mm 5,7 km/h (1 Bft) N 351 ° 1 min 0,000 mm 5,2 UV-I 826 W/m² 4,9 °C 11,9 °C 8,0 km/h (2 Bft)
01.05.2019 11:32 11,9 °C 60 % 1016,1 hPa 0,0 mm 5,6 km/h (1 Bft) N 355 ° 1 min 0,000 mm 5,2 UV-I 823 W/m² 4,4 °C 11,9 °C 6,4 km/h (2 Bft)
01.05.2019 11:33 12,1 °C 61 % 1016,1 hPa 0,0 mm 3,5 km/h (1 Bft) N-NO 15 ° 1 min 0,000 mm 5,2 UV-I 826 W/m² 4,8 °C 12,1 °C 4,8 km/h (1 Bft)
01.05.2019 11:34 12,1 °C 61 % 1016,1 hPa 0,0 mm 2,5 km/h (1 Bft) O-NO 57 ° 1 min 0,000 mm 5,3 UV-I 837 W/m² 4,8 °C 12,1 °C 4,8 km/h (1 Bft)
01.05.2019 11:35 11,9 °C 63 % 1016,1 hPa 0,0 mm 3,0 km/h (1 Bft) O-NO 59 ° 1 min 0,000 mm 5,3 UV-I 842 W/m² 5,1 °C 11,9 °C 6,4 km/h (2 Bft)
01.05.2019 11:36 11,9 °C 63 % 1016,1 hPa 0,0 mm 3,2 km/h (1 Bft) W-NW 303 ° 1 min 0,000 mm 5,3 UV-I 837 W/m² 5,1 °C 11,9 °C 6,4 km/h (2 Bft)
01.05.2019 11:37 12,0 °C 63 % 1016,1 hPa 0,0 mm 3,2 km/h (1 Bft) NW 306 ° 1 min 0,000 mm 5,3 UV-I 835 W/m² 5,2 °C 12,0 °C 8,0 km/h (2 Bft)
01.05.2019 11:38 12,2 °C 62 % 1016,0 hPa 0,0 mm 2,3 km/h (1 Bft) N 10 ° 1 min 0,000 mm 5,3 UV-I 837 W/m² 5,1 °C 12,2 °C 6,4 km/h (2 Bft)
01.05.2019 11:39 12,3 °C 62 % 1016,0 hPa 0,0 mm 2,4 km/h (1 Bft) N-NO 14 ° 1 min 0,000 mm 5,3 UV-I 842 W/m² 5,2 °C 12,3 °C 4,8 km/h (1 Bft)
01.05.2019 11:40 12,4 °C 62 % 1015,9 hPa 0,0 mm 3,7 km/h (1 Bft) N 5 ° 1 min 0,000 mm 5,4 UV-I 854 W/m² 5,3 °C 12,4 °C 6,4 km/h (2 Bft)
01.05.2019 11:41 12,4 °C 58 % 1016,0 hPa 0,0 mm 7,5 km/h (2 Bft) NO 49 ° 1 min 0,000 mm 5,3 UV-I 817 W/m² 4,4 °C 12,4 °C 11,3 km/h (2 Bft)
01.05.2019 11:42 12,3 °C 58 % 1016,0 hPa 0,0 mm 3,7 km/h (1 Bft) S 177 ° 1 min 0,000 mm 5,3 UV-I 840 W/m² 4,3 °C 12,3 °C 6,4 km/h (2 Bft)
01.05.2019 11:43 12,1 °C 56 % 1015,9 hPa 0,0 mm 1,0 km/h (0 Bft) W 266 ° 1 min 0,000 mm 2,9 UV-I 840 W/m² 3,6 °C 12,1 °C 3,2 km/h (1 Bft)
01.05.2019 11:44 11,8 °C 56 % 1016,0 hPa 0,0 mm 0,0 km/h (0 Bft) W 268 ° 1 min 0,000 mm 4,4 UV-I 840 W/m² 3,3 °C 11,8 °C 0,0 km/h (0 Bft)
01.05.2019 11:45 11,6 °C 59 % 1016,0 hPa 0,0 mm 0,0 km/h (0 Bft) W 268 ° 1 min 0,000 mm 3,7 UV-I 840 W/m² 3,9 °C 11,6 °C 0,0 km/h (0 Bft)
01.05.2019 11:46 11,4 °C 57 % 1016,0 hPa 0,0 mm 0,8 km/h (0 Bft) W 268 ° 0 min 0,000 mm 3,4 UV-I 311 W/m² 3,2 °C 11,4 °C 3,2 km/h (1 Bft)
01.05.2019 11:47 11,4 °C 61 % 1016,0 hPa 0,0 mm 0,7 km/h (0 Bft) N-NW 347 ° 0 min 0,000 mm 4,4 UV-I 311 W/m² 4,2 °C 11,4 °C 3,2 km/h (1 Bft)
01.05.2019 11:48 11,4 °C 58 % 1016,0 hPa 0,0 mm 0,5 km/h (0 Bft) N-NW 345 ° 1 min 0,000 mm 5,3 UV-I 867 W/m² 3,4 °C 11,4 °C 3,2 km/h (1 Bft)
01.05.2019 11:49 11,6 °C 62 % 1016,0 hPa 0,0 mm 0,6 km/h (0 Bft) NW 311 ° 1 min 0,000 mm 5,4 UV-I 875 W/m² 4,6 °C 11,6 °C 3,2 km/h (1 Bft)
01.05.2019 11:50 11,7 °C 60 % 1016,0 hPa 0,0 mm 2,6 km/h (1 Bft) N-NW 346 ° 1 min 0,000 mm 4,9 UV-I 863 W/m² 4,2 °C 11,7 °C 4,8 km/h (1 Bft)
01.05.2019 11:51 11,9 °C 59 % 1016,0 hPa 0,0 mm 2,0 km/h (1 Bft) N-NW 348 ° 1 min 0,000 mm 5,5 UV-I 884 W/m² 4,1 °C 11,9 °C 4,8 km/h (1 Bft)
01.05.2019 11:52 12,0 °C 58 % 1016,0 hPa 0,0 mm 7,6 km/h (2 Bft) N-NO 26 ° 1 min 0,000 mm 5,5 UV-I 902 W/m² 4,0 °C 12,0 °C 12,9 km/h (3 Bft)
01.05.2019 11:53 11,9 °C 59 % 1016,1 hPa 0,0 mm 5,2 km/h (1 Bft) N-NO 24 ° 1 min 0,000 mm 5,5 UV-I 902 W/m² 4,1 °C 11,9 °C 9,7 km/h (2 Bft)
01.05.2019 11:54 11,9 °C 57 % 1016,0 hPa 0,0 mm 4,0 km/h (1 Bft) N-NO 30 ° 0 min 0,000 mm 3,8 UV-I 274 W/m² 3,7 °C 11,9 °C 4,8 km/h (1 Bft)
01.05.2019 11:55 11,8 °C 57 % 1016,1 hPa 0,0 mm 10,7 km/h (2 Bft) N 5 ° 0 min 0,000 mm 4,2 UV-I 274 W/m² 3,6 °C 11,8 °C 16,1 km/h (3 Bft)
01.05.2019 11:56 11,9 °C 59 % 1016,1 hPa 0,0 mm 8,5 km/h (2 Bft) N 10 ° 0 min 0,000 mm 5,8 UV-I 274 W/m² 4,1 °C 11,9 °C 14,5 km/h (3 Bft)
01.05.2019 11:57 11,9 °C 59 % 1016,0 hPa 0,0 mm 5,0 km/h (1 Bft) N 360 ° 0 min 0,000 mm 4,5 UV-I 274 W/m² 4,1 °C 11,9 °C 8,0 km/h (2 Bft)
01.05.2019 11:58 11,9 °C 56 % 1016,1 hPa 0,0 mm 2,9 km/h (1 Bft) N 5 ° 0 min 0,000 mm 3,8 UV-I 274 W/m² 3,4 °C 11,9 °C 4,8 km/h (1 Bft)
01.05.2019 11:59 11,8 °C 57 % 1016,1 hPa 0,0 mm 0,1 km/h (0 Bft) N-NO 26 ° 0 min 0,000 mm 5,1 UV-I 274 W/m² 3,6 °C 11,8 °C 1,6 km/h (1 Bft)
01.05.2019 12:00 11,7 °C 56 % 1016,1 hPa 0,0 mm 1,9 km/h (1 Bft) O-SO 113 ° 1 min 0,000 mm 5,2 UV-I 788 W/m² 3,2 °C 11,7 °C 3,2 km/h (1 Bft)
01.05.2019 12:01 11,6 °C 56 % 1016,1 hPa 0,0 mm 3,4 km/h (1 Bft) S-SO 157 ° 1 min 0,381 mm 5,6 UV-I 930 W/m² 3,1 °C 11,6 °C 6,4 km/h (2 Bft)
01.05.2019 12:02 11,5 °C 58 % 1016,0 hPa 0,0 mm 3,2 km/h (1 Bft) S-SO 155 ° 1 min 0,000 mm 5,7 UV-I 919 W/m² 3,5 °C 11,5 °C 4,8 km/h (1 Bft)
01.05.2019 12:03 11,5 °C 59 % 1016,0 hPa 0,0 mm 0,0 km/h (0 Bft) S-SO 147 ° 1 min 0,000 mm 5,6 UV-I 905 W/m² 3,8 °C 11,5 °C 0,0 km/h (0 Bft)
01.05.2019 12:04 11,5 °C 58 % 1016,0 hPa 0,0 mm 4,0 km/h (1 Bft) N 355 ° 1 min 0,000 mm 5,7 UV-I 905 W/m² 3,5 °C 11,5 °C 6,4 km/h (2 Bft)
01.05.2019 12:05 11,8 °C 65 % 1016,0 hPa 0,0 mm 3,8 km/h (1 Bft) N 9 ° 1 min 0,000 mm 5,7 UV-I 932 W/m² 5,4 °C 11,8 °C 6,4 km/h (2 Bft)
01.05.2019 12:06 12,0 °C 60 % 1015,9 hPa 0,0 mm 2,2 km/h (1 Bft) N-NO 22 ° 1 min 0,000 mm 5,7 UV-I 923 W/m² 4,5 °C 12,0 °C 4,8 km/h (1 Bft)
01.05.2019 12:07 12,2 °C 64 % 1015,9 hPa 0,0 mm 0,3 km/h (0 Bft) N-NO 31 ° 1 min 0,000 mm 5,8 UV-I 914 W/m² 5,6 °C 12,2 °C 3,2 km/h (1 Bft)
01.05.2019 12:08 12,4 °C 62 % 1015,9 hPa 0,0 mm 3,8 km/h (1 Bft) O-NO 59 ° 1 min 0,000 mm 5,8 UV-I 904 W/m² 5,3 °C 12,4 °C 11,3 km/h (2 Bft)
01.05.2019 12:09 12,4 °C 58 % 1015,9 hPa 0,0 mm 7,6 km/h (2 Bft) NO 56 ° 1 min 0,000 mm 5,8 UV-I 891 W/m² 4,4 °C 12,4 °C 14,5 km/h (3 Bft)
01.05.2019 12:10 12,6 °C 58 % 1015,9 hPa 0,0 mm 3,5 km/h (1 Bft) O-NO 67 ° 1 min 0,000 mm 5,8 UV-I 886 W/m² 4,6 °C 12,6 °C 4,8 km/h (1 Bft)
01.05.2019 12:11 12,4 °C 58 % 1015,9 hPa 0,0 mm 4,1 km/h (1 Bft) N 5 ° 1 min 0,000 mm 5,8 UV-I 893 W/m² 4,4 °C 12,4 °C 6,4 km/h (2 Bft)
01.05.2019 12:12 12,7 °C 62 % 1015,9 hPa 0,0 mm 6,3 km/h (2 Bft) N 5 ° 1 min 0,000 mm 5,8 UV-I 896 W/m² 5,6 °C 12,7 °C 12,9 km/h (3 Bft)
01.05.2019 12:13 12,8 °C 58 % 1016,0 hPa 0,0 mm 9,7 km/h (2 Bft) NW 321 ° 1 min 0,000 mm 5,8 UV-I 895 W/m² 4,7 °C 12,8 °C 12,9 km/h (3 Bft)
01.05.2019 12:14 12,7 °C 58 % 1015,9 hPa 0,0 mm 7,3 km/h (2 Bft) N 355 ° 1 min 0,000 mm 5,8 UV-I 886 W/m² 4,7 °C 12,7 °C 12,9 km/h (3 Bft)
01.05.2019 12:15 12,8 °C 58 % 1015,9 hPa 0,0 mm 7,4 km/h (2 Bft) N 351 ° 1 min 0,000 mm 5,8 UV-I 881 W/m² 4,7 °C 12,8 °C 12,9 km/h (3 Bft)
01.05.2019 12:16 12,7 °C 54 % 1015,9 hPa 0,0 mm 8,8 km/h (2 Bft) NO 35 ° 1 min 0,000 mm 5,7 UV-I 877 W/m² 3,6 °C 12,7 °C 14,5 km/h (3 Bft)
01.05.2019 12:17 12,6 °C 55 % 1015,9 hPa 0,0 mm 10,3 km/h (2 Bft) NW 321 ° 1 min 0,000 mm 5,7 UV-I 872 W/m² 3,8 °C 12,6 °C 14,5 km/h (3 Bft)
01.05.2019 12:18 12,5 °C 56 % 1015,9 hPa 0,0 mm 4,9 km/h (1 Bft) N-NW 336 ° 1 min 0,000 mm 5,7 UV-I 870 W/m² 4,0 °C 12,5 °C 8,0 km/h (2 Bft)
01.05.2019 12:19 12,7 °C 60 % 1015,9 hPa 0,0 mm 5,2 km/h (1 Bft) N-NW 348 ° 1 min 0,000 mm 5,6 UV-I 868 W/m² 5,1 °C 12,7 °C 12,9 km/h (3 Bft)
01.05.2019 12:20 12,7 °C 60 % 1015,8 hPa 0,0 mm 7,8 km/h (2 Bft) N 355 ° 1 min 0,000 mm 5,6 UV-I 863 W/m² 5,1 °C 12,7 °C 12,9 km/h (3 Bft)
01.05.2019 12:21 12,7 °C 56 % 1015,8 hPa 0,0 mm 6,4 km/h (2 Bft) N 355 ° 1 min 0,000 mm 5,8 UV-I 886 W/m² 4,2 °C 12,7 °C 9,7 km/h (2 Bft)
01.05.2019 12:22 12,7 °C 56 % 1015,8 hPa 0,0 mm 5,0 km/h (1 Bft) N-NW 338 ° 1 min 0,000 mm 5,8 UV-I 893 W/m² 4,2 °C 12,7 °C 11,3 km/h (2 Bft)
01.05.2019 12:23 12,7 °C 55 % 1015,8 hPa 0,0 mm 5,0 km/h (1 Bft) O-NO 67 ° 1 min 0,000 mm 5,8 UV-I 898 W/m² 3,9 °C 12,7 °C 8,0 km/h (2 Bft)
01.05.2019 12:24 12,7 °C 51 % 1015,8 hPa 0,0 mm 3,1 km/h (1 Bft) NO 42 ° 1 min 0,000 mm 5,8 UV-I 904 W/m² 2,8 °C 12,7 °C 6,4 km/h (2 Bft)
01.05.2019 12:25 12,5 °C 51 % 1015,8 hPa 0,0 mm 2,1 km/h (1 Bft) O-SO 102 ° 1 min 0,000 mm 5,9 UV-I 909 W/m² 2,6 °C 12,5 °C 4,8 km/h (1 Bft)
01.05.2019 12:26 12,3 °C 52 % 1015,8 hPa 0,0 mm 1,3 km/h (1 Bft) N-NO 32 ° 1 min 0,000 mm 5,9 UV-I 898 W/m² 2,7 °C 12,3 °C 3,2 km/h (1 Bft)
01.05.2019 12:27 12,3 °C 53 % 1015,9 hPa 0,0 mm 5,5 km/h (1 Bft) NO 55 ° 1 min 0,000 mm 5,8 UV-I 884 W/m² 3,0 °C 12,3 °C 8,0 km/h (2 Bft)
01.05.2019 12:28 12,4 °C 54 % 1015,9 hPa 0,0 mm 3,5 km/h (1 Bft) O-NO 76 ° 1 min 0,000 mm 5,8 UV-I 886 W/m² 3,4 °C 12,4 °C 4,8 km/h (1 Bft)
01.05.2019 12:29 12,3 °C 52 % 1015,8 hPa 0,0 mm 2,1 km/h (1 Bft) NO 55 ° 1 min 0,000 mm 5,8 UV-I 865 W/m² 2,7 °C 12,3 °C 6,4 km/h (2 Bft)
01.05.2019 12:30 12,3 °C 56 % 1015,8 hPa 0,0 mm 0,2 km/h (0 Bft) NO 55 ° 1 min 0,000 mm 5,8 UV-I 882 W/m² 3,8 °C 12,3 °C 1,6 km/h (1 Bft)
01.05.2019 12:31 12,3 °C 59 % 1015,8 hPa 0,0 mm 0,0 km/h (0 Bft) NO 55 ° 1 min 0,000 mm 5,8 UV-I 881 W/m² 4,5 °C 12,3 °C 0,0 km/h (0 Bft)
01.05.2019 12:32 12,4 °C 53 % 1015,8 hPa 0,0 mm 2,6 km/h (1 Bft) N-NO 22 ° 1 min 0,000 mm 5,7 UV-I 872 W/m² 3,1 °C 12,4 °C 6,4 km/h (2 Bft)
01.05.2019 12:33 12,6 °C 55 % 1015,8 hPa 0,0 mm 9,3 km/h (2 Bft) NO 42 ° 1 min 0,000 mm 5,7 UV-I 865 W/m² 3,8 °C 12,6 °C 12,9 km/h (3 Bft)
01.05.2019 12:34 12,8 °C 53 % 1015,8 hPa 0,0 mm 8,2 km/h (2 Bft) N 355 ° 1 min 0,000 mm 5,8 UV-I 875 W/m² 3,5 °C 12,8 °C 12,9 km/h (3 Bft)
01.05.2019 12:35 12,9 °C 52 % 1015,8 hPa 0,0 mm 7,6 km/h (2 Bft) O-NO 62 ° 1 min 0,000 mm 5,8 UV-I 877 W/m² 3,3 °C 12,9 °C 11,3 km/h (2 Bft)
01.05.2019 12:36 12,8 °C 48 % 1015,8 hPa 0,0 mm 6,6 km/h (2 Bft) NO 54 ° 1 min 0,000 mm 5,8 UV-I 879 W/m² 2,1 °C 12,8 °C 8,0 km/h (2 Bft)
01.05.2019 12:37 12,7 °C 49 % 1015,8 hPa 0,0 mm 1,8 km/h (1 Bft) NO 47 ° 1 min 0,000 mm 5,9 UV-I 879 W/m² 2,3 °C 12,7 °C 4,8 km/h (1 Bft)
01.05.2019 12:38 12,6 °C 52 % 1015,7 hPa 0,0 mm 0,6 km/h (0 Bft) NO 47 ° 1 min 0,000 mm 5,8 UV-I 882 W/m² 3,0 °C 12,6 °C 1,6 km/h (1 Bft)
01.05.2019 12:39 12,6 °C 52 % 1015,7 hPa 0,0 mm 4,9 km/h (1 Bft) NO 54 ° 1 min 0,000 mm 5,8 UV-I 881 W/m² 3,0 °C 12,6 °C 12,9 km/h (3 Bft)
01.05.2019 12:40 12,8 °C 51 % 1015,7 hPa 0,0 mm 9,1 km/h (2 Bft) N-NO 14 ° 1 min 0,000 mm 5,9 UV-I 877 W/m² 2,9 °C 12,8 °C 16,1 km/h (3 Bft)
01.05.2019 12:41 12,8 °C 48 % 1015,7 hPa 0,0 mm 4,8 km/h (1 Bft) N-NO 23 ° 1 min 0,000 mm 5,9 UV-I 881 W/m² 2,1 °C 12,8 °C 12,9 km/h (3 Bft)
01.05.2019 12:42 12,8 °C 47 % 1015,7 hPa 0,0 mm 7,1 km/h (2 Bft) N-NO 13 ° 1 min 0,000 mm 5,8 UV-I 882 W/m² 1,8 °C 12,8 °C 11,3 km/h (2 Bft)
01.05.2019 12:43 12,9 °C 46 % 1015,7 hPa 0,0 mm 4,2 km/h (1 Bft) NO 38 ° 1 min 0,000 mm 5,8 UV-I 877 W/m² 1,6 °C 12,9 °C 6,4 km/h (2 Bft)
01.05.2019 12:44 12,9 °C 47 % 1015,7 hPa 0,0 mm 4,4 km/h (1 Bft) NO 55 ° 1 min 0,000 mm 5,8 UV-I 881 W/m² 1,9 °C 12,9 °C 6,4 km/h (2 Bft)
01.05.2019 12:45 12,8 °C 49 % 1015,7 hPa 0,0 mm 1,7 km/h (1 Bft) NO 55 ° 1 min 0,000 mm 5,9 UV-I 882 W/m² 2,4 °C 12,8 °C 3,2 km/h (1 Bft)
01.05.2019 12:46 12,7 °C 49 % 1015,7 hPa 0,0 mm 1,3 km/h (1 Bft) NO 55 ° 1 min 0,000 mm 5,9 UV-I 884 W/m² 2,3 °C 12,7 °C 1,6 km/h (1 Bft)
01.05.2019 12:47 12,7 °C 53 % 1015,7 hPa 0,0 mm 2,3 km/h (1 Bft) N 355 ° 1 min 0,000 mm 5,9 UV-I 886 W/m² 3,4 °C 12,7 °C 4,8 km/h (1 Bft)
01.05.2019 12:48 12,9 °C 53 % 1015,7 hPa 0,0 mm 4,4 km/h (1 Bft) N-NO 28 ° 1 min 0,000 mm 5,8 UV-I 881 W/m² 3,6 °C 12,9 °C 6,4 km/h (2 Bft)
01.05.2019 12:49 13,1 °C 51 % 1015,6 hPa 0,0 mm 2,9 km/h (1 Bft) NO 38 ° 1 min 0,000 mm 5,9 UV-I 882 W/m² 3,2 °C 13,1 °C 6,4 km/h (2 Bft)
01.05.2019 12:50 13,1 °C 46 % 1015,6 hPa 0,0 mm 5,7 km/h (1 Bft) N 10 ° 1 min 0,000 mm 5,9 UV-I 877 W/m² 1,7 °C 13,1 °C 8,0 km/h (2 Bft)
01.05.2019 12:51 13,1 °C 47 % 1015,6 hPa 0,0 mm 4,4 km/h (1 Bft) NO 45 ° 1 min 0,000 mm 5,9 UV-I 879 W/m² 2,0 °C 13,1 °C 6,4 km/h (2 Bft)
01.05.2019 12:52 12,9 °C 44 % 1015,6 hPa 0,0 mm 2,7 km/h (1 Bft) N 350 ° 1 min 0,000 mm 5,9 UV-I 877 W/m² 1,0 °C 12,9 °C 4,8 km/h (1 Bft)
01.05.2019 12:53 12,8 °C 47 % 1015,6 hPa 0,0 mm 0,3 km/h (0 Bft) N 350 ° 1 min 0,000 mm 5,8 UV-I 879 W/m² 1,8 °C 12,8 °C 3,2 km/h (1 Bft)
01.05.2019 12:54 12,8 °C 45 % 1015,6 hPa 0,0 mm 4,4 km/h (1 Bft) N-NW 337 ° 1 min 0,000 mm 5,9 UV-I 879 W/m² 1,2 °C 12,8 °C 8,0 km/h (2 Bft)
01.05.2019 12:55 12,9 °C 48 % 1015,5 hPa 0,0 mm 4,3 km/h (1 Bft) N 350 ° 1 min 0,000 mm 5,9 UV-I 881 W/m² 2,2 °C 12,9 °C 6,4 km/h (2 Bft)
01.05.2019 12:56 13,1 °C 51 % 1015,6 hPa 0,0 mm 5,1 km/h (1 Bft) N-NO 15 ° 1 min 0,000 mm 5,9 UV-I 882 W/m² 3,2 °C 13,1 °C 8,0 km/h (2 Bft)
01.05.2019 12:57 13,2 °C 51 % 1015,6 hPa 0,0 mm 4,4 km/h (1 Bft) N 360 ° 1 min 0,000 mm 5,9 UV-I 886 W/m² 3,3 °C 13,2 °C 6,4 km/h (2 Bft)
01.05.2019 12:58 13,4 °C 51 % 1015,5 hPa 0,0 mm 10,9 km/h (2 Bft) N-NO 24 ° 1 min 0,000 mm 5,9 UV-I 886 W/m² 3,5 °C 13,4 °C 14,5 km/h (3 Bft)
01.05.2019 12:59 13,4 °C 46 % 1015,5 hPa 0,0 mm 7,8 km/h (2 Bft) NO 46 ° 1 min 0,000 mm 6,0 UV-I 889 W/m² 2,0 °C 13,4 °C 12,9 km/h (3 Bft)
01.05.2019 13:00 13,3 °C 47 % 1015,5 hPa 0,0 mm 9,3 km/h (2 Bft) O-NO 60 ° 1 min 0,000 mm 6,0 UV-I 891 W/m² 2,2 °C 13,3 °C 12,9 km/h (3 Bft)
01.05.2019 13:01 13,1 °C 46 % 1015,6 hPa 0,0 mm 4,9 km/h (1 Bft) N 9 ° 1 min 0,457 mm 6,0 UV-I 889 W/m² 1,7 °C 13,1 °C 8,0 km/h (2 Bft)
01.05.2019 13:02 13,1 °C 51 % 1015,6 hPa 0,0 mm 3,0 km/h (1 Bft) N-NO 26 ° 1 min 0,000 mm 6,0 UV-I 891 W/m² 3,2 °C 13,1 °C 8,0 km/h (2 Bft)
01.05.2019 13:03 13,2 °C 48 % 1015,6 hPa 0,0 mm 7,2 km/h (2 Bft) N-NO 19 ° 1 min 0,000 mm 6,0 UV-I 891 W/m² 2,4 °C 13,2 °C 11,3 km/h (2 Bft)
01.05.2019 13:04 13,4 °C 49 % 1015,5 hPa 0,0 mm 7,5 km/h (2 Bft) N-NO 26 ° 1 min 0,000 mm 6,0 UV-I 891 W/m² 2,9 °C 13,4 °C 12,9 km/h (3 Bft)
01.05.2019 13:05 13,4 °C 45 % 1015,6 hPa 0,0 mm 7,6 km/h (2 Bft) N 5 ° 1 min 0,000 mm 6,0 UV-I 889 W/m² 1,7 °C 13,4 °C 14,5 km/h (3 Bft)
01.05.2019 13:06 13,3 °C 44 % 1015,6 hPa 0,0 mm 2,5 km/h (1 Bft) O-NO 59 ° 1 min 0,000 mm 5,9 UV-I 888 W/m² 1,3 °C 13,3 °C 4,8 km/h (1 Bft)
01.05.2019 13:07 13,3 °C 46 % 1015,5 hPa 0,0 mm 3,9 km/h (1 Bft) O 83 ° 1 min 0,000 mm 5,9 UV-I 888 W/m² 1,9 °C 13,3 °C 4,8 km/h (1 Bft)
01.05.2019 13:08 13,2 °C 45 % 1015,5 hPa 0,0 mm 7,0 km/h (2 Bft) SO 128 ° 1 min 0,000 mm 5,9 UV-I 884 W/m² 1,5 °C 13,2 °C 11,3 km/h (2 Bft)
01.05.2019 13:09 13,0 °C 45 % 1015,5 hPa 0,0 mm 3,4 km/h (1 Bft) SO 134 ° 1 min 0,000 mm 5,9 UV-I 884 W/m² 1,4 °C 13,0 °C 6,4 km/h (2 Bft)
01.05.2019 13:10 12,8 °C 45 % 1015,5 hPa 0,0 mm 7,3 km/h (2 Bft) O-NO 72 ° 1 min 0,000 mm 5,9 UV-I 884 W/m² 1,2 °C 12,8 °C 12,9 km/h (3 Bft)
01.05.2019 13:11 12,7 °C 46 % 1015,4 hPa 0,0 mm 4,4 km/h (1 Bft) O 100 ° 1 min 0,000 mm 5,9 UV-I 884 W/m² 1,4 °C 12,7 °C 12,9 km/h (3 Bft)
01.05.2019 13:12 12,7 °C 52 % 1015,5 hPa 0,0 mm 2,0 km/h (1 Bft) N-NO 24 ° 1 min 0,000 mm 5,9 UV-I 886 W/m² 3,1 °C 12,7 °C 4,8 km/h (1 Bft)
01.05.2019 13:13 12,8 °C 48 % 1015,4 hPa 0,0 mm 2,1 km/h (1 Bft) NO 56 ° 1 min 0,000 mm 5,9 UV-I 886 W/m² 2,1 °C 12,8 °C 6,4 km/h (2 Bft)
01.05.2019 13:14 12,8 °C 44 % 1015,4 hPa 0,0 mm 3,6 km/h (1 Bft) O 93 ° 1 min 0,000 mm 5,9 UV-I 886 W/m² 0,9 °C 12,8 °C 6,4 km/h (2 Bft)
01.05.2019 13:15 12,8 °C 45 % 1015,4 hPa 0,0 mm 1,2 km/h (1 Bft) O 93 ° 1 min 0,000 mm 5,9 UV-I 886 W/m² 1,2 °C 12,8 °C 3,2 km/h (1 Bft)
01.05.2019 13:16 12,8 °C 45 % 1015,4 hPa 0,0 mm 1,7 km/h (1 Bft) SO 130 ° 1 min 0,000 mm 5,9 UV-I 875 W/m² 1,2 °C 12,8 °C 4,8 km/h (1 Bft)
01.05.2019 13:17 12,8 °C 49 % 1015,4 hPa 0,0 mm 5,6 km/h (1 Bft) N-NO 28 ° 1 min 0,000 mm 5,8 UV-I 872 W/m² 2,4 °C 12,8 °C 8,0 km/h (2 Bft)
01.05.2019 13:18 13,1 °C 45 % 1015,4 hPa 0,0 mm 6,0 km/h (2 Bft) N 360 ° 1 min 0,000 mm 6,0 UV-I 889 W/m² 1,4 °C 13,1 °C 9,7 km/h (2 Bft)
01.05.2019 13:19 13,2 °C 49 % 1015,3 hPa 0,0 mm 7,4 km/h (2 Bft) O 92 ° 1 min 0,000 mm 6,0 UV-I 891 W/m² 2,7 °C 13,2 °C 12,9 km/h (3 Bft)
01.05.2019 13:20 13,4 °C 46 % 1015,3 hPa 0,0 mm 6,8 km/h (2 Bft) O 81 ° 1 min 0,000 mm 6,0 UV-I 891 W/m² 2,0 °C 13,4 °C 11,3 km/h (2 Bft)
01.05.2019 13:21 13,4 °C 43 % 1015,4 hPa 0,0 mm 7,2 km/h (2 Bft) NO 39 ° 1 min 0,000 mm 6,0 UV-I 893 W/m² 1,1 °C 13,4 °C 9,7 km/h (2 Bft)
01.05.2019 13:22 13,4 °C 43 % 1015,3 hPa 0,0 mm 8,0 km/h (2 Bft) NO 41 ° 1 min 0,000 mm 6,0 UV-I 893 W/m² 1,1 °C 13,4 °C 11,3 km/h (2 Bft)
01.05.2019 13:23 13,4 °C 44 % 1015,3 hPa 0,0 mm 5,8 km/h (2 Bft) O-NO 71 ° 1 min 0,000 mm 6,0 UV-I 893 W/m² 1,4 °C 13,4 °C 9,7 km/h (2 Bft)
01.05.2019 13:24 13,4 °C 44 % 1015,3 hPa 0,0 mm 6,2 km/h (2 Bft) O 91 ° 1 min 0,000 mm 5,9 UV-I 886 W/m² 1,4 °C 13,4 °C 11,3 km/h (2 Bft)
01.05.2019 13:25 13,4 °C 41 % 1015,4 hPa 0,0 mm 7,4 km/h (2 Bft) N-NO 26 ° 1 min 0,000 mm 5,9 UV-I 870 W/m² 0,4 °C 13,4 °C 9,7 km/h (2 Bft)
01.05.2019 13:26 13,4 °C 41 % 1015,3 hPa 0,0 mm 5,9 km/h (2 Bft) O-NO 63 ° 1 min 0,000 mm 5,9 UV-I 875 W/m² 0,4 °C 13,4 °C 12,9 km/h (3 Bft)
01.05.2019 13:27 13,2 °C 42 % 1015,3 hPa 0,0 mm 0,6 km/h (0 Bft) O-NO 59 ° 1 min 0,000 mm 6,0 UV-I 879 W/m² 0,6 °C 13,2 °C 3,2 km/h (1 Bft)
01.05.2019 13:28 13,3 °C 45 % 1015,4 hPa 0,0 mm 2,3 km/h (1 Bft) SO 126 ° 1 min 0,000 mm 5,9 UV-I 889 W/m² 1,6 °C 13,3 °C 4,8 km/h (1 Bft)
01.05.2019 13:29 13,3 °C 43 % 1015,3 hPa 0,0 mm 3,3 km/h (1 Bft) S-SW 209 ° 1 min 0,000 mm 5,9 UV-I 889 W/m² 1,0 °C 13,3 °C 6,4 km/h (2 Bft)
01.05.2019 13:30 13,3 °C 41 % 1015,3 hPa 0,0 mm 4,5 km/h (1 Bft) W 261 ° 1 min 0,000 mm 5,9 UV-I 888 W/m² 0,3 °C 13,3 °C 6,4 km/h (2 Bft)
01.05.2019 13:31 13,3 °C 45 % 1015,3 hPa 0,0 mm 3,0 km/h (1 Bft) W 279 ° 1 min 0,000 mm 5,9 UV-I 888 W/m² 1,6 °C 13,3 °C 4,8 km/h (1 Bft)
01.05.2019 13:32 13,3 °C 45 % 1015,2 hPa 0,0 mm 0,3 km/h (0 Bft) S 180 ° 1 min 0,000 mm 5,9 UV-I 888 W/m² 1,6 °C 13,3 °C 1,6 km/h (1 Bft)
01.05.2019 13:33 13,2 °C 42 % 1015,3 hPa 0,0 mm 0,9 km/h (0 Bft) S 173 ° 0 min 0,000 mm 5,9 UV-I 598 W/m² 0,6 °C 13,2 °C 3,2 km/h (1 Bft)
01.05.2019 13:34 13,1 °C 46 % 1015,2 hPa 0,0 mm 2,5 km/h (1 Bft) O 86 ° 0 min 0,000 mm 5,9 UV-I 598 W/m² 1,7 °C 13,1 °C 6,4 km/h (2 Bft)
01.05.2019 13:35 13,2 °C 45 % 1015,3 hPa 0,0 mm 3,1 km/h (1 Bft) N-NW 328 ° 1 min 0,000 mm 6,0 UV-I 884 W/m² 1,5 °C 13,2 °C 6,4 km/h (2 Bft)
01.05.2019 13:36 13,6 °C 48 % 1015,2 hPa 0,0 mm 4,1 km/h (1 Bft) N-NO 28 ° 1 min 0,000 mm 6,0 UV-I 886 W/m² 2,8 °C 13,6 °C 6,4 km/h (2 Bft)
01.05.2019 13:37 13,7 °C 51 % 1015,3 hPa 0,0 mm 4,6 km/h (1 Bft) O-NO 61 ° 1 min 0,000 mm 6,0 UV-I 886 W/m² 3,8 °C 13,7 °C 6,4 km/h (2 Bft)
01.05.2019 13:38 13,7 °C 43 % 1015,2 hPa 0,0 mm 3,4 km/h (1 Bft) N 11 ° 1 min 0,000 mm 6,0 UV-I 886 W/m² 1,4 °C 13,7 °C 6,4 km/h (2 Bft)
01.05.2019 13:39 13,8 °C 47 % 1015,2 hPa 0,0 mm 5,1 km/h (1 Bft) NO 39 ° 1 min 0,000 mm 6,0 UV-I 884 W/m² 2,7 °C 13,8 °C 8,0 km/h (2 Bft)
01.05.2019 13:40 13,8 °C 43 % 1015,3 hPa 0,0 mm 5,8 km/h (2 Bft) NO 45 ° 1 min 0,000 mm 6,0 UV-I 882 W/m² 1,4 °C 13,8 °C 8,0 km/h (2 Bft)
01.05.2019 13:41 13,8 °C 44 % 1015,2 hPa 0,0 mm 3,9 km/h (1 Bft) N 355 ° 1 min 0,000 mm 6,0 UV-I 884 W/m² 1,8 °C 13,8 °C 8,0 km/h (2 Bft)
01.05.2019 13:42 13,8 °C 47 % 1015,2 hPa 0,0 mm 6,0 km/h (2 Bft) N 355 ° 1 min 0,000 mm 5,9 UV-I 879 W/m² 2,7 °C 13,8 °C 8,0 km/h (2 Bft)
01.05.2019 13:43 14,1 °C 46 % 1015,2 hPa 0,0 mm 6,5 km/h (2 Bft) N 360 ° 1 min 0,000 mm 5,9 UV-I 881 W/m² 2,7 °C 14,1 °C 11,3 km/h (2 Bft)
01.05.2019 13:44 14,1 °C 45 % 1015,2 hPa 0,0 mm 6,1 km/h (2 Bft) N-NO 27 ° 1 min 0,000 mm 5,9 UV-I 879 W/m² 2,4 °C 14,1 °C 8,0 km/h (2 Bft)
01.05.2019 13:45 14,1 °C 42 % 1015,2 hPa 0,0 mm 4,4 km/h (1 Bft) NW 321 ° 1 min 0,000 mm 5,9 UV-I 881 W/m² 1,4 °C 14,1 °C 8,0 km/h (2 Bft)
01.05.2019 13:46 13,8 °C 42 % 1015,2 hPa 0,0 mm 4,0 km/h (1 Bft) N-NW 344 ° 1 min 0,000 mm 5,9 UV-I 879 W/m² 1,1 °C 13,8 °C 8,0 km/h (2 Bft)
01.05.2019 13:47 13,8 °C 45 % 1015,2 hPa 0,0 mm 6,3 km/h (2 Bft) N-NW 335 ° 1 min 0,000 mm 5,9 UV-I 879 W/m² 2,1 °C 13,8 °C 11,3 km/h (2 Bft)
01.05.2019 13:48 13,8 °C 47 % 1015,2 hPa 0,0 mm 6,1 km/h (2 Bft) N 5 ° 1 min 0,000 mm 5,9 UV-I 879 W/m² 2,7 °C 13,8 °C 11,3 km/h (2 Bft)
01.05.2019 13:49 14,0 °C 46 % 1015,2 hPa 0,0 mm 8,1 km/h (2 Bft) N 360 ° 1 min 0,000 mm 5,9 UV-I 879 W/m² 2,6 °C 14,0 °C 14,5 km/h (3 Bft)
01.05.2019 13:50 14,1 °C 43 % 1015,2 hPa 0,0 mm 11,5 km/h (2 Bft) N 355 ° 1 min 0,000 mm 5,9 UV-I 879 W/m² 1,7 °C 14,1 °C 16,1 km/h (3 Bft)
01.05.2019 13:51 14,1 °C 44 % 1015,2 hPa 0,0 mm 11,0 km/h (2 Bft) N-NO 21 ° 1 min 0,000 mm 5,9 UV-I 877 W/m² 2,0 °C 14,1 °C 16,1 km/h (3 Bft)
01.05.2019 13:52 14,1 °C 44 % 1015,2 hPa 0,0 mm 8,5 km/h (2 Bft) N 355 ° 1 min 0,000 mm 5,9 UV-I 872 W/m² 2,0 °C 14,1 °C 12,9 km/h (3 Bft)
01.05.2019 13:53 14,1 °C 45 % 1015,2 hPa 0,0 mm 8,3 km/h (2 Bft) NW 311 ° 1 min 0,000 mm 5,9 UV-I 877 W/m² 2,4 °C 14,1 °C 12,9 km/h (3 Bft)
01.05.2019 13:54 14,0 °C 44 % 1015,2 hPa 0,0 mm 6,2 km/h (2 Bft) N-NO 13 ° 1 min 0,000 mm 5,9 UV-I 877 W/m² 1,9 °C 14,0 °C 9,7 km/h (2 Bft)
01.05.2019 13:55 13,9 °C 44 % 1015,2 hPa 0,0 mm 6,8 km/h (2 Bft) N-NW 338 ° 1 min 0,000 mm 5,8 UV-I 877 W/m² 1,9 °C 13,9 °C 9,7 km/h (2 Bft)
01.05.2019 13:56 13,9 °C 45 % 1015,3 hPa 0,0 mm 4,4 km/h (1 Bft) NW 322 ° 1 min 0,000 mm 5,8 UV-I 872 W/m² 2,2 °C 13,9 °C 6,4 km/h (2 Bft)
01.05.2019 13:57 13,8 °C 42 % 1015,2 hPa 0,0 mm 2,7 km/h (1 Bft) W-NW 302 ° 1 min 0,000 mm 5,9 UV-I 877 W/m² 1,1 °C 13,8 °C 6,4 km/h (2 Bft)
01.05.2019 13:58 13,8 °C 45 % 1015,2 hPa 0,0 mm 5,5 km/h (1 Bft) NW 323 ° 1 min 0,000 mm 5,8 UV-I 874 W/m² 2,1 °C 13,8 °C 11,3 km/h (2 Bft)
01.05.2019 13:59 13,9 °C 47 % 1015,2 hPa 0,0 mm 6,1 km/h (2 Bft) N 9 ° 1 min 0,000 mm 5,8 UV-I 874 W/m² 2,8 °C 13,9 °C 11,3 km/h (2 Bft)
01.05.2019 14:00 14,0 °C 42 % 1015,2 hPa 0,0 mm 5,7 km/h (1 Bft) O 89 ° 1 min 0,000 mm 5,8 UV-I 872 W/m² 1,3 °C 14,0 °C 9,7 km/h (2 Bft)
01.05.2019 14:01 14,1 °C 44 % 1015,2 hPa 0,0 mm 7,4 km/h (2 Bft) W-NW 303 ° 1 min 0,458 mm 5,9 UV-I 872 W/m² 2,0 °C 14,1 °C 12,9 km/h (3 Bft)
01.05.2019 14:02 14,1 °C 46 % 1015,2 hPa 0,0 mm 6,1 km/h (2 Bft) N-NW 340 ° 1 min 0,000 mm 5,9 UV-I 870 W/m² 2,7 °C 14,1 °C 11,3 km/h (2 Bft)
01.05.2019 14:03 14,2 °C 48 % 1015,2 hPa 0,0 mm 10,7 km/h (2 Bft) N 355 ° 1 min 0,000 mm 5,8 UV-I 870 W/m² 3,4 °C 14,2 °C 19,3 km/h (3 Bft)
01.05.2019 14:04 14,1 °C 44 % 1015,2 hPa 0,0 mm 3,3 km/h (1 Bft) NW 317 ° 1 min 0,000 mm 5,8 UV-I 870 W/m² 2,0 °C 14,1 °C 9,7 km/h (2 Bft)
01.05.2019 14:05 13,9 °C 41 % 1015,2 hPa 0,0 mm 3,2 km/h (1 Bft) N-NW 327 ° 1 min 0,000 mm 5,8 UV-I 865 W/m² 0,9 °C 13,9 °C 6,4 km/h (2 Bft)
01.05.2019 14:06 13,8 °C 41 % 1015,1 hPa 0,0 mm 3,7 km/h (1 Bft) N-NO 22 ° 1 min 0,000 mm 5,8 UV-I 865 W/m² 0,8 °C 13,8 °C 6,4 km/h (2 Bft)
01.05.2019 14:07 13,9 °C 44 % 1015,1 hPa 0,0 mm 2,2 km/h (1 Bft) N 360 ° 1 min 0,000 mm 5,7 UV-I 865 W/m² 1,9 °C 13,9 °C 4,8 km/h (1 Bft)
01.05.2019 14:08 14,0 °C 48 % 1015,2 hPa 0,0 mm 4,8 km/h (1 Bft) N-NO 15 ° 1 min 0,000 mm 5,8 UV-I 863 W/m² 3,2 °C 14,0 °C 8,0 km/h (2 Bft)
01.05.2019 14:09 14,2 °C 50 % 1015,1 hPa 0,0 mm 3,8 km/h (1 Bft) N 355 ° 1 min 0,000 mm 5,7 UV-I 861 W/m² 3,9 °C 14,2 °C 4,8 km/h (1 Bft)
01.05.2019 14:10 14,2 °C 46 % 1015,1 hPa 0,0 mm 3,6 km/h (1 Bft) N-NW 342 ° 1 min 0,000 mm 5,8 UV-I 861 W/m² 2,8 °C 14,2 °C 4,8 km/h (1 Bft)
01.05.2019 14:11 14,3 °C 50 % 1015,1 hPa 0,0 mm 6,6 km/h (2 Bft) N-NO 13 ° 1 min 0,000 mm 5,8 UV-I 861 W/m² 4,0 °C 14,3 °C 12,9 km/h (3 Bft)
01.05.2019 14:12 14,2 °C 41 % 1015,1 hPa 0,0 mm 3,2 km/h (1 Bft) N-NW 343 ° 1 min 0,000 mm 5,7 UV-I 856 W/m² 1,1 °C 14,2 °C 6,4 km/h (2 Bft)
01.05.2019 14:13 14,1 °C 43 % 1015,1 hPa 0,0 mm 2,3 km/h (1 Bft) NW 325 ° 1 min 0,000 mm 5,8 UV-I 856 W/m² 1,7 °C 14,1 °C 4,8 km/h (1 Bft)
01.05.2019 14:14 14,1 °C 44 % 1015,1 hPa 0,0 mm 4,2 km/h (1 Bft) N-NW 347 ° 1 min 0,000 mm 5,7 UV-I 858 W/m² 2,0 °C 14,1 °C 8,0 km/h (2 Bft)
01.05.2019 14:15 14,2 °C 47 % 1015,1 hPa 0,0 mm 7,0 km/h (2 Bft) N-NW 339 ° 1 min 0,000 mm 5,8 UV-I 858 W/m² 3,1 °C 14,2 °C 11,3 km/h (2 Bft)
01.05.2019 14:16 14,3 °C 42 % 1015,1 hPa 0,0 mm 6,6 km/h (2 Bft) NO 36 ° 1 min 0,000 mm 5,8 UV-I 856 W/m² 1,6 °C 14,3 °C 12,9 km/h (3 Bft)
01.05.2019 14:17 14,3 °C 45 % 1015,1 hPa 0,0 mm 3,7 km/h (1 Bft) W-NW 300 ° 1 min 0,000 mm 5,7 UV-I 858 W/m² 2,5 °C 14,3 °C 8,0 km/h (2 Bft)
01.05.2019 14:18 14,3 °C 45 % 1015,1 hPa 0,0 mm 6,6 km/h (2 Bft) N 355 ° 1 min 0,000 mm 5,7 UV-I 856 W/m² 2,5 °C 14,3 °C 8,0 km/h (2 Bft)
01.05.2019 14:19 14,3 °C 42 % 1015,0 hPa 0,0 mm 5,7 km/h (1 Bft) W-NW 299 ° 1 min 0,000 mm 5,7 UV-I 853 W/m² 1,6 °C 14,3 °C 9,7 km/h (2 Bft)
01.05.2019 14:20 14,4 °C 43 % 1015,1 hPa 0,0 mm 4,8 km/h (1 Bft) W-NW 289 ° 1 min 0,000 mm 5,7 UV-I 854 W/m² 2,0 °C 14,4 °C 6,4 km/h (2 Bft)
01.05.2019 14:21 14,3 °C 41 % 1015,1 hPa 0,0 mm 7,8 km/h (2 Bft) NW 314 ° 1 min 0,000 mm 5,8 UV-I 856 W/m² 1,2 °C 14,3 °C 11,3 km/h (2 Bft)
01.05.2019 14:22 14,3 °C 43 % 1015,1 hPa 0,0 mm 7,6 km/h (2 Bft) N-NW 341 ° 1 min 0,000 mm 5,8 UV-I 854 W/m² 1,9 °C 14,3 °C 12,9 km/h (3 Bft)
01.05.2019 14:23 14,4 °C 43 % 1015,1 hPa 0,0 mm 9,6 km/h (2 Bft) NW 326 ° 1 min 0,000 mm 5,7 UV-I 853 W/m² 2,0 °C 14,4 °C 14,5 km/h (3 Bft)
01.05.2019 14:24 14,4 °C 43 % 1015,0 hPa 0,0 mm 5,4 km/h (1 Bft) N-NO 28 ° 1 min 0,000 mm 5,7 UV-I 851 W/m² 2,0 °C 14,4 °C 9,7 km/h (2 Bft)
01.05.2019 14:25 14,4 °C 44 % 1015,0 hPa 0,0 mm 8,9 km/h (2 Bft) NO 40 ° 1 min 0,000 mm 5,7 UV-I 851 W/m² 2,3 °C 14,4 °C 14,5 km/h (3 Bft)
01.05.2019 14:26 14,4 °C 43 % 1015,1 hPa 0,0 mm 9,7 km/h (2 Bft) N-NO 25 ° 1 min 0,000 mm 5,7 UV-I 847 W/m² 2,0 °C 14,4 °C 17,7 km/h (3 Bft)
01.05.2019 14:27 14,4 °C 42 % 1015,1 hPa 0,0 mm 7,0 km/h (2 Bft) N 11 ° 1 min 0,000 mm 5,7 UV-I 847 W/m² 1,7 °C 14,4 °C 9,7 km/h (2 Bft)
01.05.2019 14:28 14,3 °C 42 % 1015,0 hPa 0,0 mm 7,4 km/h (2 Bft) N-NO 26 ° 1 min 0,000 mm 5,7 UV-I 847 W/m² 1,6 °C 14,3 °C 12,9 km/h (3 Bft)
01.05.2019 14:29 14,3 °C 43 % 1015,0 hPa 0,0 mm 8,9 km/h (2 Bft) NW 317 ° 1 min 0,000 mm 5,6 UV-I 846 W/m² 1,9 °C 14,3 °C 14,5 km/h (3 Bft)
01.05.2019 14:30 14,3 °C 42 % 1015,0 hPa 0,0 mm 11,0 km/h (2 Bft) N 355 ° 1 min 0,000 mm 5,6 UV-I 842 W/m² 1,6 °C 14,3 °C 14,5 km/h (3 Bft)
01.05.2019 14:31 14,2 °C 43 % 1015,0 hPa 0,0 mm 9,9 km/h (2 Bft) NW 317 ° 1 min 0,000 mm 5,6 UV-I 840 W/m² 1,8 °C 14,2 °C 14,5 km/h (3 Bft)
01.05.2019 14:32 14,2 °C 43 % 1015,0 hPa 0,0 mm 8,8 km/h (2 Bft) NW 318 ° 1 min 0,000 mm 5,6 UV-I 842 W/m² 1,8 °C 14,2 °C 16,1 km/h (3 Bft)
01.05.2019 14:33 14,2 °C 45 % 1015,0 hPa 0,0 mm 6,9 km/h (2 Bft) N-NW 348 ° 1 min 0,000 mm 5,5 UV-I 840 W/m² 2,4 °C 14,2 °C 11,3 km/h (2 Bft)
01.05.2019 14:34 14,2 °C 46 % 1015,0 hPa 0,0 mm 7,0 km/h (2 Bft) N 360 ° 1 min 0,000 mm 5,5 UV-I 838 W/m² 2,8 °C 14,2 °C 12,9 km/h (3 Bft)
01.05.2019 14:35 14,4 °C 50 % 1014,9 hPa 0,0 mm 12,7 km/h (3 Bft) N 355 ° 1 min 0,000 mm 5,5 UV-I 837 W/m² 4,1 °C 14,4 °C 14,5 km/h (3 Bft)
01.05.2019 14:36 14,7 °C 46 % 1014,9 hPa 0,0 mm 7,8 km/h (2 Bft) N-NO 27 ° 1 min 0,000 mm 5,5 UV-I 835 W/m² 3,2 °C 14,7 °C 14,5 km/h (3 Bft)
01.05.2019 14:37 14,8 °C 43 % 1015,0 hPa 0,0 mm 9,9 km/h (2 Bft) N-NO 28 ° 1 min 0,000 mm 5,5 UV-I 837 W/m² 2,3 °C 14,8 °C 14,5 km/h (3 Bft)
01.05.2019 14:38 14,8 °C 40 % 1015,0 hPa 0,0 mm 7,0 km/h (2 Bft) N 360 ° 1 min 0,000 mm 5,5 UV-I 833 W/m² 1,3 °C 14,8 °C 9,7 km/h (2 Bft)
01.05.2019 14:39 14,7 °C 46 % 1015,0 hPa 0,0 mm 3,0 km/h (1 Bft) N-NO 15 ° 1 min 0,000 mm 5,5 UV-I 831 W/m² 3,2 °C 14,7 °C 6,4 km/h (2 Bft)
01.05.2019 14:40 14,7 °C 41 % 1014,9 hPa 0,0 mm 5,0 km/h (1 Bft) NO 36 ° 1 min 0,000 mm 5,4 UV-I 831 W/m² 1,6 °C 14,7 °C 8,0 km/h (2 Bft)
01.05.2019 14:41 14,6 °C 41 % 1014,9 hPa 0,0 mm 4,6 km/h (1 Bft) N 11 ° 1 min 0,000 mm 5,5 UV-I 828 W/m² 1,5 °C 14,6 °C 6,4 km/h (2 Bft)
01.05.2019 14:42 14,4 °C 46 % 1014,9 hPa 0,0 mm 4,7 km/h (1 Bft) NW 304 ° 1 min 0,000 mm 5,4 UV-I 828 W/m² 2,9 °C 14,4 °C 8,0 km/h (2 Bft)
01.05.2019 14:43 14,4 °C 46 % 1014,9 hPa 0,0 mm 13,9 km/h (3 Bft) N 11 ° 1 min 0,000 mm 5,4 UV-I 828 W/m² 2,9 °C 14,4 °C 19,3 km/h (3 Bft)
01.05.2019 14:44 14,6 °C 43 % 1014,9 hPa 0,0 mm 10,0 km/h (2 Bft) N-NO 22 ° 1 min 0,000 mm 5,4 UV-I 828 W/m² 2,2 °C 14,6 °C 16,1 km/h (3 Bft)
01.05.2019 14:45 14,6 °C 42 % 1014,9 hPa 0,0 mm 9,3 km/h (2 Bft) N-NO 24 ° 1 min 0,000 mm 5,4 UV-I 826 W/m² 1,8 °C 14,6 °C 14,5 km/h (3 Bft)
01.05.2019 14:46 14,4 °C 41 % 1014,9 hPa 0,0 mm 5,5 km/h (1 Bft) N 360 ° 1 min 0,000 mm 5,4 UV-I 823 W/m² 1,3 °C 14,4 °C 12,9 km/h (3 Bft)
01.05.2019 14:47 14,4 °C 47 % 1014,9 hPa 0,0 mm 4,9 km/h (1 Bft) NW 319 ° 1 min 0,000 mm 5,3 UV-I 824 W/m² 3,2 °C 14,4 °C 8,0 km/h (2 Bft)
01.05.2019 14:48 14,4 °C 44 % 1014,9 hPa 0,0 mm 1,7 km/h (1 Bft) N-NW 332 ° 1 min 0,000 mm 5,3 UV-I 819 W/m² 2,3 °C 14,4 °C 4,8 km/h (1 Bft)
01.05.2019 14:49 14,5 °C 43 % 1014,9 hPa 0,0 mm 4,8 km/h (1 Bft) N-NW 343 ° 1 min 0,000 mm 5,3 UV-I 819 W/m² 2,1 °C 14,5 °C 8,0 km/h (2 Bft)
01.05.2019 14:50 14,5 °C 44 % 1014,9 hPa 0,0 mm 6,5 km/h (2 Bft) N 360 ° 1 min 0,000 mm 5,3 UV-I 816 W/m² 2,4 °C 14,5 °C 14,5 km/h (3 Bft)
01.05.2019 14:51 14,4 °C 42 % 1014,9 hPa 0,0 mm 3,5 km/h (1 Bft) N-NW 338 ° 1 min 0,000 mm 5,3 UV-I 814 W/m² 1,7 °C 14,4 °C 8,0 km/h (2 Bft)
01.05.2019 14:52 14,3 °C 41 % 1014,8 hPa 0,0 mm 2,2 km/h (1 Bft) N-NW 338 ° 1 min 0,000 mm 5,3 UV-I 816 W/m² 1,2 °C 14,3 °C 3,2 km/h (1 Bft)
01.05.2019 14:53 14,3 °C 42 % 1014,8 hPa 0,0 mm 3,0 km/h (1 Bft) N-NW 335 ° 1 min 0,000 mm 5,3 UV-I 814 W/m² 1,6 °C 14,3 °C 4,8 km/h (1 Bft)
01.05.2019 14:54 14,2 °C 43 % 1014,8 hPa 0,0 mm 2,1 km/h (1 Bft) N-NW 336 ° 1 min 0,000 mm 5,2 UV-I 810 W/m² 1,8 °C 14,2 °C 4,8 km/h (1 Bft)
01.05.2019 14:55 14,2 °C 43 % 1014,8 hPa 0,0 mm 1,9 km/h (1 Bft) NO 39 ° 1 min 0,000 mm 5,2 UV-I 810 W/m² 1,8 °C 14,2 °C 3,2 km/h (1 Bft)
01.05.2019 14:56 14,3 °C 44 % 1014,7 hPa 0,0 mm 6,4 km/h (2 Bft) N-NO 25 ° 1 min 0,000 mm 5,2 UV-I 810 W/m² 2,2 °C 14,3 °C 9,7 km/h (2 Bft)
01.05.2019 14:57 14,5 °C 42 % 1014,8 hPa 0,0 mm 13,0 km/h (3 Bft) O 82 ° 1 min 0,000 mm 5,2 UV-I 809 W/m² 1,7 °C 14,5 °C 20,9 km/h (4 Bft)
01.05.2019 14:58 14,4 °C 43 % 1014,8 hPa 0,0 mm 7,2 km/h (2 Bft) O-NO 65 ° 1 min 0,000 mm 5,2 UV-I 807 W/m² 2,0 °C 14,4 °C 20,9 km/h (4 Bft)
01.05.2019 14:59 14,4 °C 45 % 1014,8 hPa 0,0 mm 10,9 km/h (2 Bft) O 84 ° 1 min 0,000 mm 5,2 UV-I 807 W/m² 2,6 °C 14,4 °C 17,7 km/h (3 Bft)
01.05.2019 15:00 14,4 °C 43 % 1014,8 hPa 0,0 mm 6,0 km/h (2 Bft) N 360 ° 1 min 0,000 mm 5,2 UV-I 805 W/m² 2,0 °C 14,4 °C 9,7 km/h (2 Bft)
01.05.2019 15:01 14,3 °C 43 % 1014,8 hPa 0,0 mm 7,7 km/h (2 Bft) N-NW 333 ° 1 min 0,482 mm 5,2 UV-I 800 W/m² 1,9 °C 14,3 °C 14,5 km/h (3 Bft)
01.05.2019 15:02 14,4 °C 45 % 1014,8 hPa 0,0 mm 7,8 km/h (2 Bft) N 5 ° 1 min 0,000 mm 5,1 UV-I 800 W/m² 2,6 °C 14,4 °C 12,9 km/h (3 Bft)
01.05.2019 15:03 14,6 °C 44 % 1014,8 hPa 0,0 mm 7,1 km/h (2 Bft) N 355 ° 1 min 0,000 mm 5,1 UV-I 798 W/m² 2,5 °C 14,6 °C 12,9 km/h (3 Bft)
01.05.2019 15:04 14,6 °C 43 % 1014,7 hPa 0,0 mm 6,1 km/h (2 Bft) N 351 ° 1 min 0,000 mm 5,1 UV-I 796 W/m² 2,2 °C 14,6 °C 12,9 km/h (3 Bft)
01.05.2019 15:05 14,6 °C 43 % 1014,7 hPa 0,0 mm 9,9 km/h (2 Bft) N-NO 19 ° 1 min 0,000 mm 5,0 UV-I 793 W/m² 2,2 °C 14,6 °C 12,9 km/h (3 Bft)
01.05.2019 15:06 14,6 °C 42 % 1014,7 hPa 0,0 mm 13,0 km/h (3 Bft) NO 45 ° 1 min 0,000 mm 5,0 UV-I 793 W/m² 1,8 °C 14,6 °C 16,1 km/h (3 Bft)
01.05.2019 15:07 14,5 °C 42 % 1014,8 hPa 0,0 mm 9,4 km/h (2 Bft) N-NO 24 ° 1 min 0,000 mm 5,0 UV-I 791 W/m² 1,7 °C 14,5 °C 12,9 km/h (3 Bft)
01.05.2019 15:08 14,5 °C 44 % 1014,8 hPa 0,0 mm 8,2 km/h (2 Bft) NO 34 ° 1 min 0,000 mm 5,0 UV-I 791 W/m² 2,4 °C 14,5 °C 16,1 km/h (3 Bft)
01.05.2019 15:09 14,5 °C 42 % 1014,7 hPa 0,0 mm 3,7 km/h (1 Bft) N-NW 329 ° 1 min 0,000 mm 5,0 UV-I 789 W/m² 1,7 °C 14,5 °C 4,8 km/h (1 Bft)
01.05.2019 15:10 14,6 °C 43 % 1014,7 hPa 0,0 mm 6,9 km/h (2 Bft) N 355 ° 1 min 0,000 mm 5,0 UV-I 786 W/m² 2,2 °C 14,6 °C 12,9 km/h (3 Bft)
01.05.2019 15:11 14,6 °C 44 % 1014,7 hPa 0,0 mm 5,6 km/h (1 Bft) N-NW 336 ° 1 min 0,000 mm 5,0 UV-I 786 W/m² 2,5 °C 14,6 °C 8,0 km/h (2 Bft)
01.05.2019 15:12 14,6 °C 44 % 1014,7 hPa 0,0 mm 2,8 km/h (1 Bft) N-NO 29 ° 1 min 0,000 mm 4,9 UV-I 786 W/m² 2,5 °C 14,6 °C 3,2 km/h (1 Bft)
01.05.2019 15:13 14,6 °C 44 % 1014,6 hPa 0,0 mm 5,3 km/h (1 Bft) NO 40 ° 1 min 0,000 mm 4,9 UV-I 780 W/m² 2,5 °C 14,6 °C 8,0 km/h (2 Bft)
01.05.2019 15:14 14,6 °C 43 % 1014,6 hPa 0,0 mm 4,6 km/h (1 Bft) O-NO 63 ° 1 min 0,000 mm 4,9 UV-I 780 W/m² 2,2 °C 14,6 °C 11,3 km/h (2 Bft)
01.05.2019 15:15 14,4 °C 41 % 1014,6 hPa 0,0 mm 0,7 km/h (0 Bft) N-NW 340 ° 1 min 0,000 mm 4,9 UV-I 780 W/m² 1,3 °C 14,4 °C 3,2 km/h (1 Bft)
01.05.2019 15:16 14,3 °C 42 % 1014,5 hPa 0,0 mm 0,4 km/h (0 Bft) NW 306 ° 1 min 0,000 mm 4,9 UV-I 780 W/m² 1,6 °C 14,3 °C 1,6 km/h (1 Bft)
01.05.2019 15:17 14,2 °C 42 % 1014,5 hPa 0,0 mm 0,0 km/h (0 Bft) NW 306 ° 1 min 0,000 mm 4,9 UV-I 777 W/m² 1,5 °C 14,2 °C 0,0 km/h (0 Bft)
01.05.2019 15:18 14,2 °C 44 % 1014,6 hPa 0,0 mm 2,4 km/h (1 Bft) NO 39 ° 1 min 0,000 mm 4,8 UV-I 775 W/m² 2,1 °C 14,2 °C 4,8 km/h (1 Bft)
01.05.2019 15:19 14,3 °C 43 % 1014,5 hPa 0,0 mm 6,0 km/h (2 Bft) N 9 ° 1 min 0,000 mm 4,8 UV-I 770 W/m² 1,9 °C 14,3 °C 12,9 km/h (3 Bft)
01.05.2019 15:20 14,4 °C 43 % 1014,5 hPa 0,0 mm 8,7 km/h (2 Bft) N 355 ° 1 min 0,000 mm 4,9 UV-I 773 W/m² 2,0 °C 14,4 °C 12,9 km/h (3 Bft)
01.05.2019 15:21 14,6 °C 43 % 1014,6 hPa 0,0 mm 5,8 km/h (2 Bft) N 5 ° 1 min 0,000 mm 4,8 UV-I 768 W/m² 2,2 °C 14,6 °C 8,0 km/h (2 Bft)
01.05.2019 15:22 14,6 °C 42 % 1014,5 hPa 0,0 mm 5,0 km/h (1 Bft) N-NO 30 ° 1 min 0,000 mm 4,8 UV-I 766 W/m² 1,8 °C 14,6 °C 8,0 km/h (2 Bft)
01.05.2019 15:23 14,7 °C 43 % 1014,5 hPa 0,0 mm 10,1 km/h (2 Bft) O-NO 61 ° 1 min 0,000 mm 4,8 UV-I 765 W/m² 2,3 °C 14,7 °C 16,1 km/h (3 Bft)
01.05.2019 15:24 14,8 °C 45 % 1014,5 hPa 0,0 mm 8,5 km/h (2 Bft) N-NO 21 ° 1 min 0,000 mm 4,8 UV-I 763 W/m² 3,0 °C 14,8 °C 12,9 km/h (3 Bft)
01.05.2019 15:25 14,8 °C 45 % 1014,5 hPa 0,0 mm 4,8 km/h (1 Bft) N 5 ° 1 min 0,000 mm 4,7 UV-I 761 W/m² 3,0 °C 14,8 °C 6,4 km/h (2 Bft)
01.05.2019 15:26 14,8 °C 44 % 1014,5 hPa 0,0 mm 4,8 km/h (1 Bft) NO 38 ° 1 min 0,000 mm 4,7 UV-I 761 W/m² 2,7 °C 14,8 °C 6,4 km/h (2 Bft)
01.05.2019 15:27 14,7 °C 42 % 1014,5 hPa 0,0 mm 4,8 km/h (1 Bft) N 360 ° 1 min 0,000 mm 4,7 UV-I 756 W/m² 1,9 °C 14,7 °C 8,0 km/h (2 Bft)
01.05.2019 15:28 14,6 °C 46 % 1014,5 hPa 0,0 mm 7,5 km/h (2 Bft) N-NW 338 ° 1 min 0,000 mm 4,7 UV-I 754 W/m² 3,1 °C 14,6 °C 12,9 km/h (3 Bft)
01.05.2019 15:29 14,6 °C 43 % 1014,5 hPa 0,0 mm 1,8 km/h (1 Bft) N 355 ° 1 min 0,000 mm 4,7 UV-I 754 W/m² 2,2 °C 14,6 °C 6,4 km/h (2 Bft)
01.05.2019 15:30 14,4 °C 41 % 1014,5 hPa 0,0 mm 2,0 km/h (1 Bft) O 81 ° 1 min 0,000 mm 4,6 UV-I 751 W/m² 1,3 °C 14,4 °C 4,8 km/h (1 Bft)
01.05.2019 15:31 14,3 °C 42 % 1014,4 hPa 0,0 mm 5,4 km/h (1 Bft) O 80 ° 1 min 0,000 mm 4,6 UV-I 749 W/m² 1,6 °C 14,3 °C 8,0 km/h (2 Bft)
01.05.2019 15:32 14,1 °C 42 % 1014,4 hPa 0,0 mm 5,2 km/h (1 Bft) O-NO 71 ° 1 min 0,000 mm 4,6 UV-I 747 W/m² 1,4 °C 14,1 °C 8,0 km/h (2 Bft)
01.05.2019 15:33 14,2 °C 45 % 1014,4 hPa 0,0 mm 7,4 km/h (2 Bft) O-NO 70 ° 1 min 0,000 mm 4,6 UV-I 745 W/m² 2,4 °C 14,2 °C 12,9 km/h (3 Bft)
01.05.2019 15:34 14,3 °C 46 % 1014,4 hPa 0,0 mm 5,7 km/h (1 Bft) N-NW 344 ° 1 min 0,000 mm 4,6 UV-I 742 W/m² 2,8 °C 14,3 °C 9,7 km/h (2 Bft)
01.05.2019 15:35 14,4 °C 48 % 1014,4 hPa 0,0 mm 6,8 km/h (2 Bft) N-NW 331 ° 1 min 0,000 mm 4,5 UV-I 742 W/m² 3,5 °C 14,4 °C 11,3 km/h (2 Bft)
01.05.2019 15:36 14,6 °C 43 % 1014,4 hPa 0,0 mm 9,8 km/h (2 Bft) N-NW 328 ° 1 min 0,000 mm 4,5 UV-I 740 W/m² 2,2 °C 14,6 °C 17,7 km/h (3 Bft)
01.05.2019 15:37 14,7 °C 44 % 1014,3 hPa 0,0 mm 15,1 km/h (3 Bft) N 355 ° 1 min 0,000 mm 4,5 UV-I 737 W/m² 2,6 °C 14,7 °C 19,3 km/h (3 Bft)
01.05.2019 15:38 14,8 °C 47 % 1014,4 hPa 0,0 mm 5,0 km/h (1 Bft) O 88 ° 1 min 0,000 mm 4,4 UV-I 737 W/m² 3,6 °C 14,8 °C 9,7 km/h (2 Bft)
01.05.2019 15:39 14,7 °C 43 % 1014,3 hPa 0,0 mm 6,5 km/h (2 Bft) N-NO 30 ° 1 min 0,000 mm 4,4 UV-I 735 W/m² 2,3 °C 14,7 °C 9,7 km/h (2 Bft)
01.05.2019 15:40 14,7 °C 42 % 1014,3 hPa 0,0 mm 5,4 km/h (1 Bft) N 9 ° 1 min 0,000 mm 4,4 UV-I 735 W/m² 1,9 °C 14,7 °C 9,7 km/h (2 Bft)
01.05.2019 15:41 14,7 °C 40 % 1014,4 hPa 0,0 mm 5,5 km/h (1 Bft) N 9 ° 1 min 0,000 mm 4,4 UV-I 731 W/m² 1,2 °C 14,7 °C 8,0 km/h (2 Bft)
01.05.2019 15:42 14,6 °C 43 % 1014,3 hPa 0,0 mm 6,0 km/h (2 Bft) N-NO 17 ° 1 min 0,000 mm 4,4 UV-I 726 W/m² 2,2 °C 14,6 °C 11,3 km/h (2 Bft)
01.05.2019 15:43 14,7 °C 43 % 1014,2 hPa 0,0 mm 4,6 km/h (1 Bft) N-NO 19 ° 1 min 0,000 mm 4,4 UV-I 726 W/m² 2,3 °C 14,7 °C 8,0 km/h (2 Bft)
01.05.2019 15:44 14,7 °C 46 % 1014,3 hPa 0,0 mm 8,4 km/h (2 Bft) NO 34 ° 1 min 0,000 mm 4,3 UV-I 724 W/m² 3,2 °C 14,7 °C 12,9 km/h (3 Bft)
01.05.2019 15:45 14,8 °C 44 % 1014,3 hPa 0,0 mm 7,3 km/h (2 Bft) NO 47 ° 1 min 0,000 mm 4,3 UV-I 722 W/m² 2,7 °C 14,8 °C 9,7 km/h (2 Bft)
01.05.2019 15:46 14,7 °C 43 % 1014,3 hPa 0,0 mm 6,3 km/h (2 Bft) NO 34 ° 1 min 0,000 mm 4,3 UV-I 719 W/m² 2,3 °C 14,7 °C 9,7 km/h (2 Bft)
01.05.2019 15:47 14,7 °C 42 % 1014,3 hPa 0,0 mm 4,5 km/h (1 Bft) NO 54 ° 1 min 0,000 mm 4,3 UV-I 715 W/m² 1,9 °C 14,7 °C 8,0 km/h (2 Bft)
01.05.2019 15:48 14,6 °C 41 % 1014,3 hPa 0,0 mm 6,7 km/h (2 Bft) NO 40 ° 1 min 0,000 mm 4,2 UV-I 712 W/m² 1,5 °C 14,6 °C 9,7 km/h (2 Bft)
01.05.2019 15:49 14,6 °C 45 % 1014,3 hPa 0,0 mm 0,6 km/h (0 Bft) NO 40 ° 1 min 0,000 mm 4,2 UV-I 710 W/m² 2,8 °C 14,6 °C 1,6 km/h (1 Bft)
01.05.2019 15:50 14,6 °C 42 % 1014,2 hPa 0,0 mm 2,8 km/h (1 Bft) N 10 ° 1 min 0,000 mm 4,1 UV-I 708 W/m² 1,8 °C 14,6 °C 12,9 km/h (3 Bft)
01.05.2019 15:51 14,6 °C 43 % 1014,2 hPa 0,0 mm 4,7 km/h (1 Bft) N-NO 26 ° 1 min 0,000 mm 4,1 UV-I 707 W/m² 2,2 °C 14,6 °C 12,9 km/h (3 Bft)
01.05.2019 15:52 14,6 °C 40 % 1014,2 hPa 0,0 mm 2,2 km/h (1 Bft) N-NO 22 ° 1 min 0,000 mm 4,1 UV-I 705 W/m² 1,2 °C 14,6 °C 4,8 km/h (1 Bft)
01.05.2019 15:53 14,6 °C 43 % 1014,2 hPa 0,0 mm 5,2 km/h (1 Bft) NO 40 ° 1 min 0,000 mm 4,1 UV-I 701 W/m² 2,2 °C 14,6 °C 6,4 km/h (2 Bft)
01.05.2019 15:54 14,6 °C 42 % 1014,2 hPa 0,0 mm 3,1 km/h (1 Bft) N-NW 338 ° 1 min 0,000 mm 4,0 UV-I 703 W/m² 1,8 °C 14,6 °C 4,8 km/h (1 Bft)
01.05.2019 15:55 14,7 °C 43 % 1014,2 hPa 0,0 mm 3,4 km/h (1 Bft) N-NO 27 ° 1 min 0,000 mm 3,9 UV-I 701 W/m² 2,3 °C 14,7 °C 6,4 km/h (2 Bft)
01.05.2019 15:56 14,8 °C 45 % 1014,2 hPa 0,0 mm 3,1 km/h (1 Bft) NW 317 ° 1 min 0,000 mm 3,9 UV-I 700 W/m² 3,0 °C 14,8 °C 6,4 km/h (2 Bft)
01.05.2019 15:57 14,8 °C 44 % 1014,2 hPa 0,0 mm 3,5 km/h (1 Bft) NO 38 ° 1 min 0,000 mm 3,9 UV-I 696 W/m² 2,7 °C 14,8 °C 4,8 km/h (1 Bft)
01.05.2019 15:58 14,9 °C 46 % 1014,1 hPa 0,0 mm 2,8 km/h (1 Bft) N-NO 28 ° 1 min 0,000 mm 3,8 UV-I 694 W/m² 3,4 °C 14,9 °C 4,8 km/h (1 Bft)
01.05.2019 15:59 15,0 °C 42 % 1014,1 hPa 0,0 mm 4,0 km/h (1 Bft) NO 44 ° 1 min 0,000 mm 3,8 UV-I 691 W/m² 2,2 °C 15,0 °C 8,0 km/h (2 Bft)
01.05.2019 16:00 14,9 °C 43 % 1014,1 hPa 0,0 mm 11,3 km/h (2 Bft) N-NO 17 ° 1 min 0,000 mm 3,7 UV-I 689 W/m² 2,4 °C 14,9 °C 16,1 km/h (3 Bft)
01.05.2019 16:01 14,9 °C 41 % 1014,1 hPa 0,0 mm 8,3 km/h (2 Bft) NO 55 ° 1 min 0,432 mm 3,7 UV-I 687 W/m² 1,8 °C 14,9 °C 16,1 km/h (3 Bft)
01.05.2019 16:02 14,9 °C 42 % 1014,2 hPa 0,0 mm 6,6 km/h (2 Bft) N-NO 28 ° 1 min 0,000 mm 3,6 UV-I 686 W/m² 2,1 °C 14,9 °C 16,1 km/h (3 Bft)
01.05.2019 16:03 14,7 °C 42 % 1014,2 hPa 0,0 mm 5,9 km/h (2 Bft) N 11 ° 1 min 0,000 mm 3,6 UV-I 682 W/m² 1,9 °C 14,7 °C 8,0 km/h (2 Bft)
01.05.2019 16:04 14,7 °C 43 % 1014,1 hPa 0,0 mm 5,3 km/h (1 Bft) N 5 ° 1 min 0,000 mm 3,5 UV-I 679 W/m² 2,3 °C 14,7 °C 8,0 km/h (2 Bft)
01.05.2019 16:05 14,7 °C 43 % 1014,1 hPa 0,0 mm 8,2 km/h (2 Bft) N-NW 348 ° 1 min 0,000 mm 3,5 UV-I 675 W/m² 2,3 °C 14,7 °C 12,9 km/h (3 Bft)
01.05.2019 16:06 14,7 °C 41 % 1014,1 hPa 0,0 mm 3,7 km/h (1 Bft) N-NO 19 ° 1 min 0,000 mm 3,5 UV-I 659 W/m² 1,6 °C 14,7 °C 6,4 km/h (2 Bft)
01.05.2019 16:07 14,6 °C 41 % 1014,1 hPa 0,0 mm 2,5 km/h (1 Bft) N-NO 19 ° 1 min 0,000 mm 3,3 UV-I 617 W/m² 1,5 °C 14,6 °C 4,8 km/h (1 Bft)
01.05.2019 16:08 14,7 °C 43 % 1014,1 hPa 0,0 mm 8,4 km/h (2 Bft) N 11 ° 0 min 0,000 mm 3,1 UV-I 548 W/m² 2,3 °C 14,7 °C 12,9 km/h (3 Bft)
01.05.2019 16:09 14,7 °C 42 % 1014,1 hPa 0,0 mm 6,4 km/h (2 Bft) NW 314 ° 0 min 0,000 mm 3,0 UV-I 450 W/m² 1,9 °C 14,7 °C 8,0 km/h (2 Bft)
01.05.2019 16:10 14,7 °C 40 % 1014,1 hPa 0,0 mm 6,4 km/h (2 Bft) NW 325 ° 0 min 0,000 mm 2,6 UV-I 390 W/m² 1,2 °C 14,7 °C 9,7 km/h (2 Bft)
01.05.2019 16:11 14,8 °C 43 % 1014,0 hPa 0,0 mm 4,9 km/h (1 Bft) NW 319 ° 0 min 0,000 mm 2,5 UV-I 362 W/m² 2,3 °C 14,8 °C 9,7 km/h (2 Bft)
01.05.2019 16:12 14,8 °C 40 % 1014,0 hPa 0,0 mm 5,9 km/h (2 Bft) N-NW 339 ° 0 min 0,000 mm 2,5 UV-I 359 W/m² 1,3 °C 14,8 °C 9,7 km/h (2 Bft)
01.05.2019 16:13 14,7 °C 39 % 1014,0 hPa 0,0 mm 3,3 km/h (1 Bft) N 355 ° 0 min 0,000 mm 2,6 UV-I 390 W/m² 0,9 °C 14,7 °C 4,8 km/h (1 Bft)
01.05.2019 16:14 14,6 °C 40 % 1014,0 hPa 0,0 mm 5,8 km/h (2 Bft) N-NO 27 ° 0 min 0,000 mm 2,7 UV-I 420 W/m² 1,2 °C 14,6 °C 8,0 km/h (2 Bft)
01.05.2019 16:15 14,6 °C 41 % 1014,0 hPa 0,0 mm 5,6 km/h (1 Bft) NW 306 ° 0 min 0,000 mm 2,7 UV-I 466 W/m² 1,5 °C 14,6 °C 8,0 km/h (2 Bft)
01.05.2019 16:16 14,7 °C 44 % 1014,0 hPa 0,0 mm 5,1 km/h (1 Bft) N-NO 13 ° 0 min 0,000 mm 2,8 UV-I 448 W/m² 2,6 °C 14,7 °C 8,0 km/h (2 Bft)
01.05.2019 16:17 14,9 °C 44 % 1014,0 hPa 0,0 mm 4,0 km/h (1 Bft) O-NO 62 ° 0 min 0,000 mm 2,7 UV-I 424 W/m² 2,8 °C 14,9 °C 8,0 km/h (2 Bft)
01.05.2019 16:18 14,8 °C 41 % 1014,0 hPa 0,0 mm 5,4 km/h (1 Bft) NO 52 ° 0 min 0,000 mm 2,5 UV-I 424 W/m² 1,7 °C 14,8 °C 8,0 km/h (2 Bft)
01.05.2019 16:19 14,8 °C 40 % 1014,0 hPa 0,0 mm 6,0 km/h (2 Bft) NO 42 ° 0 min 0,000 mm 2,5 UV-I 424 W/m² 1,3 °C 14,8 °C 11,3 km/h (2 Bft)
01.05.2019 16:20 14,7 °C 43 % 1014,0 hPa 0,0 mm 7,2 km/h (2 Bft) NO 43 ° 0 min 0,000 mm 2,2 UV-I 287 W/m² 2,3 °C 14,7 °C 14,5 km/h (3 Bft)
01.05.2019 16:21 14,7 °C 40 % 1014,0 hPa 0,0 mm 4,1 km/h (1 Bft) NW 324 ° 0 min 0,000 mm 2,3 UV-I 345 W/m² 1,2 °C 14,7 °C 6,4 km/h (2 Bft)
01.05.2019 16:22 14,7 °C 42 % 1013,9 hPa 0,0 mm 7,3 km/h (2 Bft) N-NO 15 ° 0 min 0,000 mm 2,3 UV-I 385 W/m² 1,9 °C 14,7 °C 12,9 km/h (3 Bft)
01.05.2019 16:23 14,6 °C 42 % 1013,9 hPa 0,0 mm 6,8 km/h (2 Bft) N 5 ° 0 min 0,000 mm 2,3 UV-I 304 W/m² 1,8 °C 14,6 °C 9,7 km/h (2 Bft)
01.05.2019 16:24 14,6 °C 43 % 1013,9 hPa 0,0 mm 5,0 km/h (1 Bft) N-NW 346 ° 0 min 0,000 mm 2,3 UV-I 309 W/m² 2,2 °C 14,6 °C 8,0 km/h (2 Bft)
01.05.2019 16:25 14,7 °C 41 % 1013,9 hPa 0,0 mm 2,8 km/h (1 Bft) NO 42 ° 0 min 0,000 mm 2,1 UV-I 336 W/m² 1,6 °C 14,7 °C 4,8 km/h (1 Bft)
01.05.2019 16:26 14,6 °C 41 % 1013,9 hPa 0,0 mm 3,0 km/h (1 Bft) NO 56 ° 0 min 0,000 mm 2,1 UV-I 334 W/m² 1,5 °C 14,6 °C 6,4 km/h (2 Bft)
01.05.2019 16:27 14,4 °C 41 % 1013,9 hPa 0,0 mm 4,6 km/h (1 Bft) N 9 ° 0 min 0,000 mm 2,1 UV-I 262 W/m² 1,3 °C 14,4 °C 6,4 km/h (2 Bft)
01.05.2019 16:28 14,4 °C 42 % 1013,9 hPa 0,0 mm 3,9 km/h (1 Bft) O-NO 59 ° 0 min 0,000 mm 2,0 UV-I 190 W/m² 1,7 °C 14,4 °C 6,4 km/h (2 Bft)
01.05.2019 16:29 14,6 °C 43 % 1013,9 hPa 0,0 mm 4,1 km/h (1 Bft) O 92 ° 0 min 0,000 mm 2,0 UV-I 190 W/m² 2,2 °C 14,6 °C 6,4 km/h (2 Bft)
01.05.2019 16:30 14,5 °C 42 % 1013,9 hPa 0,0 mm 5,2 km/h (1 Bft) NO 38 ° 0 min 0,000 mm 2,1 UV-I 200 W/m² 1,7 °C 14,5 °C 11,3 km/h (2 Bft)
01.05.2019 16:31 14,5 °C 42 % 1013,9 hPa 0,0 mm 3,4 km/h (1 Bft) N-NO 21 ° 0 min 0,000 mm 2,2 UV-I 218 W/m² 1,7 °C 14,5 °C 6,4 km/h (2 Bft)
01.05.2019 16:32 14,4 °C 40 % 1013,9 hPa 0,0 mm 9,7 km/h (2 Bft) N 355 ° 0 min 0,000 mm 2,5 UV-I 290 W/m² 1,0 °C 14,4 °C 14,5 km/h (3 Bft)
01.05.2019 16:33 14,5 °C 41 % 1013,9 hPa 0,0 mm 8,2 km/h (2 Bft) N-NO 19 ° 0 min 0,000 mm 2,6 UV-I 323 W/m² 1,4 °C 14,5 °C 14,5 km/h (3 Bft)
01.05.2019 16:34 14,6 °C 41 % 1013,9 hPa 0,0 mm 8,9 km/h (2 Bft) NW 314 ° 0 min 0,000 mm 2,3 UV-I 299 W/m² 1,5 °C 14,6 °C 14,5 km/h (3 Bft)
01.05.2019 16:35 14,6 °C 42 % 1013,9 hPa 0,0 mm 7,0 km/h (2 Bft) N-NO 27 ° 0 min 0,000 mm 1,9 UV-I 373 W/m² 1,8 °C 14,6 °C 14,5 km/h (3 Bft)
01.05.2019 16:36 14,7 °C 43 % 1013,9 hPa 0,0 mm 8,8 km/h (2 Bft) N-NO 33 ° 0 min 0,000 mm 2,1 UV-I 383 W/m² 2,3 °C 14,7 °C 12,9 km/h (3 Bft)
01.05.2019 16:37 14,7 °C 43 % 1013,8 hPa 0,0 mm 11,0 km/h (2 Bft) N 5 ° 0 min 0,000 mm 2,1 UV-I 373 W/m² 2,3 °C 14,7 °C 16,1 km/h (3 Bft)
01.05.2019 16:38 14,8 °C 40 % 1013,8 hPa 0,0 mm 4,8 km/h (1 Bft) N-NO 22 ° 0 min 0,000 mm 2,1 UV-I 396 W/m² 1,3 °C 14,8 °C 8,0 km/h (2 Bft)
01.05.2019 16:39 14,8 °C 40 % 1013,9 hPa 0,0 mm 6,2 km/h (2 Bft) N 5 ° 0 min 0,000 mm 2,1 UV-I 311 W/m² 1,3 °C 14,8 °C 8,0 km/h (2 Bft)
01.05.2019 16:40 14,8 °C 41 % 1013,7 hPa 0,0 mm 5,1 km/h (1 Bft) N-NO 18 ° 0 min 0,000 mm 2,0 UV-I 311 W/m² 1,7 °C 14,8 °C 8,0 km/h (2 Bft)
01.05.2019 16:41 14,9 °C 41 % 1013,8 hPa 0,0 mm 4,5 km/h (1 Bft) N-NO 20 ° 0 min 0,000 mm 2,2 UV-I 255 W/m² 1,8 °C 14,9 °C 9,7 km/h (2 Bft)
01.05.2019 16:42 14,9 °C 41 % 1013,7 hPa 0,0 mm 4,2 km/h (1 Bft) O-NO 60 ° 0 min 0,000 mm 2,1 UV-I 295 W/m² 1,8 °C 14,9 °C 9,7 km/h (2 Bft)
01.05.2019 16:43 14,8 °C 39 % 1013,9 hPa 0,0 mm 5,2 km/h (1 Bft) N 5 ° 0 min 0,000 mm 2,1 UV-I 283 W/m² 1,0 °C 14,8 °C 8,0 km/h (2 Bft)
01.05.2019 16:44 14,7 °C 40 % 1013,7 hPa 0,0 mm 4,2 km/h (1 Bft) NO 50 ° 0 min 0,000 mm 1,9 UV-I 297 W/m² 1,2 °C 14,7 °C 6,4 km/h (2 Bft)
01.05.2019 16:45 14,7 °C 39 % 1013,7 hPa 0,0 mm 5,0 km/h (1 Bft) NO 42 ° 0 min 0,000 mm 1,9 UV-I 287 W/m² 0,9 °C 14,7 °C 6,4 km/h (2 Bft)
01.05.2019 16:46 14,6 °C 39 % 1013,7 hPa 0,0 mm 3,1 km/h (1 Bft) O-NO 76 ° 0 min 0,000 mm 1,8 UV-I 209 W/m² 0,8 °C 14,6 °C 4,8 km/h (1 Bft)
01.05.2019 16:47 14,5 °C 42 % 1013,7 hPa 0,0 mm 2,9 km/h (1 Bft) O 87 ° 0 min 0,000 mm 1,6 UV-I 95 W/m² 1,7 °C 14,5 °C 6,4 km/h (2 Bft)
01.05.2019 16:48 14,4 °C 42 % 1013,7 hPa 0,0 mm 2,0 km/h (1 Bft) NO 37 ° 0 min 0,000 mm 1,5 UV-I 88 W/m² 1,7 °C 14,4 °C 6,4 km/h (2 Bft)
01.05.2019 16:49 14,4 °C 39 % 1013,7 hPa 0,0 mm 10,6 km/h (2 Bft) N-NO 23 ° 0 min 0,000 mm 1,6 UV-I 97 W/m² 0,6 °C 14,4 °C 16,1 km/h (3 Bft)
01.05.2019 16:50 14,4 °C 39 % 1013,7 hPa 0,0 mm 9,5 km/h (2 Bft) N 5 ° 0 min 0,000 mm 1,6 UV-I 116 W/m² 0,6 °C 14,4 °C 14,5 km/h (3 Bft)
01.05.2019 16:51 14,4 °C 39 % 1013,7 hPa 0,0 mm 6,8 km/h (2 Bft) N 11 ° 0 min 0,000 mm 1,6 UV-I 111 W/m² 0,6 °C 14,4 °C 9,7 km/h (2 Bft)
01.05.2019 16:52 14,6 °C 41 % 1013,6 hPa 0,0 mm 4,0 km/h (1 Bft) N-NO 19 ° 0 min 0,000 mm 1,8 UV-I 172 W/m² 1,5 °C 14,6 °C 11,3 km/h (2 Bft)
01.05.2019 16:53 14,6 °C 39 % 1013,7 hPa 0,0 mm 8,5 km/h (2 Bft) N-NO 19 ° 0 min 0,000 mm 2,0 UV-I 207 W/m² 0,8 °C 14,6 °C 12,9 km/h (3 Bft)
01.05.2019 16:54 14,6 °C 39 % 1013,7 hPa 0,0 mm 7,0 km/h (2 Bft) N 355 ° 0 min 0,000 mm 2,1 UV-I 267 W/m² 0,8 °C 14,6 °C 8,0 km/h (2 Bft)
01.05.2019 16:55 14,6 °C 39 % 1013,6 hPa 0,0 mm 5,0 km/h (1 Bft) N-NO 18 ° 0 min 0,000 mm 2,0 UV-I 288 W/m² 0,8 °C 14,6 °C 8,0 km/h (2 Bft)
01.05.2019 16:56 14,6 °C 40 % 1013,7 hPa 0,0 mm 5,1 km/h (1 Bft) N-NO 17 ° 0 min 0,000 mm 1,9 UV-I 281 W/m² 1,2 °C 14,6 °C 8,0 km/h (2 Bft)
01.05.2019 16:57 14,6 °C 40 % 1013,6 hPa 0,0 mm 4,7 km/h (1 Bft) N 9 ° 0 min 0,000 mm 1,8 UV-I 281 W/m² 1,2 °C 14,6 °C 6,4 km/h (2 Bft)
01.05.2019 16:58 14,6 °C 40 % 1013,6 hPa 0,0 mm 5,6 km/h (1 Bft) N-NW 334 ° 0 min 0,000 mm 1,6 UV-I 144 W/m² 1,2 °C 14,6 °C 8,0 km/h (2 Bft)
01.05.2019 16:59 14,6 °C 39 % 1013,6 hPa 0,0 mm 3,0 km/h (1 Bft) N 355 ° 0 min 0,000 mm 1,6 UV-I 148 W/m² 0,8 °C 14,6 °C 4,8 km/h (1 Bft)
01.05.2019 17:00 14,6 °C 39 % 1013,6 hPa 0,0 mm 1,9 km/h (1 Bft) N 355 ° 0 min 0,000 mm 1,7 UV-I 163 W/m² 0,8 °C 14,6 °C 3,2 km/h (1 Bft)
01.05.2019 17:01 14,4 °C 39 % 1013,6 hPa 0,0 mm 3,5 km/h (1 Bft) N 355 ° 0 min 0,203 mm 1,6 UV-I 130 W/m² 0,6 °C 14,4 °C 4,8 km/h (1 Bft)
01.05.2019 17:02 14,4 °C 38 % 1013,7 hPa 0,0 mm 4,8 km/h (1 Bft) N-NO 32 ° 0 min 0,000 mm 1,6 UV-I 156 W/m² 0,3 °C 14,4 °C 6,4 km/h (2 Bft)
01.05.2019 17:03 14,3 °C 37 % 1013,5 hPa 0,0 mm 2,5 km/h (1 Bft) NW 316 ° 0 min 0,000 mm 1,5 UV-I 243 W/m² -0,2 °C 14,3 °C 3,2 km/h (1 Bft)
01.05.2019 17:04 14,2 °C 38 % 1013,5 hPa 0,0 mm 6,0 km/h (2 Bft) O-NO 70 ° 0 min 0,000 mm 1,6 UV-I 158 W/m² 0,1 °C 14,2 °C 9,7 km/h (2 Bft)
01.05.2019 17:05 14,2 °C 40 % 1013,5 hPa 0,0 mm 6,3 km/h (2 Bft) O-NO 76 ° 0 min 0,000 mm 1,6 UV-I 84 W/m² 0,8 °C 14,2 °C 9,7 km/h (2 Bft)
01.05.2019 17:06 14,2 °C 40 % 1013,5 hPa 0,0 mm 7,9 km/h (2 Bft) N 355 ° 0 min 0,000 mm 1,5 UV-I 58 W/m² 0,8 °C 14,2 °C 12,9 km/h (3 Bft)
01.05.2019 17:07 14,3 °C 43 % 1013,5 hPa 0,0 mm 4,6 km/h (1 Bft) N 360 ° 0 min 0,000 mm 1,6 UV-I 72 W/m² 1,9 °C 14,3 °C 8,0 km/h (2 Bft)
01.05.2019 17:08 14,4 °C 42 % 1013,5 hPa 0,0 mm 3,4 km/h (1 Bft) N 11 ° 0 min 0,000 mm 1,5 UV-I 86 W/m² 1,7 °C 14,4 °C 4,8 km/h (1 Bft)
01.05.2019 17:09 14,4 °C 42 % 1013,4 hPa 0,0 mm 1,7 km/h (1 Bft) N-NO 26 ° 0 min 0,000 mm 1,4 UV-I 105 W/m² 1,7 °C 14,4 °C 4,8 km/h (1 Bft)
01.05.2019 17:10 14,6 °C 42 % 1013,4 hPa 0,0 mm 3,5 km/h (1 Bft) N-NO 14 ° 0 min 0,000 mm 1,4 UV-I 72 W/m² 1,8 °C 14,6 °C 8,0 km/h (2 Bft)
01.05.2019 17:11 14,7 °C 41 % 1013,4 hPa 0,0 mm 3,6 km/h (1 Bft) N-NO 14 ° 0 min 0,000 mm 1,4 UV-I 54 W/m² 1,6 °C 14,7 °C 6,4 km/h (2 Bft)
01.05.2019 17:12 14,8 °C 41 % 1013,4 hPa 0,0 mm 4,8 km/h (1 Bft) N 350 ° 0 min 0,000 mm 1,6 UV-I 98 W/m² 1,7 °C 14,8 °C 8,0 km/h (2 Bft)
01.05.2019 17:13 14,8 °C 41 % 1013,4 hPa 0,0 mm 4,4 km/h (1 Bft) NO 51 ° 0 min 0,000 mm 1,9 UV-I 98 W/m² 1,7 °C 14,8 °C 14,5 km/h (3 Bft)
01.05.2019 17:14 14,8 °C 39 % 1013,4 hPa 0,0 mm 9,2 km/h (2 Bft) O-NO 59 ° 0 min 0,000 mm 1,7 UV-I 272 W/m² 1,0 °C 14,8 °C 14,5 km/h (3 Bft)
01.05.2019 17:15 14,7 °C 38 % 1013,4 hPa 0,0 mm 10,5 km/h (2 Bft) O-NO 76 ° 0 min 0,000 mm 1,7 UV-I 213 W/m² 0,5 °C 14,7 °C 12,9 km/h (3 Bft)
01.05.2019 17:16 14,6 °C 39 % 1013,4 hPa 0,0 mm 5,1 km/h (1 Bft) O-NO 64 ° 0 min 0,000 mm 1,6 UV-I 193 W/m² 0,8 °C 14,6 °C 8,0 km/h (2 Bft)
01.05.2019 17:17 14,6 °C 39 % 1013,4 hPa 0,0 mm 6,0 km/h (2 Bft) O-NO 75 ° 0 min 0,000 mm 1,5 UV-I 134 W/m² 0,8 °C 14,6 °C 8,0 km/h (2 Bft)
01.05.2019 17:18 14,5 °C 40 % 1013,4 hPa 0,0 mm 5,7 km/h (1 Bft) O 87 ° 0 min 0,000 mm 1,6 UV-I 123 W/m² 1,1 °C 14,5 °C 8,0 km/h (2 Bft)
01.05.2019 17:19 14,4 °C 41 % 1013,4 hPa 0,0 mm 4,8 km/h (1 Bft) O 86 ° 0 min 0,000 mm 1,6 UV-I 125 W/m² 1,3 °C 14,4 °C 6,4 km/h (2 Bft)
01.05.2019 17:20 14,4 °C 40 % 1013,3 hPa 0,0 mm 5,5 km/h (1 Bft) O-NO 76 ° 0 min 0,000 mm 1,5 UV-I 121 W/m² 1,0 °C 14,4 °C 6,4 km/h (2 Bft)
01.05.2019 17:21 14,3 °C 41 % 1013,3 hPa 0,0 mm 5,1 km/h (1 Bft) O 86 ° 0 min 0,000 mm 1,5 UV-I 188 W/m² 1,2 °C 14,3 °C 6,4 km/h (2 Bft)
01.05.2019 17:22 14,3 °C 39 % 1013,4 hPa 0,0 mm 4,9 km/h (1 Bft) O 80 ° 0 min 0,000 mm 1,6 UV-I 262 W/m² 0,5 °C 14,3 °C 6,4 km/h (2 Bft)
01.05.2019 17:23 14,3 °C 40 % 1013,3 hPa 0,0 mm 4,2 km/h (1 Bft) NO 56 ° 0 min 0,000 mm 1,9 UV-I 330 W/m² 0,9 °C 14,3 °C 4,8 km/h (1 Bft)
01.05.2019 17:24 14,3 °C 41 % 1013,3 hPa 0,0 mm 1,8 km/h (1 Bft) O-NO 57 ° 0 min 0,000 mm 1,8 UV-I 334 W/m² 1,2 °C 14,3 °C 3,2 km/h (1 Bft)
01.05.2019 17:25 14,3 °C 39 % 1013,3 hPa 0,0 mm 0,6 km/h (0 Bft) O-NO 57 ° 0 min 0,000 mm 1,5 UV-I 334 W/m² 0,5 °C 14,3 °C 1,6 km/h (1 Bft)
01.05.2019 17:26 14,3 °C 42 % 1013,3 hPa 0,0 mm 3,2 km/h (1 Bft) O 85 ° 0 min 0,000 mm 1,3 UV-I 334 W/m² 1,6 °C 14,3 °C 6,4 km/h (2 Bft)
01.05.2019 17:27 14,3 °C 39 % 1013,3 hPa 0,0 mm 5,8 km/h (2 Bft) O 94 ° 0 min 0,000 mm 1,3 UV-I 74 W/m² 0,5 °C 14,3 °C 9,7 km/h (2 Bft)
01.05.2019 17:28 14,2 °C 39 % 1013,3 hPa 0,0 mm 9,3 km/h (2 Bft) O-NO 76 ° 0 min 0,000 mm 0,0 UV-I 53 W/m² 0,5 °C 14,2 °C 12,9 km/h (3 Bft)
01.05.2019 17:29 14,3 °C 41 % 1013,3 hPa 0,0 mm 7,0 km/h (2 Bft) NO 55 ° 0 min 0,000 mm 0,0 UV-I 53 W/m² 1,2 °C 14,3 °C 9,7 km/h (2 Bft)
01.05.2019 17:30 14,3 °C 39 % 1013,4 hPa 0,0 mm 3,4 km/h (1 Bft) O-NO 67 ° 0 min 0,000 mm 0,0 UV-I 53 W/m² 0,5 °C 14,3 °C 8,0 km/h (2 Bft)
01.05.2019 17:31 14,2 °C 39 % 1013,3 hPa 0,0 mm 1,8 km/h (1 Bft) NO 37 ° 0 min 0,000 mm 0,0 UV-I 53 W/m² 0,5 °C 14,2 °C 4,8 km/h (1 Bft)
01.05.2019 17:32 14,2 °C 40 % 1013,3 hPa 0,0 mm 3,6 km/h (1 Bft) O-SO 102 ° 0 min 0,000 mm 0,0 UV-I 53 W/m² 0,8 °C 14,2 °C 6,4 km/h (2 Bft)
01.05.2019 17:33 14,2 °C 40 % 1013,3 hPa 0,0 mm 5,1 km/h (1 Bft) O-NO 69 ° 0 min 0,000 mm 1,3 UV-I 70 W/m² 0,8 °C 14,2 °C 6,4 km/h (2 Bft)
01.05.2019 17:34 14,2 °C 40 % 1013,3 hPa 0,0 mm 3,4 km/h (1 Bft) O-NO 75 ° 0 min 0,000 mm 1,3 UV-I 83 W/m² 0,8 °C 14,2 °C 4,8 km/h (1 Bft)
01.05.2019 17:35 14,3 °C 40 % 1013,3 hPa 0,0 mm 5,5 km/h (1 Bft) N-NO 21 ° 0 min 0,000 mm 0,0 UV-I 53 W/m² 0,9 °C 14,3 °C 8,0 km/h (2 Bft)
01.05.2019 17:36 14,3 °C 40 % 1013,3 hPa 0,0 mm 2,7 km/h (1 Bft) N 5 ° 0 min 0,000 mm 0,0 UV-I 51 W/m² 0,9 °C 14,3 °C 4,8 km/h (1 Bft)
01.05.2019 17:37 14,3 °C 39 % 1013,3 hPa 0,0 mm 4,4 km/h (1 Bft) N 5 ° 0 min 0,000 mm 0,0 UV-I 53 W/m² 0,5 °C 14,3 °C 6,4 km/h (2 Bft)
01.05.2019 17:38 14,3 °C 39 % 1013,3 hPa 0,0 mm 3,6 km/h (1 Bft) N 11 ° 0 min 0,000 mm 1,4 UV-I 86 W/m² 0,5 °C 14,3 °C 6,4 km/h (2 Bft)
01.05.2019 17:39 14,3 °C 40 % 1013,3 hPa 0,0 mm 1,7 km/h (1 Bft) O-NO 72 ° 0 min 0,000 mm 1,6 UV-I 158 W/m² 0,9 °C 14,3 °C 4,8 km/h (1 Bft)
01.05.2019 17:40 14,3 °C 42 % 1013,3 hPa 0,0 mm 1,6 km/h (1 Bft) O-NO 72 ° 0 min 0,000 mm 1,4 UV-I 146 W/m² 1,6 °C 14,3 °C 3,2 km/h (1 Bft)
01.05.2019 17:41 14,3 °C 38 % 1013,3 hPa 0,0 mm 0,1 km/h (0 Bft) O-NO 72 ° 0 min 0,000 mm 1,2 UV-I 142 W/m² 0,2 °C 14,3 °C 1,6 km/h (1 Bft)
01.05.2019 17:42 14,3 °C 38 % 1013,3 hPa 0,0 mm 1,9 km/h (1 Bft) O-NO 72 ° 0 min 0,000 mm 1,2 UV-I 72 W/m² 0,2 °C 14,3 °C 3,2 km/h (1 Bft)
01.05.2019 17:43 14,2 °C 38 % 1013,2 hPa 0,0 mm 0,0 km/h (0 Bft) O-NO 72 ° 0 min 0,000 mm 1,3 UV-I 98 W/m² 0,1 °C 14,2 °C 0,0 km/h (0 Bft)
01.05.2019 17:44 14,2 °C 41 % 1013,2 hPa 0,0 mm 0,0 km/h (0 Bft) O-NO 72 ° 0 min 0,000 mm 1,4 UV-I 149 W/m² 1,1 °C 14,2 °C 0,0 km/h (0 Bft)
01.05.2019 17:45 14,2 °C 39 % 1013,2 hPa 0,0 mm 1,4 km/h (1 Bft) O-NO 63 ° 0 min 0,000 mm 1,3 UV-I 172 W/m² 0,5 °C 14,2 °C 4,8 km/h (1 Bft)
01.05.2019 17:46 14,2 °C 39 % 1013,2 hPa 0,0 mm 2,5 km/h (1 Bft) N 360 ° 0 min 0,000 mm 1,2 UV-I 74 W/m² 0,5 °C 14,2 °C 4,8 km/h (1 Bft)
01.05.2019 17:47 14,3 °C 42 % 1013,1 hPa 0,0 mm 6,2 km/h (2 Bft) O 79 ° 0 min 0,000 mm 0,0 UV-I 51 W/m² 1,6 °C 14,3 °C 8,0 km/h (2 Bft)
01.05.2019 17:48 14,3 °C 41 % 1013,3 hPa 0,0 mm 3,5 km/h (1 Bft) O-NO 77 ° 0 min 0,000 mm 0,0 UV-I 51 W/m² 1,2 °C 14,3 °C 6,4 km/h (2 Bft)
01.05.2019 17:49 14,3 °C 38 % 1013,2 hPa 0,0 mm 1,3 km/h (1 Bft) O-NO 78 ° 0 min 0,000 mm 0,0 UV-I 51 W/m² 0,2 °C 14,3 °C 3,2 km/h (1 Bft)
01.05.2019 17:50 14,3 °C 42 % 1013,1 hPa 0,0 mm 1,5 km/h (1 Bft) S 183 ° 0 min 0,000 mm 1,3 UV-I 51 W/m² 1,6 °C 14,3 °C 3,2 km/h (1 Bft)
01.05.2019 17:51 14,3 °C 44 % 1013,1 hPa 0,0 mm 1,0 km/h (0 Bft) S-SW 194 ° 0 min 0,000 mm 1,4 UV-I 297 W/m² 2,2 °C 14,3 °C 3,2 km/h (1 Bft)
01.05.2019 17:52 14,3 °C 40 % 1013,1 hPa 0,0 mm 0,5 km/h (0 Bft) S-SW 196 ° 0 min 0,000 mm 1,2 UV-I 297 W/m² 0,9 °C 14,3 °C 1,6 km/h (1 Bft)
01.05.2019 17:53 14,3 °C 39 % 1013,1 hPa 0,0 mm 0,0 km/h (0 Bft) S-SW 194 ° 0 min 0,000 mm 1,4 UV-I 146 W/m² 0,5 °C 14,3 °C 0,0 km/h (0 Bft)
01.05.2019 17:54 14,3 °C 40 % 1013,2 hPa 0,0 mm 1,5 km/h (1 Bft) O 87 ° 0 min 0,000 mm 1,5 UV-I 237 W/m² 0,9 °C 14,3 °C 4,8 km/h (1 Bft)
01.05.2019 17:55 14,4 °C 41 % 1013,1 hPa 0,0 mm 1,8 km/h (1 Bft) O-NO 67 ° 0 min 0,000 mm 1,4 UV-I 243 W/m² 1,3 °C 14,4 °C 3,2 km/h (1 Bft)
01.05.2019 17:56 14,4 °C 41 % 1013,1 hPa 0,0 mm 1,4 km/h (1 Bft) NO 49 ° 0 min 0,000 mm 1,3 UV-I 211 W/m² 1,3 °C 14,4 °C 4,8 km/h (1 Bft)
01.05.2019 17:57 14,4 °C 41 % 1013,1 hPa 0,0 mm 3,8 km/h (1 Bft) N-NO 22 ° 0 min 0,000 mm 1,1 UV-I 74 W/m² 1,3 °C 14,4 °C 4,8 km/h (1 Bft)
01.05.2019 17:58 14,6 °C 40 % 1013,2 hPa 0,0 mm 5,4 km/h (1 Bft) N-NW 343 ° 0 min 0,000 mm 1,5 UV-I 74 W/m² 1,2 °C 14,6 °C 8,0 km/h (2 Bft)
01.05.2019 17:59 14,6 °C 40 % 1013,1 hPa 0,0 mm 3,0 km/h (1 Bft) N-NW 336 ° 0 min 0,000 mm 1,5 UV-I 74 W/m² 1,2 °C 14,6 °C 6,4 km/h (2 Bft)
01.05.2019 18:00 14,7 °C 41 % 1013,1 hPa 0,0 mm 4,5 km/h (1 Bft) N-NW 346 ° 0 min 0,000 mm 1,4 UV-I 244 W/m² 1,6 °C 14,7 °C 6,4 km/h (2 Bft)
01.05.2019 18:01 14,7 °C 42 % 1013,2 hPa 0,0 mm 3,9 km/h (1 Bft) N 355 ° 0 min 0,102 mm 1,3 UV-I 160 W/m² 1,9 °C 14,7 °C 4,8 km/h (1 Bft)
01.05.2019 18:02 14,7 °C 38 % 1013,1 hPa 0,0 mm 1,5 km/h (1 Bft) N-NW 338 ° 0 min 0,000 mm 1,2 UV-I 105 W/m² 0,5 °C 14,7 °C 3,2 km/h (1 Bft)
01.05.2019 18:03 14,7 °C 41 % 1013,1 hPa 0,0 mm 1,6 km/h (1 Bft) N-NW 338 ° 0 min 0,000 mm 0,0 UV-I 95 W/m² 1,6 °C 14,7 °C 3,2 km/h (1 Bft)
01.05.2019 18:04 14,7 °C 43 % 1013,1 hPa 0,0 mm 5,8 km/h (2 Bft) NW 315 ° 0 min 0,000 mm 1,1 UV-I 128 W/m² 2,3 °C 14,7 °C 8,0 km/h (2 Bft)
01.05.2019 18:05 14,7 °C 42 % 1013,1 hPa 0,0 mm 6,4 km/h (2 Bft) NW 323 ° 0 min 0,000 mm 1,1 UV-I 149 W/m² 1,9 °C 14,7 °C 8,0 km/h (2 Bft)
01.05.2019 18:06 14,7 °C 42 % 1013,2 hPa 0,0 mm 2,5 km/h (1 Bft) NW 323 ° 0 min 0,000 mm 1,1 UV-I 169 W/m² 1,9 °C 14,7 °C 4,8 km/h (1 Bft)
01.05.2019 18:07 14,6 °C 40 % 1013,1 hPa 0,0 mm 1,0 km/h (0 Bft) NW 323 ° 0 min 0,000 mm 1,1 UV-I 163 W/m² 1,2 °C 14,6 °C 3,2 km/h (1 Bft)
01.05.2019 18:08 14,6 °C 39 % 1013,1 hPa 0,0 mm 1,3 km/h (1 Bft) NW 323 ° 0 min 0,000 mm 1,0 UV-I 169 W/m² 0,8 °C 14,6 °C 3,2 km/h (1 Bft)
01.05.2019 18:09 14,6 °C 41 % 1013,1 hPa 0,0 mm 0,0 km/h (0 Bft) NW 323 ° 0 min 0,000 mm 1,1 UV-I 244 W/m² 1,5 °C 14,6 °C 0,0 km/h (0 Bft)
01.05.2019 18:10 14,5 °C 41 % 1013,1 hPa 0,0 mm 0,0 km/h (0 Bft) NW 323 ° 0 min 0,000 mm 1,3 UV-I 223 W/m² 1,4 °C 14,5 °C 0,0 km/h (0 Bft)
01.05.2019 18:11 14,4 °C 41 % 1013,1 hPa 0,0 mm 2,5 km/h (1 Bft) N-NW 346 ° 0 min 0,000 mm 1,1 UV-I 165 W/m² 1,3 °C 14,4 °C 6,4 km/h (2 Bft)
01.05.2019 18:12 14,5 °C 41 % 1013,1 hPa 0,0 mm 3,6 km/h (1 Bft) N 355 ° 0 min 0,000 mm 1,1 UV-I 186 W/m² 1,4 °C 14,5 °C 6,4 km/h (2 Bft)
01.05.2019 18:13 14,6 °C 42 % 1013,1 hPa 0,0 mm 4,8 km/h (1 Bft) N-NO 16 ° 0 min 0,000 mm 1,1 UV-I 274 W/m² 1,8 °C 14,6 °C 6,4 km/h (2 Bft)
01.05.2019 18:14 14,6 °C 40 % 1013,1 hPa 0,0 mm 3,0 km/h (1 Bft) NO 38 ° 0 min 0,000 mm 1,2 UV-I 281 W/m² 1,2 °C 14,6 °C 4,8 km/h (1 Bft)
01.05.2019 18:15 14,7 °C 39 % 1013,1 hPa 0,0 mm 3,7 km/h (1 Bft) N 355 ° 0 min 0,000 mm 1,1 UV-I 199 W/m² 0,9 °C 14,7 °C 4,8 km/h (1 Bft)
01.05.2019 18:16 14,7 °C 41 % 1013,1 hPa 0,0 mm 5,4 km/h (1 Bft) N-NO 18 ° 0 min 0,000 mm 1,0 UV-I 223 W/m² 1,6 °C 14,7 °C 8,0 km/h (2 Bft)
01.05.2019 18:17 14,8 °C 40 % 1013,1 hPa 0,0 mm 3,3 km/h (1 Bft) O 80 ° 0 min 0,000 mm 1,0 UV-I 225 W/m² 1,3 °C 14,8 °C 4,8 km/h (1 Bft)
01.05.2019 18:18 14,7 °C 39 % 1013,1 hPa 0,0 mm 3,9 km/h (1 Bft) O 87 ° 0 min 0,000 mm 1,0 UV-I 132 W/m² 0,9 °C 14,7 °C 4,8 km/h (1 Bft)
01.05.2019 18:19 14,6 °C 39 % 1013,1 hPa 0,0 mm 1,6 km/h (1 Bft) O 90 ° 0 min 0,000 mm 0,9 UV-I 74 W/m² 0,8 °C 14,6 °C 3,2 km/h (1 Bft)
01.05.2019 18:20 14,6 °C 39 % 1013,1 hPa 0,0 mm 4,2 km/h (1 Bft) O-NO 78 ° 0 min 0,000 mm 0,9 UV-I 107 W/m² 0,8 °C 14,6 °C 6,4 km/h (2 Bft)
01.05.2019 18:21 14,4 °C 39 % 1013,1 hPa 0,0 mm 5,4 km/h (1 Bft) O-SO 102 ° 0 min 0,000 mm 0,9 UV-I 113 W/m² 0,6 °C 14,4 °C 6,4 km/h (2 Bft)
01.05.2019 18:22 14,4 °C 40 % 1013,0 hPa 0,0 mm 3,6 km/h (1 Bft) O-SO 113 ° 0 min 0,000 mm 0,9 UV-I 77 W/m² 1,0 °C 14,4 °C 6,4 km/h (2 Bft)
01.05.2019 18:23 14,3 °C 40 % 1013,0 hPa 0,0 mm 2,7 km/h (1 Bft) O-NO 72 ° 0 min 0,000 mm 0,9 UV-I 81 W/m² 0,9 °C 14,3 °C 4,8 km/h (1 Bft)
01.05.2019 18:24 14,3 °C 40 % 1013,0 hPa 0,0 mm 3,4 km/h (1 Bft) NO 45 ° 0 min 0,000 mm 0,9 UV-I 83 W/m² 0,9 °C 14,3 °C 6,4 km/h (2 Bft)
01.05.2019 18:25 14,3 °C 41 % 1013,0 hPa 0,0 mm 3,1 km/h (1 Bft) N 349 ° 0 min 0,000 mm 0,9 UV-I 128 W/m² 1,2 °C 14,3 °C 8,0 km/h (2 Bft)
01.05.2019 18:26 14,3 °C 41 % 1013,0 hPa 0,0 mm 1,9 km/h (1 Bft) NO 51 ° 0 min 0,000 mm 1,0 UV-I 186 W/m² 1,2 °C 14,3 °C 3,2 km/h (1 Bft)
01.05.2019 18:27 14,3 °C 40 % 1013,0 hPa 0,0 mm 1,0 km/h (0 Bft) NO 51 ° 0 min 0,000 mm 0,9 UV-I 188 W/m² 0,9 °C 14,3 °C 3,2 km/h (1 Bft)
01.05.2019 18:28 14,4 °C 40 % 1013,0 hPa 0,0 mm 0,9 km/h (0 Bft) NO 51 ° 0 min 0,000 mm 1,0 UV-I 199 W/m² 1,0 °C 14,4 °C 4,8 km/h (1 Bft)
01.05.2019 18:29 14,4 °C 40 % 1013,0 hPa 0,0 mm 3,7 km/h (1 Bft) NO 48 ° 0 min 0,000 mm 0,9 UV-I 193 W/m² 1,0 °C 14,4 °C 8,0 km/h (2 Bft)
01.05.2019 18:30 14,4 °C 39 % 1013,0 hPa 0,0 mm 4,7 km/h (1 Bft) NO 36 ° 0 min 0,000 mm 0,9 UV-I 181 W/m² 0,6 °C 14,4 °C 8,0 km/h (2 Bft)
01.05.2019 18:31 14,4 °C 39 % 1013,0 hPa 0,0 mm 4,6 km/h (1 Bft) O-NO 77 ° 0 min 0,000 mm 0,9 UV-I 144 W/m² 0,6 °C 14,4 °C 6,4 km/h (2 Bft)
01.05.2019 18:32 14,4 °C 39 % 1013,0 hPa 0,0 mm 3,6 km/h (1 Bft) O-NO 57 ° 0 min 0,000 mm 0,9 UV-I 111 W/m² 0,6 °C 14,4 °C 6,4 km/h (2 Bft)
01.05.2019 18:33 14,4 °C 41 % 1013,0 hPa 0,0 mm 3,7 km/h (1 Bft) O 86 ° 0 min 0,000 mm 0,8 UV-I 118 W/m² 1,3 °C 14,4 °C 8,0 km/h (2 Bft)
01.05.2019 18:34 14,4 °C 40 % 1013,0 hPa 0,0 mm 9,4 km/h (2 Bft) O 86 ° 0 min 0,000 mm 0,8 UV-I 97 W/m² 1,0 °C 14,4 °C 14,5 km/h (3 Bft)
01.05.2019 18:35 14,4 °C 41 % 1013,0 hPa 0,0 mm 6,4 km/h (2 Bft) O-NO 63 ° 0 min 0,000 mm 0,9 UV-I 142 W/m² 1,3 °C 14,4 °C 8,0 km/h (2 Bft)
01.05.2019 18:36 14,4 °C 41 % 1013,0 hPa 0,0 mm 7,4 km/h (2 Bft) O 89 ° 0 min 0,000 mm 0,9 UV-I 165 W/m² 1,3 °C 14,4 °C 9,7 km/h (2 Bft)
01.05.2019 18:37 14,4 °C 41 % 1013,0 hPa 0,0 mm 5,4 km/h (1 Bft) NO 52 ° 0 min 0,000 mm 0,8 UV-I 137 W/m² 1,3 °C 14,4 °C 9,7 km/h (2 Bft)
01.05.2019 18:38 14,3 °C 41 % 1013,0 hPa 0,0 mm 4,2 km/h (1 Bft) O-SO 109 ° 0 min 0,000 mm 0,8 UV-I 156 W/m² 1,2 °C 14,3 °C 6,4 km/h (2 Bft)
01.05.2019 18:39 14,3 °C 42 % 1013,0 hPa 0,0 mm 2,1 km/h (1 Bft) NO 44 ° 0 min 0,000 mm 0,8 UV-I 156 W/m² 1,6 °C 14,3 °C 4,8 km/h (1 Bft)
01.05.2019 18:40 14,3 °C 39 % 1013,0 hPa 0,0 mm 5,5 km/h (1 Bft) N-NO 33 ° 0 min 0,000 mm 0,8 UV-I 146 W/m² 0,5 °C 14,3 °C 8,0 km/h (2 Bft)
01.05.2019 18:41 14,3 °C 41 % 1013,0 hPa 0,0 mm 6,4 km/h (2 Bft) O-NO 57 ° 0 min 0,000 mm 0,8 UV-I 137 W/m² 1,2 °C 14,3 °C 8,0 km/h (2 Bft)
01.05.2019 18:42 14,3 °C 39 % 1013,0 hPa 0,0 mm 5,2 km/h (1 Bft) NO 42 ° 0 min 0,000 mm 0,8 UV-I 142 W/m² 0,5 °C 14,3 °C 8,0 km/h (2 Bft)
01.05.2019 18:43 14,3 °C 40 % 1013,0 hPa 0,0 mm 2,5 km/h (1 Bft) NO 45 ° 0 min 0,000 mm 0,7 UV-I 155 W/m² 0,9 °C 14,3 °C 4,8 km/h (1 Bft)
01.05.2019 18:44 14,3 °C 38 % 1012,9 hPa 0,0 mm 3,2 km/h (1 Bft) NO 47 ° 0 min 0,000 mm 0,8 UV-I 109 W/m² 0,2 °C 14,3 °C 6,4 km/h (2 Bft)
01.05.2019 18:45 14,2 °C 38 % 1013,0 hPa 0,0 mm 4,0 km/h (1 Bft) O-NO 58 ° 0 min 0,000 mm 0,7 UV-I 111 W/m² 0,1 °C 14,2 °C 6,4 km/h (2 Bft)
01.05.2019 18:46 14,2 °C 39 % 1013,0 hPa 0,0 mm 4,3 km/h (1 Bft) O-NO 58 ° 0 min 0,000 mm 0,7 UV-I 113 W/m² 0,5 °C 14,2 °C 6,4 km/h (2 Bft)
01.05.2019 18:47 14,2 °C 38 % 1012,9 hPa 0,0 mm 3,2 km/h (1 Bft) O-NO 58 ° 0 min 0,000 mm 0,7 UV-I 148 W/m² 0,1 °C 14,2 °C 6,4 km/h (2 Bft)
01.05.2019 18:48 14,2 °C 38 % 1012,9 hPa 0,0 mm 2,5 km/h (1 Bft) NO 55 ° 0 min 0,000 mm 0,7 UV-I 171 W/m² 0,1 °C 14,2 °C 6,4 km/h (2 Bft)
01.05.2019 18:49 14,2 °C 40 % 1012,9 hPa 0,0 mm 3,2 km/h (1 Bft) NO 53 ° 0 min 0,000 mm 0,7 UV-I 158 W/m² 0,8 °C 14,2 °C 4,8 km/h (1 Bft)
01.05.2019 18:50 14,2 °C 43 % 1013,0 hPa 0,0 mm 4,0 km/h (1 Bft) NO 56 ° 0 min 0,000 mm 0,7 UV-I 149 W/m² 1,8 °C 14,2 °C 4,8 km/h (1 Bft)
01.05.2019 18:51 14,1 °C 49 % 1013,0 hPa 0,0 mm 2,4 km/h (1 Bft) N-NO 21 ° 0 min 0,000 mm 0,7 UV-I 128 W/m² 3,6 °C 14,1 °C 6,4 km/h (2 Bft)
01.05.2019 18:52 14,1 °C 49 % 1012,9 hPa 0,0 mm 3,5 km/h (1 Bft) N 360 ° 0 min 0,000 mm 0,7 UV-I 128 W/m² 3,6 °C 14,1 °C 4,8 km/h (1 Bft)
01.05.2019 18:53 14,1 °C 43 % 1012,9 hPa 0,0 mm 4,0 km/h (1 Bft) N 5 ° 0 min 0,000 mm 0,7 UV-I 149 W/m² 1,7 °C 14,1 °C 6,4 km/h (2 Bft)
01.05.2019 18:54 14,1 °C 46 % 1013,0 hPa 0,0 mm 5,6 km/h (1 Bft) O-NO 76 ° 0 min 0,000 mm 0,7 UV-I 137 W/m² 2,7 °C 14,1 °C 8,0 km/h (2 Bft)
01.05.2019 18:55 14,1 °C 42 % 1013,0 hPa 0,0 mm 1,5 km/h (1 Bft) O-NO 76 ° 0 min 0,000 mm 0,7 UV-I 109 W/m² 1,4 °C 14,1 °C 3,2 km/h (1 Bft)
01.05.2019 18:56 14,1 °C 41 % 1012,9 hPa 0,0 mm 5,6 km/h (1 Bft) NO 35 ° 0 min 0,000 mm 0,7 UV-I 172 W/m² 1,1 °C 14,1 °C 8,0 km/h (2 Bft)
01.05.2019 18:57 14,1 °C 42 % 1012,9 hPa 0,0 mm 0,3 km/h (0 Bft) NO 35 ° 0 min 0,000 mm 0,7 UV-I 179 W/m² 1,4 °C 14,1 °C 1,6 km/h (1 Bft)
01.05.2019 18:58 14,1 °C 40 % 1013,0 hPa 0,0 mm 2,2 km/h (1 Bft) O 96 ° 0 min 0,000 mm 0,7 UV-I 178 W/m² 0,7 °C 14,1 °C 3,2 km/h (1 Bft)
01.05.2019 18:59 14,1 °C 41 % 1012,9 hPa 0,0 mm 4,0 km/h (1 Bft) O-NO 72 ° 0 min 0,000 mm 0,6 UV-I 156 W/m² 1,1 °C 14,1 °C 4,8 km/h (1 Bft)
01.05.2019 19:00 14,1 °C 40 % 1012,9 hPa 0,0 mm 3,8 km/h (1 Bft) O-NO 78 ° 0 min 0,000 mm 0,6 UV-I 139 W/m² 0,7 °C 14,1 °C 4,8 km/h (1 Bft)
01.05.2019 19:01 14,1 °C 41 % 1012,9 hPa 0,0 mm 3,7 km/h (1 Bft) O-NO 73 ° 0 min 0,101 mm 0,6 UV-I 130 W/m² 1,1 °C 14,1 °C 4,8 km/h (1 Bft)
01.05.2019 19:02 13,9 °C 45 % 1012,9 hPa 0,0 mm 5,1 km/h (1 Bft) NO 56 ° 0 min 0,000 mm 0,6 UV-I 111 W/m² 2,2 °C 13,9 °C 9,7 km/h (2 Bft)
01.05.2019 19:03 13,9 °C 44 % 1012,9 hPa 0,0 mm 2,1 km/h (1 Bft) NO 55 ° 0 min 0,000 mm 0,6 UV-I 120 W/m² 1,9 °C 13,9 °C 4,8 km/h (1 Bft)
01.05.2019 19:04 13,8 °C 45 % 1012,9 hPa 0,0 mm 3,3 km/h (1 Bft) O-NO 59 ° 0 min 0,000 mm 0,6 UV-I 127 W/m² 2,1 °C 13,8 °C 6,4 km/h (2 Bft)
01.05.2019 19:05 13,8 °C 43 % 1012,9 hPa 0,0 mm 1,6 km/h (1 Bft) O-NO 59 ° 0 min 0,000 mm 0,6 UV-I 141 W/m² 1,4 °C 13,8 °C 4,8 km/h (1 Bft)
01.05.2019 19:06 13,8 °C 43 % 1012,9 hPa 0,0 mm 2,7 km/h (1 Bft) O-NO 78 ° 0 min 0,000 mm 0,6 UV-I 135 W/m² 1,4 °C 13,8 °C 6,4 km/h (2 Bft)
01.05.2019 19:07 13,8 °C 41 % 1012,9 hPa 0,0 mm 2,2 km/h (1 Bft) O-NO 78 ° 0 min 0,000 mm 0,6 UV-I 141 W/m² 0,8 °C 13,8 °C 4,8 km/h (1 Bft)
01.05.2019 19:08 13,9 °C 40 % 1012,9 hPa 0,0 mm 6,1 km/h (2 Bft) NO 34 ° 0 min 0,000 mm 0,5 UV-I 142 W/m² 0,5 °C 13,9 °C 8,0 km/h (2 Bft)
01.05.2019 19:09 13,9 °C 39 % 1012,9 hPa 0,0 mm 2,6 km/h (1 Bft) NO 38 ° 0 min 0,000 mm 0,5 UV-I 135 W/m² 0,2 °C 13,9 °C 8,0 km/h (2 Bft)
01.05.2019 19:10 13,8 °C 40 % 1012,9 hPa 0,0 mm 4,6 km/h (1 Bft) O-NO 72 ° 0 min 0,000 mm 0,5 UV-I 116 W/m² 0,4 °C 13,8 °C 6,4 km/h (2 Bft)
01.05.2019 19:11 13,8 °C 40 % 1012,9 hPa 0,0 mm 2,5 km/h (1 Bft) O-NO 74 ° 0 min 0,000 mm 0,5 UV-I 104 W/m² 0,4 °C 13,8 °C 4,8 km/h (1 Bft)
01.05.2019 19:12 13,8 °C 40 % 1012,9 hPa 0,0 mm 4,9 km/h (1 Bft) NO 55 ° 0 min 0,000 mm 0,5 UV-I 109 W/m² 0,4 °C 13,8 °C 8,0 km/h (2 Bft)
01.05.2019 19:13 13,9 °C 39 % 1012,9 hPa 0,0 mm 5,4 km/h (1 Bft) O-NO 57 ° 0 min 0,000 mm 0,5 UV-I 123 W/m² 0,2 °C 13,9 °C 9,7 km/h (2 Bft)
01.05.2019 19:14 13,8 °C 39 % 1013,0 hPa 0,0 mm 4,6 km/h (1 Bft) O-NO 69 ° 0 min 0,000 mm 0,5 UV-I 123 W/m² 0,1 °C 13,8 °C 6,4 km/h (2 Bft)
01.05.2019 19:15 13,8 °C 40 % 1012,9 hPa 0,0 mm 3,9 km/h (1 Bft) O-NO 78 ° 0 min 0,000 mm 0,5 UV-I 121 W/m² 0,4 °C 13,8 °C 4,8 km/h (1 Bft)
01.05.2019 19:16 13,8 °C 44 % 1012,9 hPa 0,0 mm 5,2 km/h (1 Bft) O-NO 68 ° 0 min 0,000 mm 0,5 UV-I 120 W/m² 1,8 °C 13,8 °C 6,4 km/h (2 Bft)
01.05.2019 19:17 13,7 °C 39 % 1012,9 hPa 0,0 mm 2,9 km/h (1 Bft) O-NO 66 ° 0 min 0,000 mm 0,0 UV-I 116 W/m² 0,0 °C 13,7 °C 4,8 km/h (1 Bft)
01.05.2019 19:18 13,7 °C 43 % 1012,9 hPa 0,0 mm 2,2 km/h (1 Bft) O-NO 66 ° 0 min 0,000 mm 0,0 UV-I 113 W/m² 1,4 °C 13,7 °C 3,2 km/h (1 Bft)
01.05.2019 19:19 13,7 °C 42 % 1012,9 hPa 0,0 mm 4,4 km/h (1 Bft) O-NO 69 ° 0 min 0,000 mm 0,0 UV-I 109 W/m² 1,0 °C 13,7 °C 6,4 km/h (2 Bft)
01.05.2019 19:20 13,7 °C 45 % 1012,9 hPa 0,0 mm 4,0 km/h (1 Bft) O 83 ° 0 min 0,000 mm 0,0 UV-I 105 W/m² 2,0 °C 13,7 °C 8,0 km/h (2 Bft)
01.05.2019 19:21 13,6 °C 44 % 1012,9 hPa 0,0 mm 3,7 km/h (1 Bft) NO 45 ° 0 min 0,000 mm 0,0 UV-I 104 W/m² 1,6 °C 13,6 °C 6,4 km/h (2 Bft)
01.05.2019 19:22 13,5 °C 46 % 1012,9 hPa 0,0 mm 0,5 km/h (0 Bft) NO 45 ° 0 min 0,000 mm 0,0 UV-I 100 W/m² 2,1 °C 13,5 °C 1,6 km/h (1 Bft)
01.05.2019 19:23 13,4 °C 46 % 1012,9 hPa 0,0 mm 2,0 km/h (1 Bft) O 93 ° 0 min 0,000 mm 0,0 UV-I 98 W/m² 2,0 °C 13,4 °C 4,8 km/h (1 Bft)
01.05.2019 19:24 13,4 °C 44 % 1012,9 hPa 0,0 mm 1,0 km/h (0 Bft) O 92 ° 0 min 0,000 mm 0,0 UV-I 97 W/m² 1,4 °C 13,4 °C 3,2 km/h (1 Bft)
01.05.2019 19:25 13,5 °C 43 % 1012,9 hPa 0,0 mm 2,8 km/h (1 Bft) NO 55 ° 0 min 0,000 mm 0,0 UV-I 91 W/m² 1,2 °C 13,5 °C 4,8 km/h (1 Bft)
01.05.2019 19:26 13,5 °C 45 % 1012,9 hPa 0,0 mm 2,8 km/h (1 Bft) N-NO 24 ° 0 min 0,000 mm 0,0 UV-I 90 W/m² 1,8 °C 13,5 °C 4,8 km/h (1 Bft)
01.05.2019 19:27 13,6 °C 44 % 1013,0 hPa 0,0 mm 1,9 km/h (1 Bft) O-NO 75 ° 0 min 0,000 mm 0,0 UV-I 88 W/m² 1,6 °C 13,6 °C 6,4 km/h (2 Bft)
01.05.2019 19:28 13,5 °C 45 % 1013,0 hPa 0,0 mm 3,0 km/h (1 Bft) O-NO 65 ° 0 min 0,000 mm 0,0 UV-I 84 W/m² 1,8 °C 13,5 °C 6,4 km/h (2 Bft)
01.05.2019 19:29 13,5 °C 46 % 1012,9 hPa 0,0 mm 0,6 km/h (0 Bft) O-NO 65 ° 0 min 0,000 mm 0,0 UV-I 83 W/m² 2,1 °C 13,5 °C 1,6 km/h (1 Bft)
01.05.2019 19:30 13,4 °C 47 % 1013,0 hPa 0,0 mm 0,1 km/h (0 Bft) O-NO 65 ° 0 min 0,000 mm 0,0 UV-I 81 W/m² 2,3 °C 13,4 °C 1,6 km/h (1 Bft)
01.05.2019 19:31 13,3 °C 46 % 1012,9 hPa 0,0 mm 0,0 km/h (0 Bft) O-NO 65 ° 0 min 0,000 mm 0,0 UV-I 76 W/m² 1,9 °C 13,3 °C 0,0 km/h (0 Bft)
01.05.2019 19:32 13,2 °C 47 % 1013,0 hPa 0,0 mm 0,4 km/h (0 Bft) O-NO 65 ° 0 min 0,000 mm 0,0 UV-I 74 W/m² 2,1 °C 13,2 °C 1,6 km/h (1 Bft)
01.05.2019 19:33 13,1 °C 48 % 1013,0 hPa 0,0 mm 0,0 km/h (0 Bft) O-NO 66 ° 0 min 0,000 mm 0,0 UV-I 72 W/m² 2,3 °C 13,1 °C 0,0 km/h (0 Bft)
01.05.2019 19:34 13,1 °C 47 % 1013,0 hPa 0,0 mm 0,0 km/h (0 Bft) O-NO 65 ° 0 min 0,000 mm 0,0 UV-I 70 W/m² 2,0 °C 13,1 °C 0,0 km/h (0 Bft)
01.05.2019 19:35 13,1 °C 49 % 1012,9 hPa 0,0 mm 0,5 km/h (0 Bft) O-NO 65 ° 0 min 0,000 mm 0,0 UV-I 69 W/m² 2,6 °C 13,1 °C 1,6 km/h (1 Bft)
01.05.2019 19:36 13,0 °C 45 % 1013,0 hPa 0,0 mm 0,2 km/h (0 Bft) O-NO 65 ° 0 min 0,000 mm 0,0 UV-I 65 W/m² 1,4 °C 13,0 °C 1,6 km/h (1 Bft)
01.05.2019 19:37 12,9 °C 45 % 1013,0 hPa 0,0 mm 1,1 km/h (1 Bft) O-NO 66 ° 0 min 0,000 mm 0,0 UV-I 62 W/m² 1,3 °C 12,9 °C 3,2 km/h (1 Bft)
01.05.2019 19:38 12,8 °C 48 % 1012,9 hPa 0,0 mm 0,4 km/h (0 Bft) O-NO 66 ° 0 min 0,000 mm 0,0 UV-I 60 W/m² 2,1 °C 12,8 °C 1,6 km/h (1 Bft)
01.05.2019 19:39 12,7 °C 47 % 1013,0 hPa 0,0 mm 0,0 km/h (0 Bft) O-NO 66 ° 0 min 0,000 mm 0,0 UV-I 58 W/m² 1,7 °C 12,7 °C 0,0 km/h (0 Bft)
01.05.2019 19:40 12,7 °C 49 % 1012,9 hPa 0,0 mm 0,2 km/h (0 Bft) O-NO 66 ° 0 min 0,000 mm 0,0 UV-I 56 W/m² 2,3 °C 12,7 °C 1,6 km/h (1 Bft)
01.05.2019 19:41 12,6 °C 48 % 1012,9 hPa 0,0 mm 0,0 km/h (0 Bft) O-NO 66 ° 0 min 0,000 mm 0,0 UV-I 53 W/m² 1,9 °C 12,6 °C 0,0 km/h (0 Bft)
01.05.2019 19:42 12,6 °C 47 % 1012,9 hPa 0,0 mm 0,4 km/h (0 Bft) O-NO 66 ° 0 min 0,000 mm 0,0 UV-I 40 W/m² 1,6 °C 12,6 °C 1,6 km/h (1 Bft)
01.05.2019 19:43 12,5 °C 52 % 1012,9 hPa 0,0 mm 0,8 km/h (0 Bft) O-NO 66 ° 0 min 0,000 mm 0,0 UV-I 39 W/m² 2,9 °C 12,5 °C 3,2 km/h (1 Bft)
01.05.2019 19:44 12,4 °C 49 % 1012,9 hPa 0,0 mm 1,2 km/h (1 Bft) O-NO 66 ° 0 min 0,000 mm 0,0 UV-I 37 W/m² 2,0 °C 12,4 °C 3,2 km/h (1 Bft)
01.05.2019 19:45 12,4 °C 50 % 1012,9 hPa 0,0 mm 0,9 km/h (0 Bft) O-NO 66 ° 0 min 0,000 mm 0,0 UV-I 35 W/m² 2,3 °C 12,4 °C 3,2 km/h (1 Bft)
01.05.2019 19:46 12,3 °C 49 % 1012,9 hPa 0,0 mm 0,0 km/h (0 Bft) O-NO 66 ° 0 min 0,000 mm 0,0 UV-I 35 W/m² 1,9 °C 12,3 °C 0,0 km/h (0 Bft)
01.05.2019 19:47 12,3 °C 50 % 1012,9 hPa 0,0 mm 0,5 km/h (0 Bft) O-NO 66 ° 0 min 0,000 mm 0,0 UV-I 35 W/m² 2,2 °C 12,3 °C 1,6 km/h (1 Bft)
01.05.2019 19:48 12,2 °C 51 % 1012,9 hPa 0,0 mm 0,6 km/h (0 Bft) O-NO 66 ° 0 min 0,000 mm 0,0 UV-I 35 W/m² 2,4 °C 12,2 °C 3,2 km/h (1 Bft)
01.05.2019 19:49 12,2 °C 50 % 1012,9 hPa 0,0 mm 0,5 km/h (0 Bft) O-NO 66 ° 0 min 0,000 mm 0,0 UV-I 33 W/m² 2,1 °C 12,2 °C 1,6 km/h (1 Bft)
01.05.2019 19:50 12,1 °C 48 % 1012,9 hPa 0,0 mm 0,2 km/h (0 Bft) O-NO 66 ° 0 min 0,000 mm 0,0 UV-I 33 W/m² 1,4 °C 12,1 °C 1,6 km/h (1 Bft)
01.05.2019 19:51 11,9 °C 50 % 1012,8 hPa 0,0 mm 0,0 km/h (0 Bft) O-NO 66 ° 0 min 0,000 mm 0,0 UV-I 33 W/m² 1,8 °C 11,9 °C 0,0 km/h (0 Bft)
01.05.2019 19:52 11,9 °C 48 % 1012,9 hPa 0,0 mm 0,0 km/h (0 Bft) O-NO 66 ° 0 min 0,000 mm 0,0 UV-I 33 W/m² 1,2 °C 11,9 °C 0,0 km/h (0 Bft)
01.05.2019 19:53 11,9 °C 47 % 1012,8 hPa 0,0 mm 0,0 km/h (0 Bft) O-NO 66 ° 0 min 0,000 mm 0,0 UV-I 33 W/m² 1,0 °C 11,9 °C 0,0 km/h (0 Bft)
01.05.2019 19:54 11,9 °C 48 % 1012,9 hPa 0,0 mm 0,1 km/h (0 Bft) O-NO 66 ° 0 min 0,000 mm 0,0 UV-I 30 W/m² 1,2 °C 11,9 °C 1,6 km/h (1 Bft)
01.05.2019 19:55 11,9 °C 49 % 1012,9 hPa 0,0 mm 0,3 km/h (0 Bft) O-NO 66 ° 0 min 0,000 mm 0,0 UV-I 28 W/m² 1,5 °C 11,9 °C 1,6 km/h (1 Bft)
01.05.2019 19:56 11,9 °C 49 % 1012,9 hPa 0,0 mm 0,1 km/h (0 Bft) O-NO 66 ° 0 min 0,000 mm 0,0 UV-I 28 W/m² 1,5 °C 11,9 °C 1,6 km/h (1 Bft)
01.05.2019 19:57 11,8 °C 50 % 1012,9 hPa 0,0 mm 0,0 km/h (0 Bft) O-NO 66 ° 0 min 0,000 mm 0,0 UV-I 26 W/m² 1,7 °C 11,8 °C 0,0 km/h (0 Bft)
01.05.2019 19:58 11,9 °C 48 % 1012,9 hPa 0,0 mm 0,0 km/h (0 Bft) O-NO 66 ° 0 min 0,000 mm 0,0 UV-I 25 W/m² 1,2 °C 11,9 °C 0,0 km/h (0 Bft)
01.05.2019 19:59 11,9 °C 48 % 1012,9 hPa 0,0 mm 0,0 km/h (0 Bft) O-NO 66 ° 0 min 0,000 mm 0,0 UV-I 23 W/m² 1,2 °C 11,9 °C 0,0 km/h (0 Bft)
01.05.2019 20:00 11,9 °C 49 % 1012,9 hPa 0,0 mm 0,0 km/h (0 Bft) O-NO 66 ° 0 min 0,000 mm 0,0 UV-I 21 W/m² 1,5 °C 11,9 °C 0,0 km/h (0 Bft)
01.05.2019 20:01 11,8 °C 52 % 1012,9 hPa 0,0 mm 0,0 km/h (0 Bft) O-NO 66 ° 0 min 0,051 mm 0,0 UV-I 19 W/m² 2,3 °C 11,8 °C 0,0 km/h (0 Bft)
01.05.2019 20:02 11,8 °C 48 % 1012,9 hPa 0,0 mm 0,0 km/h (0 Bft) O-NO 66 ° 0 min 0,000 mm 0,0 UV-I 19 W/m² 1,2 °C 11,8 °C 0,0 km/h (0 Bft)
01.05.2019 20:03 11,8 °C 48 % 1012,9 hPa 0,0 mm 0,1 km/h (0 Bft) O-NO 66 ° 0 min 0,000 mm 0,0 UV-I 18 W/m² 1,2 °C 11,8 °C 1,6 km/h (1 Bft)
01.05.2019 20:04 11,8 °C 49 % 1012,9 hPa 0,0 mm 0,0 km/h (0 Bft) O-NO 66 ° 0 min 0,000 mm 0,0 UV-I 18 W/m² 1,4 °C 11,8 °C 0,0 km/h (0 Bft)
01.05.2019 20:05 11,8 °C 48 % 1012,9 hPa 0,0 mm 0,0 km/h (0 Bft) O-NO 66 ° 0 min 0,000 mm 0,0 UV-I 18 W/m² 1,2 °C 11,8 °C 0,0 km/h (0 Bft)
01.05.2019 20:06 11,8 °C 49 % 1012,9 hPa 0,0 mm 0,0 km/h (0 Bft) O-NO 66 ° 0 min 0,000 mm 0,0 UV-I 16 W/m² 1,4 °C 11,8 °C 0,0 km/h (0 Bft)
01.05.2019 20:07 11,7 °C 49 % 1012,9 hPa 0,0 mm 0,1 km/h (0 Bft) O-NO 66 ° 0 min 0,000 mm 0,0 UV-I 16 W/m² 1,3 °C 11,7 °C 1,6 km/h (1 Bft)
01.05.2019 20:08 11,7 °C 50 % 1012,9 hPa 0,0 mm 0,0 km/h (0 Bft) O-NO 66 ° 0 min 0,000 mm 0,0 UV-I 14 W/m² 1,6 °C 11,7 °C 0,0 km/h (0 Bft)
01.05.2019 20:09 11,6 °C 50 % 1012,9 hPa 0,0 mm 0,4 km/h (0 Bft) O-NO 66 ° 0 min 0,000 mm 0,0 UV-I 14 W/m² 1,5 °C 11,6 °C 1,6 km/h (1 Bft)
01.05.2019 20:10 11,5 °C 50 % 1012,9 hPa 0,0 mm 0,3 km/h (0 Bft) O-NO 66 ° 0 min 0,000 mm 0,0 UV-I 14 W/m² 1,4 °C 11,5 °C 1,6 km/h (1 Bft)
01.05.2019 20:11 11,4 °C 50 % 1012,9 hPa 0,0 mm 0,4 km/h (0 Bft) O-NO 66 ° 0 min 0,000 mm 0,0 UV-I 14 W/m² 1,4 °C 11,4 °C 1,6 km/h (1 Bft)
01.05.2019 20:12 11,4 °C 51 % 1012,9 hPa 0,0 mm 0,0 km/h (0 Bft) O-NO 66 ° 0 min 0,000 mm 0,0 UV-I 12 W/m² 1,6 °C 11,4 °C 0,0 km/h (0 Bft)
01.05.2019 20:13 11,3 °C 50 % 1012,8 hPa 0,0 mm 0,0 km/h (0 Bft) O-NO 66 ° 0 min 0,000 mm 0,0 UV-I 12 W/m² 1,3 °C 11,3 °C 0,0 km/h (0 Bft)
01.05.2019 20:14 11,3 °C 51 % 1012,9 hPa 0,0 mm 1,6 km/h (1 Bft) O-NO 66 ° 0 min 0,000 mm 0,0 UV-I 12 W/m² 1,5 °C 11,3 °C 3,2 km/h (1 Bft)
01.05.2019 20:15 11,2 °C 50 % 1012,9 hPa 0,0 mm 0,6 km/h (0 Bft) O-NO 66 ° 0 min 0,000 mm 0,0 UV-I 11 W/m² 1,2 °C 11,2 °C 3,2 km/h (1 Bft)
01.05.2019 20:16 11,2 °C 52 % 1012,9 hPa 0,0 mm 0,1 km/h (0 Bft) O-NO 66 ° 0 min 0,000 mm 0,0 UV-I 11 W/m² 1,7 °C 11,2 °C 1,6 km/h (1 Bft)
01.05.2019 20:17 11,2 °C 52 % 1012,9 hPa 0,0 mm 0,0 km/h (0 Bft) O-NO 66 ° 0 min 0,000 mm 0,0 UV-I 11 W/m² 1,7 °C 11,2 °C 0,0 km/h (0 Bft)
01.05.2019 20:18 11,1 °C 52 % 1012,9 hPa 0,0 mm 0,0 km/h (0 Bft) O-NO 66 ° 0 min 0,000 mm 0,0 UV-I 9 W/m² 1,6 °C 11,1 °C 0,0 km/h (0 Bft)
01.05.2019 20:19 11,0 °C 53 % 1012,9 hPa 0,0 mm 0,0 km/h (0 Bft) O-NO 66 ° 0 min 0,000 mm 0,0 UV-I 9 W/m² 1,8 °C 11,0 °C 0,0 km/h (0 Bft)
01.05.2019 20:20 10,9 °C 53 % 1012,9 hPa 0,0 mm 0,0 km/h (0 Bft) O-NO 66 ° 0 min 0,000 mm 0,0 UV-I 7 W/m² 1,7 °C 10,9 °C 0,0 km/h (0 Bft)
01.05.2019 20:21 10,8 °C 54 % 1012,9 hPa 0,0 mm 0,0 km/h (0 Bft) O-NO 66 ° 0 min 0,000 mm 0,0 UV-I 7 W/m² 1,9 °C 10,8 °C 0,0 km/h (0 Bft)
01.05.2019 20:22 10,7 °C 55 % 1012,9 hPa 0,0 mm 0,0 km/h (0 Bft) O-NO 66 ° 0 min 0,000 mm 0,0 UV-I 7 W/m² 2,0 °C 10,7 °C 0,0 km/h (0 Bft)
01.05.2019 20:23 10,6 °C 55 % 1012,9 hPa 0,0 mm 0,0 km/h (0 Bft) O-NO 66 ° 0 min 0,000 mm 0,0 UV-I 7 W/m² 1,9 °C 10,6 °C 0,0 km/h (0 Bft)
01.05.2019 20:24 10,4 °C 57 % 1012,9 hPa 0,0 mm 0,0 km/h (0 Bft) O-NO 66 ° 0 min 0,000 mm 0,0 UV-I 5 W/m² 2,3 °C 10,4 °C 0,0 km/h (0 Bft)
01.05.2019 20:25 10,3 °C 57 % 1012,9 hPa 0,0 mm 0,0 km/h (0 Bft) O-NO 66 ° 0 min 0,000 mm 0,0 UV-I 5 W/m² 2,2 °C 10,3 °C 0,0 km/h (0 Bft)
01.05.2019 20:26 10,1 °C 56 % 1012,9 hPa 0,0 mm 0,0 km/h (0 Bft) O-NO 66 ° 0 min 0,000 mm 0,0 UV-I 5 W/m² 1,7 °C 10,1 °C 0,0 km/h (0 Bft)
01.05.2019 20:27 10,1 °C 56 % 1012,9 hPa 0,0 mm 0,0 km/h (0 Bft) O-NO 66 ° 0 min 0,000 mm 0,0 UV-I 5 W/m² 1,7 °C 10,1 °C 0,0 km/h (0 Bft)
01.05.2019 20:28 10,1 °C 56 % 1012,9 hPa 0,0 mm 0,0 km/h (0 Bft) O-NO 66 ° 0 min 0,000 mm 0,0 UV-I 5 W/m² 1,7 °C 10,1 °C 0,0 km/h (0 Bft)
01.05.2019 20:29 10,0 °C 57 % 1012,9 hPa 0,0 mm 0,0 km/h (0 Bft) O-NO 66 ° 0 min 0,000 mm 0,0 UV-I 0 W/m² 1,9 °C 10,0 °C 0,0 km/h (0 Bft)
01.05.2019 20:30 9,9 °C 57 % 1012,9 hPa 0,0 mm 0,0 km/h (0 Bft) O-NO 66 ° 0 min 0,000 mm 0,0 UV-I 0 W/m² 1,8 °C 9,9 °C 0,0 km/h (0 Bft)
01.05.2019 20:31 9,8 °C 57 % 1012,9 hPa 0,0 mm 0,0 km/h (0 Bft) O-NO 66 ° 0 min 0,000 mm 0,0 UV-I 0 W/m² 1,7 °C 9,8 °C 0,0 km/h (0 Bft)
01.05.2019 20:32 9,7 °C 58 % 1012,9 hPa 0,0 mm 0,0 km/h (0 Bft) O-NO 66 ° 0 min 0,000 mm 0,0 UV-I 0 W/m² 1,8 °C 9,7 °C 0,0 km/h (0 Bft)
01.05.2019 20:33 9,6 °C 57 % 1012,9 hPa 0,0 mm 0,0 km/h (0 Bft) O-NO 66 ° 0 min 0,000 mm 0,0 UV-I 0 W/m² 1,5 °C 9,6 °C 0,0 km/h (0 Bft)
01.05.2019 20:34 9,6 °C 57 % 1012,9 hPa 0,0 mm 0,0 km/h (0 Bft) O-NO 66 ° 0 min 0,000 mm 0,0 UV-I 0 W/m² 1,5 °C 9,6 °C 0,0 km/h (0 Bft)
01.05.2019 20:35 9,6 °C 58 % 1012,9 hPa 0,0 mm 0,0 km/h (0 Bft) O-NO 66 ° 0 min 0,000 mm 0,0 UV-I 0 W/m² 1,8 °C 9,6 °C 0,0 km/h (0 Bft)
01.05.2019 20:36 9,5 °C 58 % 1012,9 hPa 0,0 mm 1,0 km/h (0 Bft) O-NO 66 ° 0 min 0,000 mm 0,0 UV-I 0 W/m² 1,7 °C 9,5 °C 3,2 km/h (1 Bft)
01.05.2019 20:37 9,6 °C 57 % 1012,9 hPa 0,0 mm 1,6 km/h (1 Bft) O-NO 66 ° 0 min 0,000 mm 0,0 UV-I 0 W/m² 1,5 °C 9,6 °C 3,2 km/h (1 Bft)
01.05.2019 20:38 9,6 °C 57 % 1012,9 hPa 0,0 mm 1,5 km/h (1 Bft) O-NO 66 ° 0 min 0,000 mm 0,0 UV-I 0 W/m² 1,5 °C 9,6 °C 3,2 km/h (1 Bft)
01.05.2019 20:39 9,5 °C 57 % 1012,9 hPa 0,0 mm 0,9 km/h (0 Bft) O-NO 66 ° 0 min 0,000 mm 0,0 UV-I 0 W/m² 1,4 °C 9,5 °C 1,6 km/h (1 Bft)
01.05.2019 20:40 9,5 °C 57 % 1012,9 hPa 0,0 mm 1,7 km/h (1 Bft) O-NO 66 ° 0 min 0,000 mm 0,0 UV-I 0 W/m² 1,4 °C 9,5 °C 3,2 km/h (1 Bft)
01.05.2019 20:41 9,4 °C 57 % 1012,9 hPa 0,0 mm 0,9 km/h (0 Bft) O-NO 67 ° 0 min 0,000 mm 0,0 UV-I 0 W/m² 1,3 °C 9,4 °C 3,2 km/h (1 Bft)
01.05.2019 20:42 9,4 °C 58 % 1012,9 hPa 0,0 mm 0,3 km/h (0 Bft) O-NO 67 ° 0 min 0,000 mm 0,0 UV-I 0 W/m² 1,6 °C 9,4 °C 1,6 km/h (1 Bft)
01.05.2019 20:43 9,2 °C 58 % 1012,9 hPa 0,0 mm 0,5 km/h (0 Bft) O-NO 67 ° 0 min 0,000 mm 0,0 UV-I 0 W/m² 1,4 °C 9,2 °C 1,6 km/h (1 Bft)
01.05.2019 20:44 9,1 °C 59 % 1013,0 hPa 0,0 mm 0,1 km/h (0 Bft) O-NO 67 ° 0 min 0,000 mm 0,0 UV-I 0 W/m² 1,5 °C 9,1 °C 1,6 km/h (1 Bft)
01.05.2019 20:45 8,9 °C 60 % 1012,9 hPa 0,0 mm 0,4 km/h (0 Bft) O-NO 68 ° 0 min 0,000 mm 0,0 UV-I 0 W/m² 1,6 °C 8,9 °C 1,6 km/h (1 Bft)
01.05.2019 20:46 8,8 °C 61 % 1013,0 hPa 0,0 mm 0,3 km/h (0 Bft) O-NO 68 ° 0 min 0,000 mm 0,0 UV-I 0 W/m² 1,7 °C 8,8 °C 1,6 km/h (1 Bft)
01.05.2019 20:47 8,7 °C 61 % 1013,0 hPa 0,0 mm 0,1 km/h (0 Bft) O-NO 68 ° 0 min 0,000 mm 0,0 UV-I 0 W/m² 1,6 °C 8,7 °C 1,6 km/h (1 Bft)
01.05.2019 20:48 8,6 °C 61 % 1013,0 hPa 0,0 mm 1,0 km/h (0 Bft) O-NO 68 ° 0 min 0,000 mm 0,0 UV-I 0 W/m² 1,5 °C 8,6 °C 1,6 km/h (1 Bft)
01.05.2019 20:49 8,6 °C 61 % 1012,9 hPa 0,0 mm 2,6 km/h (1 Bft) S 170 ° 0 min 0,000 mm 0,0 UV-I 0 W/m² 1,5 °C 8,6 °C 3,2 km/h (1 Bft)
01.05.2019 20:50 8,6 °C 62 % 1013,0 hPa 0,0 mm 1,3 km/h (1 Bft) S 169 ° 0 min 0,000 mm 0,0 UV-I 0 W/m² 1,7 °C 8,6 °C 1,6 km/h (1 Bft)
01.05.2019 20:51 8,5 °C 63 % 1013,0 hPa 0,0 mm 3,3 km/h (1 Bft) S 170 ° 0 min 0,000 mm 0,0 UV-I 0 W/m² 1,9 °C 8,5 °C 6,4 km/h (2 Bft)
01.05.2019 20:52 8,4 °C 63 % 1013,0 hPa 0,0 mm 3,4 km/h (1 Bft) S 170 ° 0 min 0,000 mm 0,0 UV-I 0 W/m² 1,8 °C 8,4 °C 6,4 km/h (2 Bft)
01.05.2019 20:53 8,4 °C 64 % 1013,0 hPa 0,0 mm 2,1 km/h (1 Bft) S 170 ° 0 min 0,000 mm 0,0 UV-I 0 W/m² 2,0 °C 8,4 °C 6,4 km/h (2 Bft)
01.05.2019 20:54 8,3 °C 64 % 1013,0 hPa 0,0 mm 2,5 km/h (1 Bft) S 170 ° 0 min 0,000 mm 0,0 UV-I 0 W/m² 1,9 °C 8,3 °C 6,4 km/h (2 Bft)
01.05.2019 20:55 8,3 °C 63 % 1013,0 hPa 0,0 mm 4,2 km/h (1 Bft) S 170 ° 0 min 0,000 mm 0,0 UV-I 0 W/m² 1,7 °C 8,3 °C 6,4 km/h (2 Bft)
01.05.2019 20:56 8,3 °C 64 % 1013,1 hPa 0,0 mm 4,7 km/h (1 Bft) S 170 ° 0 min 0,000 mm 0,0 UV-I 0 W/m² 1,9 °C 7,9 °C 8,0 km/h (2 Bft)
01.05.2019 20:57 8,2 °C 64 % 1013,0 hPa 0,0 mm 4,6 km/h (1 Bft) S 170 ° 0 min 0,000 mm 0,0 UV-I 0 W/m² 1,8 °C 7,9 °C 6,4 km/h (2 Bft)
01.05.2019 20:58 8,1 °C 65 % 1013,0 hPa 0,0 mm 4,0 km/h (1 Bft) S 170 ° 0 min 0,000 mm 0,0 UV-I 0 W/m² 1,9 °C 8,1 °C 6,4 km/h (2 Bft)
01.05.2019 20:59 8,0 °C 65 % 1013,0 hPa 0,0 mm 4,2 km/h (1 Bft) S 170 ° 0 min 0,000 mm 0,0 UV-I 0 W/m² 1,8 °C 8,0 °C 6,4 km/h (2 Bft)
01.05.2019 21:00 7,9 °C 65 % 1013,0 hPa 0,0 mm 5,5 km/h (1 Bft) S 170 ° 0 min 0,000 mm 0,0 UV-I 0 W/m² 1,7 °C 7,2 °C 6,4 km/h (2 Bft)
01.05.2019 21:01 7,9 °C 65 % 1013,0 hPa 0,0 mm 4,7 km/h (1 Bft) S 170 ° 0 min 0,026 mm 0,0 UV-I 0 W/m² 1,7 °C 7,5 °C 8,0 km/h (2 Bft)
01.05.2019 21:02 7,9 °C 65 % 1013,1 hPa 0,0 mm 5,0 km/h (1 Bft) S-SO 156 ° 0 min 0,000 mm 0,0 UV-I 0 W/m² 1,7 °C 7,4 °C 8,0 km/h (2 Bft)
01.05.2019 21:03 7,8 °C 65 % 1013,1 hPa 0,0 mm 5,0 km/h (1 Bft) S-SO 156 ° 0 min 0,000 mm 0,0 UV-I 0 W/m² 1,6 °C 7,3 °C 8,0 km/h (2 Bft)
01.05.2019 21:04 7,9 °C 64 % 1013,0 hPa 0,0 mm 3,7 km/h (1 Bft) S-SO 156 ° 0 min 0,000 mm 0,0 UV-I 0 W/m² 1,5 °C 7,9 °C 4,8 km/h (1 Bft)
01.05.2019 21:05 7,9 °C 65 % 1013,1 hPa 0,0 mm 3,2 km/h (1 Bft) S-SO 156 ° 0 min 0,000 mm 0,0 UV-I 0 W/m² 1,7 °C 7,9 °C 4,8 km/h (1 Bft)
01.05.2019 21:06 7,8 °C 65 % 1013,0 hPa 0,0 mm 3,1 km/h (1 Bft) S-SO 156 ° 0 min 0,000 mm 0,0 UV-I 0 W/m² 1,6 °C 7,8 °C 4,8 km/h (1 Bft)
01.05.2019 21:07 7,8 °C 65 % 1013,1 hPa 0,0 mm 3,8 km/h (1 Bft) S-SO 156 ° 0 min 0,000 mm 0,0 UV-I 0 W/m² 1,6 °C 7,8 °C 4,8 km/h (1 Bft)
01.05.2019 21:08 7,8 °C 66 % 1013,1 hPa 0,0 mm 3,7 km/h (1 Bft) S-SO 156 ° 0 min 0,000 mm 0,0 UV-I 0 W/m² 1,9 °C 7,8 °C 4,8 km/h (1 Bft)
01.05.2019 21:09 7,7 °C 66 % 1013,1 hPa 0,0 mm 4,2 km/h (1 Bft) S-SO 156 ° 0 min 0,000 mm 0,0 UV-I 0 W/m² 1,8 °C 7,7 °C 8,0 km/h (2 Bft)
01.05.2019 21:10 7,7 °C 66 % 1013,1 hPa 0,0 mm 3,9 km/h (1 Bft) S-SO 156 ° 0 min 0,000 mm 0,0 UV-I 0 W/m² 1,8 °C 7,7 °C 4,8 km/h (1 Bft)
01.05.2019 21:11 7,7 °C 66 % 1013,1 hPa 0,0 mm 3,1 km/h (1 Bft) S-SO 156 ° 0 min 0,000 mm 0,0 UV-I 0 W/m² 1,8 °C 7,7 °C 8,0 km/h (2 Bft)
01.05.2019 21:12 7,7 °C 67 % 1013,1 hPa 0,0 mm 1,5 km/h (1 Bft) S-SO 156 ° 0 min 0,000 mm 0,0 UV-I 0 W/m² 2,0 °C 7,7 °C 3,2 km/h (1 Bft)
01.05.2019 21:13 7,6 °C 67 % 1013,1 hPa 0,0 mm 2,3 km/h (1 Bft) S-SO 156 ° 0 min 0,000 mm 0,0 UV-I 0 W/m² 1,9 °C 7,6 °C 3,2 km/h (1 Bft)
01.05.2019 21:14 7,6 °C 68 % 1013,1 hPa 0,0 mm 2,2 km/h (1 Bft) S-SO 156 ° 0 min 0,000 mm 0,0 UV-I 0 W/m² 2,1 °C 7,6 °C 4,8 km/h (1 Bft)
01.05.2019 21:15 7,5 °C 68 % 1013,1 hPa 0,0 mm 1,7 km/h (1 Bft) S-SO 156 ° 0 min 0,000 mm 0,0 UV-I 0 W/m² 2,0 °C 7,5 °C 3,2 km/h (1 Bft)
01.05.2019 21:16 7,4 °C 69 % 1013,2 hPa 0,0 mm 3,1 km/h (1 Bft) S-SO 156 ° 0 min 0,000 mm 0,0 UV-I 0 W/m² 2,1 °C 7,4 °C 4,8 km/h (1 Bft)
01.05.2019 21:17 7,4 °C 69 % 1013,1 hPa 0,0 mm 2,7 km/h (1 Bft) S-SO 156 ° 0 min 0,000 mm 0,0 UV-I 0 W/m² 2,1 °C 7,4 °C 3,2 km/h (1 Bft)
01.05.2019 21:18 7,3 °C 70 % 1013,1 hPa 0,0 mm 2,7 km/h (1 Bft) S-SO 156 ° 0 min 0,000 mm 0,0 UV-I 0 W/m² 2,2 °C 7,3 °C 3,2 km/h (1 Bft)
01.05.2019 21:19 7,2 °C 70 % 1013,1 hPa 0,0 mm 3,4 km/h (1 Bft) S-SO 156 ° 0 min 0,000 mm 0,0 UV-I 0 W/m² 2,1 °C 7,2 °C 4,8 km/h (1 Bft)
01.05.2019 21:20 7,1 °C 70 % 1013,0 hPa 0,0 mm 3,7 km/h (1 Bft) S-SO 156 ° 0 min 0,000 mm 0,0 UV-I 0 W/m² 2,0 °C 7,1 °C 4,8 km/h (1 Bft)
01.05.2019 21:21 7,1 °C 71 % 1013,0 hPa 0,0 mm 1,9 km/h (1 Bft) S-SO 156 ° 0 min 0,000 mm 0,0 UV-I 0 W/m² 2,2 °C 7,1 °C 4,8 km/h (1 Bft)
01.05.2019 21:22 7,0 °C 71 % 1013,0 hPa 0,0 mm 3,6 km/h (1 Bft) S-SO 157 ° 0 min 0,000 mm 0,0 UV-I 0 W/m² 2,1 °C 7,0 °C 8,0 km/h (2 Bft)
01.05.2019 21:23 6,9 °C 71 % 1013,0 hPa 0,0 mm 2,4 km/h (1 Bft) S-SO 157 ° 0 min 0,000 mm 0,0 UV-I 0 W/m² 2,0 °C 6,9 °C 3,2 km/h (1 Bft)
01.05.2019 21:24 6,9 °C 71 % 1013,0 hPa 0,0 mm 2,3 km/h (1 Bft) S-SO 157 ° 0 min 0,000 mm 0,0 UV-I 0 W/m² 2,0 °C 6,9 °C 3,2 km/h (1 Bft)
01.05.2019 21:25 6,9 °C 71 % 1013,0 hPa 0,0 mm 2,5 km/h (1 Bft) S-SO 157 ° 0 min 0,000 mm 0,0 UV-I 0 W/m² 2,0 °C 6,9 °C 4,8 km/h (1 Bft)
01.05.2019 21:26 7,0 °C 71 % 1013,0 hPa 0,0 mm 1,1 km/h (1 Bft) S-SO 157 ° 0 min 0,000 mm 0,0 UV-I 0 W/m² 2,1 °C 7,0 °C 3,2 km/h (1 Bft)
01.05.2019 21:27 7,1 °C 70 % 1013,0 hPa 0,0 mm 1,8 km/h (1 Bft) S-SO 157 ° 0 min 0,000 mm 0,0 UV-I 0 W/m² 2,0 °C 7,1 °C 3,2 km/h (1 Bft)
01.05.2019 21:28 7,2 °C 70 % 1013,0 hPa 0,0 mm 0,6 km/h (0 Bft) S-SO 157 ° 0 min 0,000 mm 0,0 UV-I 0 W/m² 2,1 °C 7,2 °C 1,6 km/h (1 Bft)
01.05.2019 21:29 7,2 °C 70 % 1013,1 hPa 0,0 mm 1,0 km/h (0 Bft) S-SO 157 ° 0 min 0,000 mm 0,0 UV-I 0 W/m² 2,1 °C 7,2 °C 3,2 km/h (1 Bft)
01.05.2019 21:30 7,3 °C 70 % 1013,0 hPa 0,0 mm 1,2 km/h (1 Bft) S-SO 157 ° 0 min 0,000 mm 0,0 UV-I 0 W/m² 2,2 °C 7,3 °C 3,2 km/h (1 Bft)
01.05.2019 21:31 7,3 °C 70 % 1013,0 hPa 0,0 mm 0,5 km/h (0 Bft) S-SO 157 ° 0 min 0,000 mm 0,0 UV-I 0 W/m² 2,2 °C 7,3 °C 1,6 km/h (1 Bft)
01.05.2019 21:32 7,3 °C 70 % 1013,0 hPa 0,0 mm 0,9 km/h (0 Bft) S-SO 157 ° 0 min 0,000 mm 0,0 UV-I 0 W/m² 2,2 °C 7,3 °C 3,2 km/h (1 Bft)
01.05.2019 21:33 7,3 °C 70 % 1013,0 hPa 0,0 mm 0,2 km/h (0 Bft) S-SO 157 ° 0 min 0,000 mm 0,0 UV-I 0 W/m² 2,2 °C 7,3 °C 1,6 km/h (1 Bft)
01.05.2019 21:34 7,3 °C 69 % 1013,0 hPa 0,0 mm 1,0 km/h (0 Bft) S-SO 157 ° 0 min 0,000 mm 0,0 UV-I 0 W/m² 2,0 °C 7,3 °C 3,2 km/h (1 Bft)
01.05.2019 21:35 7,3 °C 69 % 1013,0 hPa 0,0 mm 0,2 km/h (0 Bft) S-SO 157 ° 0 min 0,000 mm 0,0 UV-I 0 W/m² 2,0 °C 7,3 °C 1,6 km/h (1 Bft)
01.05.2019 21:36 7,3 °C 69 % 1013,0 hPa 0,0 mm 0,7 km/h (0 Bft) S-SO 157 ° 0 min 0,000 mm 0,0 UV-I 0 W/m² 2,0 °C 7,3 °C 3,2 km/h (1 Bft)
01.05.2019 21:37 7,3 °C 69 % 1013,1 hPa 0,0 mm 1,3 km/h (1 Bft) S-SO 157 ° 0 min 0,000 mm 0,0 UV-I 0 W/m² 2,0 °C 7,3 °C 3,2 km/h (1 Bft)
01.05.2019 21:38 7,3 °C 70 % 1013,1 hPa 0,0 mm 1,2 km/h (1 Bft) S-SO 157 ° 0 min 0,000 mm 0,0 UV-I 0 W/m² 2,2 °C 7,3 °C 3,2 km/h (1 Bft)
01.05.2019 21:39 7,3 °C 70 % 1013,1 hPa 0,0 mm 0,0 km/h (0 Bft) S-SO 157 ° 0 min 0,000 mm 0,0 UV-I 0 W/m² 2,2 °C 7,3 °C 0,0 km/h (0 Bft)
01.05.2019 21:40 7,2 °C 70 % 1013,1 hPa 0,0 mm 0,0 km/h (0 Bft) S-SO 157 ° 0 min 0,000 mm 0,0 UV-I 0 W/m² 2,1 °C 7,2 °C 0,0 km/h (0 Bft)
01.05.2019 21:41 7,2 °C 70 % 1013,1 hPa 0,0 mm 0,0 km/h (0 Bft) S-SO 157 ° 0 min 0,000 mm 0,0 UV-I 0 W/m² 2,1 °C 7,2 °C 0,0 km/h (0 Bft)
01.05.2019 21:42 7,2 °C 70 % 1013,1 hPa 0,0 mm 0,0 km/h (0 Bft) S-SO 157 ° 0 min 0,000 mm 0,0 UV-I 0 W/m² 2,1 °C 7,2 °C 0,0 km/h (0 Bft)
01.05.2019 21:43 7,2 °C 70 % 1013,1 hPa 0,0 mm 0,0 km/h (0 Bft) S-SO 157 ° 0 min 0,000 mm 0,0 UV-I 0 W/m² 2,1 °C 7,2 °C 0,0 km/h (0 Bft)
01.05.2019 21:44 7,1 °C 70 % 1013,1 hPa 0,0 mm 0,0 km/h (0 Bft) S-SO 157 ° 0 min 0,000 mm 0,0 UV-I 0 W/m² 2,0 °C 7,1 °C 0,0 km/h (0 Bft)
01.05.2019 21:45 7,1 °C 70 % 1013,1 hPa 0,0 mm 0,0 km/h (0 Bft) S-SO 157 ° 0 min 0,000 mm 0,0 UV-I 0 W/m² 2,0 °C 7,1 °C 0,0 km/h (0 Bft)
01.05.2019 21:46 7,1 °C 70 % 1013,1 hPa 0,0 mm 0,0 km/h (0 Bft) S-SO 157 ° 0 min 0,000 mm 0,0 UV-I 0 W/m² 2,0 °C 7,1 °C 0,0 km/h (0 Bft)
01.05.2019 21:47 7,1 °C 70 % 1013,1 hPa 0,0 mm 0,0 km/h (0 Bft) S-SO 157 ° 0 min 0,000 mm 0,0 UV-I 0 W/m² 2,0 °C 7,1 °C 0,0 km/h (0 Bft)
01.05.2019 21:48 7,1 °C 70 % 1013,1 hPa 0,0 mm 0,0 km/h (0 Bft) S-SO 157 ° 0 min 0,000 mm 0,0 UV-I 0 W/m² 2,0 °C 7,1 °C 0,0 km/h (0 Bft)
01.05.2019 21:49 7,1 °C 70 % 1013,1 hPa 0,0 mm 0,0 km/h (0 Bft) S-SO 157 ° 0 min 0,000 mm 0,0 UV-I 0 W/m² 2,0 °C 7,1 °C 0,0 km/h (0 Bft)
01.05.2019 21:50 7,0 °C 71 % 1013,1 hPa 0,0 mm 0,0 km/h (0 Bft) S-SO 157 ° 0 min 0,000 mm 0,0 UV-I 0 W/m² 2,1 °C 7,0 °C 0,0 km/h (0 Bft)
01.05.2019 21:51 6,9 °C 71 % 1013,1 hPa 0,0 mm 0,0 km/h (0 Bft) S-SO 157 ° 0 min 0,000 mm 0,0 UV-I 0 W/m² 2,0 °C 6,9 °C 0,0 km/h (0 Bft)
01.05.2019 21:52 6,8 °C 72 % 1013,1 hPa 0,0 mm 0,0 km/h (0 Bft) S-SO 157 ° 0 min 0,000 mm 0,0 UV-I 0 W/m² 2,1 °C 6,8 °C 0,0 km/h (0 Bft)
01.05.2019 21:53 6,7 °C 72 % 1013,1 hPa 0,0 mm 0,0 km/h (0 Bft) S-SO 157 ° 0 min 0,000 mm 0,0 UV-I 0 W/m² 2,0 °C 6,7 °C 0,0 km/h (0 Bft)
01.05.2019 21:54 6,5 °C 73 % 1013,1 hPa 0,0 mm 0,0 km/h (0 Bft) S-SO 157 ° 0 min 0,000 mm 0,0 UV-I 0 W/m² 2,0 °C 6,5 °C 0,0 km/h (0 Bft)
01.05.2019 21:55 6,4 °C 74 % 1013,1 hPa 0,0 mm 0,0 km/h (0 Bft) S-SO 157 ° 0 min 0,000 mm 0,0 UV-I 0 W/m² 2,1 °C 6,4 °C 0,0 km/h (0 Bft)
01.05.2019 21:56 6,3 °C 74 % 1013,1 hPa 0,0 mm 0,0 km/h (0 Bft) S-SO 157 ° 0 min 0,000 mm 0,0 UV-I 0 W/m² 2,0 °C 6,3 °C 0,0 km/h (0 Bft)
01.05.2019 21:57 6,2 °C 74 % 1013,1 hPa 0,0 mm 0,0 km/h (0 Bft) S-SO 157 ° 0 min 0,000 mm 0,0 UV-I 0 W/m² 1,9 °C 6,2 °C 0,0 km/h (0 Bft)
01.05.2019 21:58 6,2 °C 75 % 1013,1 hPa 0,0 mm 0,0 km/h (0 Bft) S-SO 157 ° 0 min 0,000 mm 0,0 UV-I 0 W/m² 2,1 °C 6,2 °C 0,0 km/h (0 Bft)
01.05.2019 21:59 6,2 °C 75 % 1013,2 hPa 0,0 mm 0,0 km/h (0 Bft) S-SO 157 ° 0 min 0,000 mm 0,0 UV-I 0 W/m² 2,1 °C 6,2 °C 0,0 km/h (0 Bft)
01.05.2019 22:00 6,2 °C 75 % 1013,2 hPa 0,0 mm 0,0 km/h (0 Bft) S-SO 157 ° 0 min 0,000 mm 0,0 UV-I 0 W/m² 2,1 °C 6,2 °C 0,0 km/h (0 Bft)
01.05.2019 22:01 6,1 °C 75 % 1013,2 hPa 0,0 mm 0,0 km/h (0 Bft) S-SO 157 ° 0 min 0,025 mm 0,0 UV-I 0 W/m² 2,0 °C 6,1 °C 0,0 km/h (0 Bft)
01.05.2019 22:02 6,1 °C 76 % 1013,2 hPa 0,0 mm 0,0 km/h (0 Bft) S-SO 157 ° 0 min 0,000 mm 0,0 UV-I 0 W/m² 2,2 °C 6,1 °C 0,0 km/h (0 Bft)
01.05.2019 22:03 6,0 °C 76 % 1013,2 hPa 0,0 mm 0,0 km/h (0 Bft) S-SO 157 ° 0 min 0,000 mm 0,0 UV-I 0 W/m² 2,1 °C 6,0 °C 0,0 km/h (0 Bft)
01.05.2019 22:04 5,9 °C 76 % 1013,2 hPa 0,0 mm 0,0 km/h (0 Bft) S-SO 157 ° 0 min 0,000 mm 0,0 UV-I 0 W/m² 2,0 °C 5,9 °C 0,0 km/h (0 Bft)
01.05.2019 22:05 5,8 °C 77 % 1013,1 hPa 0,0 mm 0,0 km/h (0 Bft) S-SO 157 ° 0 min 0,000 mm 0,0 UV-I 0 W/m² 2,1 °C 5,8 °C 0,0 km/h (0 Bft)
01.05.2019 22:06 5,8 °C 77 % 1013,2 hPa 0,0 mm 0,0 km/h (0 Bft) S-SO 157 ° 0 min 0,000 mm 0,0 UV-I 0 W/m² 2,1 °C 5,8 °C 0,0 km/h (0 Bft)
01.05.2019 22:07 5,8 °C 78 % 1013,2 hPa 0,0 mm 0,0 km/h (0 Bft) S-SO 157 ° 0 min 0,000 mm 0,0 UV-I 0 W/m² 2,3 °C 5,8 °C 0,0 km/h (0 Bft)
01.05.2019 22:08 5,7 °C 78 % 1013,2 hPa 0,0 mm 0,0 km/h (0 Bft) S-SO 157 ° 0 min 0,000 mm 0,0 UV-I 0 W/m² 2,2 °C 5,7 °C 0,0 km/h (0 Bft)
01.05.2019 22:09 5,8 °C 78 % 1013,2 hPa 0,0 mm 0,0 km/h (0 Bft) S-SO 157 ° 0 min 0,000 mm 0,0 UV-I 0 W/m² 2,3 °C 5,8 °C 0,0 km/h (0 Bft)
01.05.2019 22:10 5,7 °C 78 % 1013,2 hPa 0,0 mm 0,0 km/h (0 Bft) S-SO 157 ° 0 min 0,000 mm 0,0 UV-I 0 W/m² 2,2 °C 5,7 °C 0,0 km/h (0 Bft)
01.05.2019 22:11 5,8 °C 78 % 1013,1 hPa 0,0 mm 0,0 km/h (0 Bft) S-SO 157 ° 0 min 0,000 mm 0,0 UV-I 0 W/m² 2,3 °C 5,8 °C 0,0 km/h (0 Bft)
01.05.2019 22:12 5,7 °C 78 % 1013,2 hPa 0,0 mm 0,0 km/h (0 Bft) S-SO 157 ° 0 min 0,000 mm 0,0 UV-I 0 W/m² 2,2 °C 5,7 °C 0,0 km/h (0 Bft)
01.05.2019 22:13 5,7 °C 78 % 1013,2 hPa 0,0 mm 0,0 km/h (0 Bft) S-SO 157 ° 0 min 0,000 mm 0,0 UV-I 0 W/m² 2,2 °C 5,7 °C 0,0 km/h (0 Bft)
01.05.2019 22:14 5,7 °C 78 % 1013,1 hPa 0,0 mm 0,0 km/h (0 Bft) S-SO 157 ° 0 min 0,000 mm 0,0 UV-I 0 W/m² 2,2 °C 5,7 °C 0,0 km/h (0 Bft)
01.05.2019 22:15 5,7 °C 78 % 1013,1 hPa 0,0 mm 0,0 km/h (0 Bft) S-SO 157 ° 0 min 0,000 mm 0,0 UV-I 0 W/m² 2,2 °C 5,7 °C 0,0 km/h (0 Bft)
01.05.2019 22:16 5,7 °C 78 % 1013,2 hPa 0,0 mm 0,0 km/h (0 Bft) S-SO 157 ° 0 min 0,000 mm 0,0 UV-I 0 W/m² 2,2 °C 5,7 °C 0,0 km/h (0 Bft)
01.05.2019 22:17 5,7 °C 78 % 1013,2 hPa 0,0 mm 0,0 km/h (0 Bft) S-SO 157 ° 0 min 0,000 mm 0,0 UV-I 0 W/m² 2,2 °C 5,7 °C 0,0 km/h (0 Bft)
01.05.2019 22:18 5,6 °C 78 % 1013,2 hPa 0,0 mm 0,0 km/h (0 Bft) S-SO 157 ° 0 min 0,000 mm 0,0 UV-I 0 W/m² 2,1 °C 5,6 °C 0,0 km/h (0 Bft)
01.05.2019 22:19 5,6 °C 78 % 1013,1 hPa 0,0 mm 0,0 km/h (0 Bft) S-SO 157 ° 0 min 0,000 mm 0,0 UV-I 0 W/m² 2,1 °C 5,6 °C 0,0 km/h (0 Bft)
01.05.2019 22:20 5,6 °C 78 % 1013,1 hPa 0,0 mm 0,0 km/h (0 Bft) S-SO 157 ° 0 min 0,000 mm 0,0 UV-I 0 W/m² 2,1 °C 5,6 °C 0,0 km/h (0 Bft)
01.05.2019 22:21 5,6 °C 78 % 1013,1 hPa 0,0 mm 0,0 km/h (0 Bft) S-SO 157 ° 0 min 0,000 mm 0,0 UV-I 0 W/m² 2,1 °C 5,6 °C 0,0 km/h (0 Bft)
01.05.2019 22:22 5,6 °C 78 % 1013,1 hPa 0,0 mm 0,0 km/h (0 Bft) S-SO 157 ° 0 min 0,000 mm 0,0 UV-I 0 W/m² 2,1 °C 5,6 °C 0,0 km/h (0 Bft)
01.05.2019 22:23 5,6 °C 78 % 1013,1 hPa 0,0 mm 0,0 km/h (0 Bft) S-SO 157 ° 0 min 0,000 mm 0,0 UV-I 0 W/m² 2,1 °C 5,6 °C 0,0 km/h (0 Bft)
01.05.2019 22:24 5,6 °C 78 % 1013,1 hPa 0,0 mm 0,0 km/h (0 Bft) S-SO 157 ° 0 min 0,000 mm 0,0 UV-I 0 W/m² 2,1 °C 5,6 °C 0,0 km/h (0 Bft)
01.05.2019 22:25 5,6 °C 78 % 1013,1 hPa 0,0 mm 0,0 km/h (0 Bft) S-SO 157 ° 0 min 0,000 mm 0,0 UV-I 0 W/m² 2,1 °C 5,6 °C 0,0 km/h (0 Bft)
01.05.2019 22:26 5,6 °C 78 % 1013,1 hPa 0,0 mm 0,0 km/h (0 Bft) S-SO 157 ° 0 min 0,000 mm 0,0 UV-I 0 W/m² 2,1 °C 5,6 °C 0,0 km/h (0 Bft)
01.05.2019 22:27 5,5 °C 79 % 1013,1 hPa 0,0 mm 0,0 km/h (0 Bft) S-SO 157 ° 0 min 0,000 mm 0,0 UV-I 0 W/m² 2,2 °C 5,5 °C 0,0 km/h (0 Bft)
01.05.2019 22:28 5,5 °C 79 % 1013,1 hPa 0,0 mm 0,0 km/h (0 Bft) S-SO 157 ° 0 min 0,000 mm 0,0 UV-I 0 W/m² 2,2 °C 5,5 °C 0,0 km/h (0 Bft)
01.05.2019 22:29 5,5 °C 79 % 1013,1 hPa 0,0 mm 0,0 km/h (0 Bft) S-SO 157 ° 0 min 0,000 mm 0,0 UV-I 0 W/m² 2,2 °C 5,5 °C 0,0 km/h (0 Bft)
01.05.2019 22:30 5,5 °C 79 % 1013,1 hPa 0,0 mm 0,0 km/h (0 Bft) S-SO 157 ° 0 min 0,000 mm 0,0 UV-I 0 W/m² 2,2 °C 5,5 °C 0,0 km/h (0 Bft)
01.05.2019 22:31 5,5 °C 80 % 1013,0 hPa 0,0 mm 0,0 km/h (0 Bft) S-SO 157 ° 0 min 0,000 mm 0,0 UV-I 0 W/m² 2,3 °C 5,5 °C 0,0 km/h (0 Bft)
01.05.2019 22:32 5,5 °C 80 % 1013,0 hPa 0,0 mm 0,0 km/h (0 Bft) S-SO 157 ° 0 min 0,000 mm 0,0 UV-I 0 W/m² 2,3 °C 5,5 °C 0,0 km/h (0 Bft)
01.05.2019 22:33 5,6 °C 80 % 1013,0 hPa 0,0 mm 0,0 km/h (0 Bft) S-SO 157 ° 0 min 0,000 mm 0,0 UV-I 0 W/m² 2,4 °C 5,6 °C 0,0 km/h (0 Bft)
01.05.2019 22:34 5,6 °C 79 % 1013,1 hPa 0,0 mm 0,0 km/h (0 Bft) S-SO 157 ° 0 min 0,000 mm 0,0 UV-I 0 W/m² 2,3 °C 5,6 °C 0,0 km/h (0 Bft)
01.05.2019 22:35 5,6 °C 80 % 1013,0 hPa 0,0 mm 0,0 km/h (0 Bft) S-SO 157 ° 0 min 0,000 mm 0,0 UV-I 0 W/m² 2,4 °C 5,6 °C 0,0 km/h (0 Bft)
01.05.2019 22:36 5,6 °C 80 % 1013,0 hPa 0,0 mm 0,0 km/h (0 Bft) S-SO 157 ° 0 min 0,000 mm 0,0 UV-I 0 W/m² 2,4 °C 5,6 °C 0,0 km/h (0 Bft)
01.05.2019 22:37 5,6 °C 79 % 1013,1 hPa 0,0 mm 0,0 km/h (0 Bft) S-SO 157 ° 0 min 0,000 mm 0,0 UV-I 0 W/m² 2,3 °C 5,6 °C 0,0 km/h (0 Bft)
01.05.2019 22:38 5,6 °C 79 % 1013,0 hPa 0,0 mm 0,0 km/h (0 Bft) S-SO 157 ° 0 min 0,000 mm 0,0 UV-I 0 W/m² 2,3 °C 5,6 °C 0,0 km/h (0 Bft)
01.05.2019 22:39 5,6 °C 79 % 1013,1 hPa 0,0 mm 0,0 km/h (0 Bft) S-SO 157 ° 0 min 0,000 mm 0,0 UV-I 0 W/m² 2,3 °C 5,6 °C 0,0 km/h (0 Bft)
01.05.2019 22:40 5,6 °C 79 % 1013,1 hPa 0,0 mm 0,0 km/h (0 Bft) S-SO 157 ° 0 min 0,000 mm 0,0 UV-I 0 W/m² 2,3 °C 5,6 °C 0,0 km/h (0 Bft)
01.05.2019 22:41 5,5 °C 79 % 1013,1 hPa 0,0 mm 0,0 km/h (0 Bft) S-SO 157 ° 0 min 0,000 mm 0,0 UV-I 0 W/m² 2,2 °C 5,5 °C 0,0 km/h (0 Bft)
01.05.2019 22:42 5,4 °C 79 % 1013,0 hPa 0,0 mm 0,0 km/h (0 Bft) S-SO 157 ° 0 min 0,000 mm 0,0 UV-I 0 W/m² 2,1 °C 5,4 °C 0,0 km/h (0 Bft)
01.05.2019 22:43 5,4 °C 80 % 1013,0 hPa 0,0 mm 0,0 km/h (0 Bft) S-SO 157 ° 0 min 0,000 mm 0,0 UV-I 0 W/m² 2,2 °C 5,4 °C 0,0 km/h (0 Bft)
01.05.2019 22:44 5,4 °C 80 % 1013,0 hPa 0,0 mm 0,0 km/h (0 Bft) S-SO 157 ° 0 min 0,000 mm 0,0 UV-I 0 W/m² 2,2 °C 5,4 °C 0,0 km/h (0 Bft)
01.05.2019 22:45 5,4 °C 80 % 1013,0 hPa 0,0 mm 0,0 km/h (0 Bft) S-SO 157 ° 0 min 0,000 mm 0,0 UV-I 0 W/m² 2,2 °C 5,4 °C 0,0 km/h (0 Bft)
01.05.2019 22:46 5,4 °C 80 % 1013,0 hPa 0,0 mm 0,0 km/h (0 Bft) S-SO 157 ° 0 min 0,000 mm 0,0 UV-I 0 W/m² 2,2 °C 5,4 °C 0,0 km/h (0 Bft)
01.05.2019 22:47 5,4 °C 79 % 1013,0 hPa 0,0 mm 0,0 km/h (0 Bft) S-SO 157 ° 0 min 0,000 mm 0,0 UV-I 0 W/m² 2,1 °C 5,4 °C 0,0 km/h (0 Bft)
01.05.2019 22:48 5,4 °C 79 % 1013,0 hPa 0,0 mm 0,0 km/h (0 Bft) S-SO 157 ° 0 min 0,000 mm 0,0 UV-I 0 W/m² 2,1 °C 5,4 °C 0,0 km/h (0 Bft)
01.05.2019 22:49 5,4 °C 79 % 1013,0 hPa 0,0 mm 0,0 km/h (0 Bft) S-SO 157 ° 0 min 0,000 mm 0,0 UV-I 0 W/m² 2,1 °C 5,4 °C 0,0 km/h (0 Bft)
01.05.2019 22:50 5,4 °C 79 % 1013,0 hPa 0,0 mm 0,0 km/h (0 Bft) S-SO 157 ° 0 min 0,000 mm 0,0 UV-I 0 W/m² 2,1 °C 5,4 °C 0,0 km/h (0 Bft)
01.05.2019 22:51 5,3 °C 79 % 1013,0 hPa 0,0 mm 0,0 km/h (0 Bft) S-SO 157 ° 0 min 0,000 mm 0,0 UV-I 0 W/m² 2,0 °C 5,3 °C 0,0 km/h (0 Bft)
01.05.2019 22:52 5,2 °C 79 % 1012,9 hPa 0,0 mm 0,0 km/h (0 Bft) S-SO 157 ° 0 min 0,000 mm 0,0 UV-I 0 W/m² 1,9 °C 5,2 °C 0,0 km/h (0 Bft)
01.05.2019 22:53 5,2 °C 79 % 1013,0 hPa 0,0 mm 0,0 km/h (0 Bft) S-SO 157 ° 0 min 0,000 mm 0,0 UV-I 0 W/m² 1,9 °C 5,2 °C 0,0 km/h (0 Bft)
01.05.2019 22:54 5,2 °C 79 % 1013,0 hPa 0,0 mm 0,0 km/h (0 Bft) S-SO 157 ° 0 min 0,000 mm 0,0 UV-I 0 W/m² 1,9 °C 5,2 °C 0,0 km/h (0 Bft)
01.05.2019 22:55 5,1 °C 80 % 1013,1 hPa 0,0 mm 0,0 km/h (0 Bft) S-SO 157 ° 0 min 0,000 mm 0,0 UV-I 0 W/m² 1,9 °C 5,1 °C 0,0 km/h (0 Bft)
01.05.2019 22:56 5,1 °C 80 % 1013,0 hPa 0,0 mm 0,0 km/h (0 Bft) S-SO 157 ° 0 min 0,000 mm 0,0 UV-I 0 W/m² 1,9 °C 5,1 °C 0,0 km/h (0 Bft)
01.05.2019 22:57 5,1 °C 80 % 1012,9 hPa 0,0 mm 0,0 km/h (0 Bft) S-SO 157 ° 0 min 0,000 mm 0,0 UV-I 0 W/m² 1,9 °C 5,1 °C 0,0 km/h (0 Bft)
01.05.2019 22:58 5,1 °C 80 % 1013,0 hPa 0,0 mm 0,0 km/h (0 Bft) S-SO 157 ° 0 min 0,000 mm 0,0 UV-I 0 W/m² 1,9 °C 5,1 °C 0,0 km/h (0 Bft)
01.05.2019 22:59 5,1 °C 80 % 1013,0 hPa 0,0 mm 0,0 km/h (0 Bft) S-SO 157 ° 0 min 0,000 mm 0,0 UV-I 0 W/m² 1,9 °C 5,1 °C 0,0 km/h (0 Bft)
01.05.2019 23:00 5,1 °C 80 % 1013,0 hPa 0,0 mm 0,0 km/h (0 Bft) S-SO 157 ° 0 min 0,000 mm 0,0 UV-I 0 W/m² 1,9 °C 5,1 °C 0,0 km/h (0 Bft)
01.05.2019 23:01 5,0 °C 80 % 1013,0 hPa 0,0 mm 0,0 km/h (0 Bft) S-SO 157 ° 0 min 0,000 mm 0,0 UV-I 0 W/m² 1,8 °C 5,0 °C 0,0 km/h (0 Bft)
01.05.2019 23:02 5,0 °C 80 % 1013,0 hPa 0,0 mm 0,0 km/h (0 Bft) S-SO 157 ° 0 min 0,000 mm 0,0 UV-I 0 W/m² 1,8 °C 5,0 °C 0,0 km/h (0 Bft)
01.05.2019 23:03 5,0 °C 80 % 1013,0 hPa 0,0 mm 0,0 km/h (0 Bft) S-SO 157 ° 0 min 0,000 mm 0,0 UV-I 0 W/m² 1,8 °C 5,0 °C 0,0 km/h (0 Bft)
01.05.2019 23:04 4,9 °C 80 % 1012,9 hPa 0,0 mm 0,0 km/h (0 Bft) S-SO 157 ° 0 min 0,000 mm 0,0 UV-I 0 W/m² 1,7 °C 4,9 °C 0,0 km/h (0 Bft)
01.05.2019 23:05 4,9 °C 81 % 1012,9 hPa 0,0 mm 0,0 km/h (0 Bft) S-SO 157 ° 0 min 0,000 mm 0,0 UV-I 0 W/m² 1,9 °C 4,9 °C 0,0 km/h (0 Bft)
01.05.2019 23:06 4,9 °C 81 % 1013,0 hPa 0,0 mm 0,1 km/h (0 Bft) S-SO 157 ° 0 min 0,000 mm 0,0 UV-I 0 W/m² 1,9 °C 4,9 °C 1,6 km/h (1 Bft)
01.05.2019 23:07 4,9 °C 81 % 1013,0 hPa 0,0 mm 0,0 km/h (0 Bft) S-SO 157 ° 0 min 0,000 mm 0,0 UV-I 0 W/m² 1,9 °C 4,9 °C 0,0 km/h (0 Bft)
01.05.2019 23:08 4,9 °C 81 % 1013,0 hPa 0,0 mm 0,0 km/h (0 Bft) S-SO 157 ° 0 min 0,000 mm 0,0 UV-I 0 W/m² 1,9 °C 4,9 °C 0,0 km/h (0 Bft)
01.05.2019 23:09 4,9 °C 81 % 1013,0 hPa 0,0 mm 0,0 km/h (0 Bft) S-SO 157 ° 0 min 0,000 mm 0,0 UV-I 0 W/m² 1,9 °C 4,9 °C 0,0 km/h (0 Bft)
01.05.2019 23:10 4,9 °C 81 % 1013,0 hPa 0,0 mm 0,0 km/h (0 Bft) S-SO 157 ° 0 min 0,000 mm 0,0 UV-I 0 W/m² 1,9 °C 4,9 °C 0,0 km/h (0 Bft)
01.05.2019 23:11 4,9 °C 80 % 1012,9 hPa 0,0 mm 0,0 km/h (0 Bft) S-SO 157 ° 0 min 0,000 mm 0,0 UV-I 0 W/m² 1,7 °C 4,9 °C 0,0 km/h (0 Bft)
01.05.2019 23:12 4,9 °C 80 % 1012,9 hPa 0,0 mm 0,0 km/h (0 Bft) S-SO 157 ° 0 min 0,000 mm 0,0 UV-I 0 W/m² 1,7 °C 4,9 °C 0,0 km/h (0 Bft)
01.05.2019 23:13 4,9 °C 80 % 1012,9 hPa 0,0 mm 0,0 km/h (0 Bft) S-SO 157 ° 0 min 0,000 mm 0,0 UV-I 0 W/m² 1,7 °C 4,9 °C 0,0 km/h (0 Bft)
01.05.2019 23:14 4,9 °C 80 % 1012,9 hPa 0,0 mm 0,0 km/h (0 Bft) S-SO 157 ° 0 min 0,000 mm 0,0 UV-I 0 W/m² 1,7 °C 4,9 °C 0,0 km/h (0 Bft)
01.05.2019 23:15 4,9 °C 80 % 1012,9 hPa 0,0 mm 0,0 km/h (0 Bft) S-SO 157 ° 0 min 0,000 mm 0,0 UV-I 0 W/m² 1,7 °C 4,9 °C 0,0 km/h (0 Bft)
01.05.2019 23:16 4,9 °C 80 % 1012,9 hPa 0,0 mm 0,0 km/h (0 Bft) S-SO 157 ° 0 min 0,000 mm 0,0 UV-I 0 W/m² 1,7 °C 4,9 °C 0,0 km/h (0 Bft)
01.05.2019 23:17 4,9 °C 81 % 1012,9 hPa 0,0 mm 0,0 km/h (0 Bft) S-SO 157 ° 0 min 0,000 mm 0,0 UV-I 0 W/m² 1,9 °C 4,9 °C 0,0 km/h (0 Bft)
01.05.2019 23:18 4,9 °C 81 % 1012,9 hPa 0,0 mm 0,0 km/h (0 Bft) S-SO 157 ° 0 min 0,000 mm 0,0 UV-I 0 W/m² 1,9 °C 4,9 °C 0,0 km/h (0 Bft)
01.05.2019 23:19 5,0 °C 81 % 1012,9 hPa 0,0 mm 0,0 km/h (0 Bft) S-SO 157 ° 0 min 0,000 mm 0,0 UV-I 0 W/m² 2,0 °C 5,0 °C 0,0 km/h (0 Bft)
01.05.2019 23:20 4,9 °C 81 % 1012,9 hPa 0,0 mm 0,0 km/h (0 Bft) S-SO 157 ° 0 min 0,000 mm 0,0 UV-I 0 W/m² 1,9 °C 4,9 °C 0,0 km/h (0 Bft)
01.05.2019 23:21 5,1 °C 81 % 1012,8 hPa 0,0 mm 0,0 km/h (0 Bft) S-SO 157 ° 0 min 0,000 mm 0,0 UV-I 0 W/m² 2,1 °C 5,1 °C 0,0 km/h (0 Bft)
01.05.2019 23:22 5,0 °C 82 % 1012,8 hPa 0,0 mm 0,0 km/h (0 Bft) S-SO 157 ° 0 min 0,000 mm 0,0 UV-I 0 W/m² 2,2 °C 5,0 °C 0,0 km/h (0 Bft)
01.05.2019 23:23 5,0 °C 82 % 1012,8 hPa 0,0 mm 0,0 km/h (0 Bft) S-SO 157 ° 0 min 0,000 mm 0,0 UV-I 0 W/m² 2,2 °C 5,0 °C 0,0 km/h (0 Bft)
01.05.2019 23:24 5,0 °C 82 % 1012,8 hPa 0,0 mm 0,0 km/h (0 Bft) S-SO 157 ° 0 min 0,000 mm 0,0 UV-I 0 W/m² 2,2 °C 5,0 °C 0,0 km/h (0 Bft)
01.05.2019 23:25 5,0 °C 82 % 1012,9 hPa 0,0 mm 0,0 km/h (0 Bft) S-SO 157 ° 0 min 0,000 mm 0,0 UV-I 0 W/m² 2,2 °C 5,0 °C 0,0 km/h (0 Bft)
01.05.2019 23:26 5,0 °C 82 % 1012,8 hPa 0,0 mm 0,0 km/h (0 Bft) S-SO 157 ° 0 min 0,000 mm 0,0 UV-I 0 W/m² 2,2 °C 5,0 °C 0,0 km/h (0 Bft)
01.05.2019 23:27 4,9 °C 82 % 1012,8 hPa 0,0 mm 0,0 km/h (0 Bft) S-SO 157 ° 0 min 0,000 mm 0,0 UV-I 0 W/m² 2,1 °C 4,9 °C 0,0 km/h (0 Bft)
01.05.2019 23:28 5,0 °C 81 % 1012,8 hPa 0,0 mm 0,0 km/h (0 Bft) S-SO 157 ° 0 min 0,000 mm 0,0 UV-I 0 W/m² 2,0 °C 5,0 °C 0,0 km/h (0 Bft)
01.05.2019 23:29 5,0 °C 81 % 1012,8 hPa 0,0 mm 0,0 km/h (0 Bft) S-SO 157 ° 0 min 0,000 mm 0,0 UV-I 0 W/m² 2,0 °C 5,0 °C 0,0 km/h (0 Bft)
01.05.2019 23:30 4,9 °C 81 % 1012,8 hPa 0,0 mm 0,0 km/h (0 Bft) S-SO 157 ° 0 min 0,000 mm 0,0 UV-I 0 W/m² 1,9 °C 4,9 °C 0,0 km/h (0 Bft)
01.05.2019 23:31 4,9 °C 81 % 1012,8 hPa 0,0 mm 0,0 km/h (0 Bft) S-SO 157 ° 0 min 0,000 mm 0,0 UV-I 0 W/m² 1,9 °C 4,9 °C 0,0 km/h (0 Bft)
01.05.2019 23:32 4,9 °C 81 % 1012,8 hPa 0,0 mm 0,0 km/h (0 Bft) S-SO 157 ° 0 min 0,000 mm 0,0 UV-I 0 W/m² 1,9 °C 4,9 °C 0,0 km/h (0 Bft)
01.05.2019 23:33 4,9 °C 81 % 1012,8 hPa 0,0 mm 0,0 km/h (0 Bft) S-SO 157 ° 0 min 0,000 mm 0,0 UV-I 0 W/m² 1,9 °C 4,9 °C 0,0 km/h (0 Bft)
01.05.2019 23:34 4,9 °C 81 % 1012,8 hPa 0,0 mm 0,0 km/h (0 Bft) S-SO 157 ° 0 min 0,000 mm 0,0 UV-I 0 W/m² 1,9 °C 4,9 °C 0,0 km/h (0 Bft)
01.05.2019 23:35 4,9 °C 81 % 1012,8 hPa 0,0 mm 0,0 km/h (0 Bft) S-SO 157 ° 0 min 0,000 mm 0,0 UV-I 0 W/m² 1,9 °C 4,9 °C 0,0 km/h (0 Bft)
01.05.2019 23:36 4,9 °C 81 % 1012,8 hPa 0,0 mm 0,0 km/h (0 Bft) S-SO 157 ° 0 min 0,000 mm 0,0 UV-I 0 W/m² 1,9 °C 4,9 °C 0,0 km/h (0 Bft)
01.05.2019 23:37 4,9 °C 82 % 1012,8 hPa 0,0 mm 0,0 km/h (0 Bft) S-SO 157 ° 0 min 0,000 mm 0,0 UV-I 0 W/m² 2,1 °C 4,9 °C 0,0 km/h (0 Bft)
01.05.2019 23:38 4,9 °C 82 % 1012,8 hPa 0,0 mm 0,0 km/h (0 Bft) S-SO 157 ° 0 min 0,000 mm 0,0 UV-I 0 W/m² 2,1 °C 4,9 °C 0,0 km/h (0 Bft)
01.05.2019 23:39 4,9 °C 82 % 1012,8 hPa 0,0 mm 0,0 km/h (0 Bft) S-SO 157 ° 0 min 0,000 mm 0,0 UV-I 0 W/m² 2,1 °C 4,9 °C 0,0 km/h (0 Bft)
01.05.2019 23:40 4,9 °C 82 % 1012,8 hPa 0,0 mm 0,0 km/h (0 Bft) S-SO 157 ° 0 min 0,000 mm 0,0 UV-I 0 W/m² 2,1 °C 4,9 °C 0,0 km/h (0 Bft)
01.05.2019 23:41 4,8 °C 82 % 1012,8 hPa 0,0 mm 0,0 km/h (0 Bft) S-SO 157 ° 0 min 0,000 mm 0,0 UV-I 0 W/m² 2,0 °C 4,8 °C 0,0 km/h (0 Bft)
01.05.2019 23:42 4,9 °C 82 % 1012,8 hPa 0,0 mm 0,0 km/h (0 Bft) S-SO 157 ° 0 min 0,000 mm 0,0 UV-I 0 W/m² 2,1 °C 4,9 °C 0,0 km/h (0 Bft)
01.05.2019 23:43 4,9 °C 82 % 1012,8 hPa 0,0 mm 0,0 km/h (0 Bft) S-SO 157 ° 0 min 0,000 mm 0,0 UV-I 0 W/m² 2,1 °C 4,9 °C 0,0 km/h (0 Bft)
01.05.2019 23:44 4,8 °C 82 % 1012,8 hPa 0,0 mm 0,0 km/h (0 Bft) S-SO 157 ° 0 min 0,000 mm 0,0 UV-I 0 W/m² 2,0 °C 4,8 °C 0,0 km/h (0 Bft)
01.05.2019 23:45 4,8 °C 82 % 1012,8 hPa 0,0 mm 0,0 km/h (0 Bft) S-SO 157 ° 0 min 0,000 mm 0,0 UV-I 0 W/m² 2,0 °C 4,8 °C 0,0 km/h (0 Bft)
01.05.2019 23:46 4,8 °C 83 % 1012,8 hPa 0,0 mm 0,0 km/h (0 Bft) S-SO 157 ° 0 min 0,000 mm 0,0 UV-I 0 W/m² 2,2 °C 4,8 °C 0,0 km/h (0 Bft)
01.05.2019 23:47 4,8 °C 82 % 1012,8 hPa 0,0 mm 0,0 km/h (0 Bft) S-SO 157 ° 0 min 0,000 mm 0,0 UV-I 0 W/m² 2,0 °C 4,8 °C 0,0 km/h (0 Bft)
01.05.2019 23:48 4,8 °C 82 % 1012,8 hPa 0,0 mm 0,0 km/h (0 Bft) S-SO 157 ° 0 min 0,000 mm 0,0 UV-I 0 W/m² 2,0 °C 4,8 °C 0,0 km/h (0 Bft)
01.05.2019 23:49 4,9 °C 82 % 1012,8 hPa 0,0 mm 0,0 km/h (0 Bft) S-SO 157 ° 0 min 0,000 mm 0,0 UV-I 0 W/m² 2,1 °C 4,9 °C 0,0 km/h (0 Bft)
01.05.2019 23:50 4,9 °C 82 % 1012,8 hPa 0,0 mm 0,0 km/h (0 Bft) S-SO 157 ° 0 min 0,000 mm 0,0 UV-I 0 W/m² 2,1 °C 4,9 °C 0,0 km/h (0 Bft)
01.05.2019 23:51 4,9 °C 82 % 1012,8 hPa 0,0 mm 0,0 km/h (0 Bft) S-SO 157 ° 0 min 0,000 mm 0,0 UV-I 0 W/m² 2,1 °C 4,9 °C 0,0 km/h (0 Bft)
01.05.2019 23:52 4,8 °C 82 % 1012,8 hPa 0,0 mm 0,0 km/h (0 Bft) S-SO 157 ° 0 min 0,000 mm 0,0 UV-I 0 W/m² 2,0 °C 4,8 °C 0,0 km/h (0 Bft)
01.05.2019 23:53 4,8 °C 82 % 1012,8 hPa 0,0 mm 0,0 km/h (0 Bft) S-SO 157 ° 0 min 0,000 mm 0,0 UV-I 0 W/m² 2,0 °C 4,8 °C 0,0 km/h (0 Bft)
01.05.2019 23:54 4,8 °C 82 % 1012,7 hPa 0,0 mm 0,0 km/h (0 Bft) S-SO 157 ° 0 min 0,000 mm 0,0 UV-I 0 W/m² 2,0 °C 4,8 °C 0,0 km/h (0 Bft)
01.05.2019 23:55 4,8 °C 82 % 1012,8 hPa 0,0 mm 0,0 km/h (0 Bft) S-SO 157 ° 0 min 0,000 mm 0,0 UV-I 0 W/m² 2,0 °C 4,8 °C 0,0 km/h (0 Bft)
01.05.2019 23:56 4,9 °C 82 % 1012,8 hPa 0,0 mm 0,0 km/h (0 Bft) S-SO 157 ° 0 min 0,000 mm 0,0 UV-I 0 W/m² 2,1 °C 4,9 °C 0,0 km/h (0 Bft)
01.05.2019 23:57 4,9 °C 82 % 1012,8 hPa 0,0 mm 0,0 km/h (0 Bft) S-SO 157 ° 0 min 0,000 mm 0,0 UV-I 0 W/m² 2,1 °C 4,9 °C 0,0 km/h (0 Bft)
01.05.2019 23:58 4,9 °C 82 % 1012,7 hPa 0,0 mm 0,0 km/h (0 Bft) S-SO 157 ° 0 min 0,000 mm 0,0 UV-I 0 W/m² 2,1 °C 4,9 °C 0,0 km/h (0 Bft)
01.05.2019 23:59 4,8 °C 82 % 1012,8 hPa 0,0 mm 0,0 km/h (0 Bft) S-SO 157 ° 0 min 0,000 mm 0,0 UV-I 0 W/m² 2,0 °C 4,8 °C 0,0 km/h (0 Bft)
_ Min-Zeit 06:17 17:03 23:58 - 23:59 - - - - - - 17:03 06:17 23:59
Minimum _ 1,2 °C 37 % 1012,7 hPa - 0,0 km/h (0 Bft) - - - - - - -0,2 °C 1,2 °C 0,0 km/h (0 Bft)
_ Max-Zeit 15:59 06:54 00:01 23:59 15:37 - - 16:07 15:01 13:41 12:05 12:12 15:59 14:58
Maximum _ 15,0 °C 93 % 1018,7 hPa 0,0 mm 15,1 km/h
N (3 Bft)
- - 1 min 0,482 mm 6,0 UV-I 932 W/m² 5,6 °C 15,0 °C 20,9 km/h
O (4 Bft)
Durchschnitt _ 8,4 °C 69 % 1015,4 hPa #0,0 mm 1,9 km/h (1 Bft) N - #5:49 h #3,429 mm 3,4 UV-I 269 W/m² 2,2 °C 8,3 °C 3,4 km/h (1 Bft)